.

MPMG - Transparência

Contracheque - Verbas indenizatórias e outras remunerações temporárias - Tabela III (Resolução nº 200/2019) - Pós Resolução CNMP 200/2019

Período: 2023 - Janeiro

Ordem Matrícula Nome Cargo Lotação Verbas Indenizatórias *1 Outras Remunerações Temporárias *2 Data de Referência
Auxílio Alimentação Auxílio Creche Auxílio Saúde Auxílio Transporte Estagiário Indenizações Indenizações e Diligênias Adicionais de Periculosidade e Insalubridade Gratificações Outras Remunerações
1 498900 ABDON MARCIO BARBOSA DA SILVA OFICIAL DO MP ABRE CAMPO - COMARCA; ABRE CAMPO-PJ-01PJ 1.333,00 0,00 578,00 0,00 4.820,15 0,00 0,00 0,00 827,26 31/01/2023
2 293600 ABELARDO GUIMARAES CASTRO PROMOT.ENTRANC.ESPECIAL BELO HORIZONTE - COMARCA; BH-18PJ VIOLENCIA DOMESTICA-GAB 044PJ 1.333,00 0,00 3.140,38 0,00 16.844,55 0,00 0,00 0,00 514,69 31/01/2023
3 99200 ADALBERTO DE PAULA CHRISTO LEITE PROMOT.ENTRANC.ESPECIAL SÃO JOÃO DEL REI - COMARCA; SAO JOAO DEL REI-PJ-02PJ 1.333,00 0,00 3.368,91 0,00 13.077,11 0,00 0,00 0,00 0,00 31/01/2023
4 177800 ADALBERTO MENEZES FARIA SAMORA OFICIAL DO MP BELO HORIZONTE - COMARCA; DIRET DE PLANOS PROJETOS E PROGRAMAS INST 1.333,00 0,00 578,00 0,00 5.330,44 0,00 0,00 0,00 1.977,52 31/01/2023
5 306400 ADALBERTO MOREIRA GONCALVES ANALISTA DO MP BELO HORIZONTE - COMARCA; BH-24PJ JUIZO REG BARREIRO-SECRETARIA 1.333,00 0,00 578,00 0,00 5.145,66 0,00 0,00 0,00 1.833,62 31/01/2023
6 100400 ADELAIDE CRISTINA DE CARVALHO MACHADO PROCURADOR DE JUSTICA BELO HORIZONTE - COMARCA; GABINETE DE PROCURADOR DE JUSTIÇA - SALA 708 1.333,00 0,00 1.392,91 0,00 18.144,48 0,00 0,00 0,00 693,02 31/01/2023
7 96500 ADELIA LAGE DE OLIVEIRA PROCURADOR DE JUSTICA BELO HORIZONTE - COMARCA; GABINETE DE PROCURADOR DE JUSTIÇA - SALA 403 1.333,00 0,00 1.519,54 0,00 7.560,20 0,00 0,00 0,00 693,02 31/01/2023
8 49200 ADEMAR PEREIRA PROMOTOR 2A ENTRANCIA MACHADO - COMARCA; MACHADO-PJ-01PJ 1.333,00 0,00 3.200,47 0,00 22.680,60 0,00 0,00 0,00 693,02 31/01/2023
9 179300 ADENISE AUXILIADORA SOUZA SAD OFICIAL DO MP BARBACENA - COMARCA; BARBACENA-PJ-06PJ 1.333,00 0,00 578,00 0,00 5.127,46 0,00 0,00 0,00 1.749,63 31/01/2023
10 272200 ADILSON BATISTA ORNELAS OFICIAL DO MP LAVRAS - COMARCA; LAVRAS-PJ-SECRETARIA 1.333,00 0,00 578,00 0,00 5.918,08 0,00 0,00 0,00 949,08 31/01/2023
11 143000 ADILSON DE OLIVEIRA NASCIMENTO PROCURADOR DE JUSTICA BELO HORIZONTE - COMARCA; GABINETE DE PROCURADOR DE JUSTIÇA - SALA 614 1.333,00 0,00 3.241,68 0,00 11.788,00 0,00 0,00 0,00 600,31 31/01/2023
12 380100 ADILSON GONCALVES DE MELO JUNIOR ANALISTA DO MP ARAXÁ - COMARCA; ARAXA-PJ-05PJ 1.333,00 0,00 578,00 0,00 5.640,04 0,00 0,00 0,00 1.474,08 31/01/2023
13 148800 ADILSON JANUARIO OFICIAL DO MP BELO HORIZONTE - COMARCA; BH-22PJ PES COM DEF E IDOSOS-SECRETARIA 1.333,00 0,00 578,00 0,00 5.673,95 0,00 0,00 0,00 2.343,85 31/01/2023
14 322601 ADMILSON SILVEIRA ANALISTA DO MP SAO JOAO DO PARAISO COMARCA; SAO JOAO DO PARAISO-PJ-UNPJ 1.333,00 885,30 578,00 0,00 5.812,40 0,00 0,00 0,00 1.218,30 31/01/2023
15 1533500 ADRIA MARCELLY SILVA BRITO ESTAGIARIO RIO PARDO DE MINAS; RIO PARDO DE MINAS-PJ-UNPJ 0,00 0,00 0,00 120,00 0,00 0,00 0,00 0,00 0,00 31/01/2023
16 333700 ADRIANA ABRITTA TEIXEIRA OFICIAL DO MP BELO HORIZONTE - COMARCA; DIRET DE PESSOAL DO MINISTERIO PUBLICO - DPMP 1.333,00 0,00 578,00 0,00 5.724,33 0,00 0,00 0,00 1.282,25 31/01/2023
17 1359300 ADRIANA ANTUNES DOS REIS ESTAGIARIO CONTAGEM; CONTAGEM-PJ-07PJ 0,00 0,00 0,00 72,00 0,00 0,00 0,00 0,00 0,00 31/01/2023
18 468500 ADRIANA APARECIDA FIRMINO ANALISTA DO MP CARATINGA - COMARCA; CARATINGA-PJ-04PJ 1.333,00 0,00 578,00 0,00 0,00 0,00 0,00 0,00 605,23 31/01/2023
19 326100 ADRIANA AUGUSTA AMARAL BELO OFICIAL DO MP BARBACENA - COMARCA; BARBACENA-PJ-08PJ 1.333,00 0,00 578,00 0,00 5.724,33 0,00 0,00 0,00 1.243,13 31/01/2023
20 363000 ADRIANA CARVALHO PEREIRA E SILVA COSTA PROMOTOR 2A ENTRANCIA ALÉM PARAÍBA - COMARCA; ALEM PARAIBA-PJ-02PJ 1.333,00 0,00 2.963,10 0,00 8.534,57 0,00 0,00 0,00 0,00 31/01/2023
21 605700 ADRIANA COSTA LIRA OFICIAL DO MP BELO HORIZONTE - COMARCA; CAO-EDUCACAO 1.333,00 0,00 578,00 0,00 5.693,88 0,00 0,00 0,00 1.022,79 31/01/2023
22 541100 ADRIANA CRISTINA DE OLIVEIRA OFICIAL DO MP GUAPÉ - COMARCA; GUAPE-PJ-UNPJ 1.333,00 0,00 578,00 0,00 2.945,65 0,00 0,00 0,00 607,83 31/01/2023
23 254800 ADRIANA DAS GRACAS FERNANDES ANALISTA DO MP UBERABA - COMARCA; UBERABA-PJ-07PJ 1.333,00 0,00 578,00 0,00 5.596,29 0,00 0,00 0,00 2.382,58 31/01/2023
24 217400 ADRIANA DE CARVALHO CATAO BRAGA ASSESSOR ADMINISTRATIVO III BELO HORIZONTE - COMARCA; DIV FISCAL ADM CONT TERCEIRIZACAO 1.333,00 0,00 578,00 0,00 5.423,17 0,00 0,00 0,00 1.039,31 31/01/2023
25 434600 ADRIANA FERREIRA DA SILVA ANALISTA DO MP BELO HORIZONTE - COMARCA; BH-14PJ DEFESA CONSUMIDOR-GAB 112PJ 1.333,00 0,00 578,00 0,00 0,00 0,00 0,00 0,00 876,73 31/01/2023
26 499800 ADRIANA FERREIRA TIAGO OFICIAL DO MP SALINAS - COMARCA; SALINAS-PJ-02PJ 1.333,00 0,00 578,00 0,00 0,00 0,00 0,00 0,00 483,80 31/01/2023
27 543400 ADRIANA GUIMARAES NUNES DE PAULA ANALISTA DO MP PATROCÍNIO - COMARCA; PATROCINIO-PJ-01PJ 1.333,00 0,00 578,00 0,00 0,00 0,00 0,00 0,00 516,60 31/01/2023
28 471500 ADRIANA HORTA DE CARVALHO RODRIGUES DE SOUSA ANALISTA DO MP BELO HORIZONTE - COMARCA; GRUPO ESP PROM JUST DEF PROB ADM PAT PUB 1.333,00 0,00 578,00 0,00 0,00 0,00 0,00 0,00 580,01 31/01/2023
29 314300 ADRIANA JULIA DE SOUZA PROMOT.ENTRANC.ESPECIAL BELO HORIZONTE - COMARCA; BH-26 CRIME CONT CRIAN ADOL-GAB 169PJ 1.333,00 0,00 3.319,73 0,00 15.721,58 0,00 0,00 0,00 514,69 31/01/2023
30 1471700 ADRIANA MARTINS DE ALBUQUERQUE ESTAGIARIO BELO HORIZONTE; GABINETE DE PROCURADOR DE JUSTIÇA - SALA 506 0,00 0,00 0,00 96,00 0,00 0,00 0,00 0,00 0,00 31/01/2023
31 86400 ADRIANA MOREIRA CALDEIRA BRANT OFICIAL DO MP BELO HORIZONTE - COMARCA; BH-21PJ TUTELA FUNDACOES-SECRETARIA 1.333,00 0,00 578,00 0,00 0,00 0,00 0,00 0,00 1.644,88 31/01/2023
32 480700 ADRIANA MOREIRA DE AVELLAR CEZILIO OFICIAL DO MP BELO HORIZONTE - COMARCA; BH-12PJ JUIZO CRIMINAL-SECRETARIA 1.333,00 0,00 578,00 0,00 3.213,44 0,00 0,00 0,00 690,27 31/01/2023
33 326000 ADRIANA PEREIRA CARNEIRO RESENDE OFICIAL DO MP BELO HORIZONTE - COMARCA; BH-25PJ DEFESA DA EDUCACAO-SECRETARIA 1.333,00 0,00 578,00 0,00 5.724,33 0,00 0,00 0,00 1.278,41 31/01/2023
34 502200 ADRIANA PETRUCCI DAVINA OFICIAL DO MP PATROCÍNIO - COMARCA; PATROCINIO-PJ-01PJ 1.333,00 885,30 578,00 0,00 5.852,41 0,00 0,00 0,00 1.092,98 31/01/2023
35 685200 ADRIANA PRATES DOS SANTOS PROMOTOR SUBSTITUTO CARMO DO PARANAÍBA - COMARCA; CARMO DO PARANAIBA-PJ-02PJ 1.333,00 0,00 957,12 0,00 5.067,40 0,00 0,00 0,00 464,51 31/01/2023
36 201900 ADRIANA REIS PIMENTA OFICIAL DO MP TEÓFILO OTONI - COMARCA; TEOFILO OTONI-PJ-03PJ 1.333,00 0,00 578,00 0,00 0,00 0,00 0,00 0,00 1.279,98 31/01/2023
37 278700 ADRIANA RODRIGUES PINTO COELHO AMARAL ANALISTA DO MP BELO HORIZONTE - COMARCA; CGMP-ASSESSORIA JURIDICA 1.333,00 0,00 578,00 0,00 5.349,39 0,00 0,00 0,00 1.726,92 31/01/2023
38 468000 ADRIANA SANTOS DE SANTANA MOREIRA ANALISTA DO MP GOVERNADOR VALADARES - COMARCA; GAECO REGIONAL DE GOVERNADOR VALADARES 1.333,00 0,00 578,00 0,00 5.548,20 0,00 0,00 0,00 1.257,76 31/01/2023
39 290900 ADRIANA TORRES BECK PROMOT.ENTRANC.ESPECIAL BELO HORIZONTE - COMARCA; BH-23PJ INFRACIONAL-GAB COOPJ 1.333,00 0,00 3.368,91 0,00 5.614,85 0,00 0,00 0,00 514,69 31/01/2023
40 194700 ADRIANA TSUKIDE OFICIAL DO MP UBERABA - COMARCA; COORD REG BACIAS PARANAIBA BAIXO RIO GRANDE 1.333,00 0,00 578,00 0,00 0,00 0,00 0,00 0,00 1.134,87 31/01/2023
41 291500 ADRIANA VITAL DO VALLE PROMOT.ENTRANC.ESPECIAL SÃO JOÃO DEL REI - COMARCA; SAO JOAO DEL REI-PJ-06PJ 1.333,00 0,00 3.368,91 0,00 16.844,55 0,00 0,00 0,00 514,69 31/01/2023
42 212900 ADRIANO ARANTES BOZOLA PROMOT.ENTRANC.ESPECIAL UBERLÂNDIA - COMARCA; UBERLANDIA-PJ-21PJ 1.333,00 0,00 3.368,91 0,00 17.816,87 0,00 0,00 0,00 544,40 31/01/2023
43 174200 ADRIANO BOTELHO ESTRELA PROMOT.ENTRANC.ESPECIAL BELO HORIZONTE - COMARCA; BH-12PJ JUIZO CRIMINAL-GAB 095PJ 1.333,00 0,00 1.899,42 0,00 12.526,14 0,00 0,00 0,00 574,11 31/01/2023
44 465500 ADRIANO CASSIANO MATOS ANALISTA DO MP ARAXÁ - COMARCA; ARAXA-PJ-02PJ 1.333,00 0,00 578,00 0,00 5.812,40 0,00 0,00 0,00 1.114,75 31/01/2023
45 500500 ADRIANO DE ALMEIDA SILVA OFICIAL DO MP UBERABA - COMARCA; UBERABA-PJ-12PJ 1.333,00 885,30 578,00 0,00 5.852,41 0,00 0,00 0,00 1.096,70 31/01/2023
46 187200 ADRIANO DE FREITAS MARON OFICIAL DO MP PONTE NOVA - COMARCA; PONTE NOVA-PJ-03PJ 1.333,00 0,00 578,00 0,00 5.950,63 0,00 0,00 0,00 2.002,61 31/01/2023
47 344000 ADRIANO DUTRA GOMES DE FARIA PROMOT.ENTRANC.ESPECIAL VESPASIANO - COMARCA; VESPASIANO-PJ-04PJ 1.333,00 0,00 3.368,91 0,00 10.106,73 0,00 0,00 0,00 514,69 31/01/2023
48 477900 ADRIANO FERREIRA DE ALMEIDA OFICIAL DO MP TAIOBEIRAS - COMARCA; TAIOBEIRAS-PJ-UNPJ 1.333,00 0,00 578,00 0,00 5.852,41 0,00 0,00 0,00 1.111,11 31/01/2023
49 1301100 ADRIANO GUILHERME SILVA ESTAGIARIO POMPEU; POMPEU-PJ-UNPJ 0,00 0,00 0,00 96,00 0,00 0,00 0,00 0,00 0,00 31/01/2023
50 269101 ADRIANO PEREIRA SILVA ANALISTA DO MP UBERABA - COMARCA; UBERABA-PJ-02PJ 1.333,00 0,00 578,00 0,00 5.812,40 0,00 0,00 0,00 1.227,17 31/01/2023
51 414200 ADRIANO RODRIGUES FERNANDES ANALISTA DO MP CARANDAÍ - COMARCA; CARANDAI-PJ-UNPJ 1.333,00 0,00 578,00 0,00 5.812,40 0,00 0,00 0,00 1.121,87 31/01/2023
52 715300 ADRIANO SCHER DORNELAS 2O. SARGENTO BELO HORIZONTE - COMARCA; NUCLEO DE COMBATE AOS CRIMES AMBIENTAIS 1.333,00 0,00 0,00 0,00 0,00 0,00 0,00 0,00 0,00 31/01/2023
53 536700 ADRIELLE COSTA MARIA MOURAO FIGUEIREDO OFICIAL DO MP SERRO - COMARCA; SERRO-PJ-SECRETARIA 1.333,00 885,30 578,00 0,00 0,00 0,00 0,00 0,00 335,66 31/01/2023
54 1500100 ADRIELLY BIANQUY ALVES DA SILVA ESTAGIARIO LAJINHA; LAJINHA-PJ-UNPJ 0,00 0,00 0,00 120,00 0,00 0,00 0,00 0,00 0,00 31/01/2023
55 514300 ADRIENE DAMASCENO BRAGA ANALISTA DO MP ALFENAS - COMARCA; ALFENAS-PJ-03PJ 1.333,00 0,00 578,00 0,00 5.812,40 0,00 0,00 0,00 1.175,42 31/01/2023
56 254600 ADRIENE DOMINGUES COSTA ANALISTA DO MP BELO HORIZONTE - COMARCA; SUPER DE GESTAO DE PESSOAS-LOTACAO TEMPORARIA 0,00 0,00 0,00 0,00 0,00 0,00 0,00 0,00 1.299,08 31/01/2023
57 252001 ADRIENE GOMES BARRETO ANALISTA DO MP BELO HORIZONTE - COMARCA; BH-19PJ SAUDE-SECRETARIA 047PJ 1.333,00 0,00 578,00 0,00 5.008,71 0,00 0,00 0,00 1.650,08 31/01/2023
58 84100 ADROALDO JUNQUEIRA AYRES NETO PROMOT.ENTRANC.ESPECIAL UBERABA - COMARCA; UBERABA-PJ-12PJ 1.333,00 0,00 3.368,91 0,00 9.072,24 0,00 0,00 0,00 693,02 31/01/2023
59 714800 ADSON GUSTAVO DE OLIVEIRA ASSESSOR PROCURADOR JUSTICA BELO HORIZONTE - COMARCA; GABINETE DE PROCURADOR DE JUSTIÇA - SALA 803 1.333,00 0,00 578,00 0,00 0,00 0,00 0,00 0,00 84,52 31/01/2023
60 724600 AECIO BRAS SILVA JUNIOR ASSESSOR PROMOTOR JUSTICA BAMBUÍ - COMARCA; BAMBUI-PJ-UNPJ 1.333,00 0,00 578,00 0,00 0,00 0,00 0,00 0,00 0,00 31/01/2023
61 162700 AECIO RABELO PROMOTOR 2A ENTRANCIA LAVRAS - COMARCA; LAVRAS-PJ-04PJ 1.333,00 0,00 3.165,71 0,00 16.926,03 0,00 0,00 0,00 517,18 31/01/2023
62 97600 AFONSO HENRIQUE DE MIRANDA TEIXEIRA PROCURADOR DE JUSTICA BELO HORIZONTE - COMARCA; CAO-CONFLITOS AGRARIOS 1.333,00 0,00 2.868,36 0,00 15.120,40 0,00 0,00 0,00 693,02 31/01/2023
63 1207200 AFRA YASMIM DA SILVA ESTAGIARIO BELO HORIZONTE; DIRET DE FORMACAO, APERFEIC. E POS-GRADUACAO 0,00 0,00 0,00 0,00 0,00 0,00 0,00 0,00 61,67 31/01/2023
64 1517000 AFRANIO HENRIQUE PIMENTA BITTENCOURT ESTAGIARIO BOCAIUVA; BOCAIUVA-PJ-03PJ 0,00 0,00 0,00 108,00 0,00 0,00 0,00 0,00 0,00 31/01/2023
65 610000 AGENOR ANDRADE LEAO PROMOT.ENTRANC.ESPECIAL TEÓFILO OTONI - COMARCA; TEOFILO OTONI-PJ-05PJ 1.333,00 0,00 3.047,78 0,00 16.844,55 0,00 0,00 0,00 514,69 31/01/2023
66 302500 AGENOR JOSE DA SILVA JUNIOR ANALISTA DO MP JUIZ DE FORA - COMARCA; JUIZ DE FORA-PJ-07PJ 1.333,00 0,00 578,00 0,00 5.145,66 0,00 0,00 0,00 1.832,62 31/01/2023
67 344100 AGNALDO LUCAS COTRIM PROMOT.ENTRANC.ESPECIAL POUSO ALEGRE - COMARCA; POUSO ALEGRE-PJ-02PJ 1.333,00 0,00 2.865,17 0,00 16.844,55 0,00 0,00 0,00 514,69 31/01/2023
68 67400 AIDA FERNANDES LISBOA MARINHO PROCURADOR DE JUSTICA BELO HORIZONTE - COMARCA; GABINETE DE PROCURADOR DE JUSTIÇA - SALA 604 1.333,00 0,00 3.546,22 0,00 12.096,32 0,00 0,00 0,00 0,00 31/01/2023
69 357500 AILSON WAGNER DE ALENCAR SILVA OFICIAL DO MP BELO HORIZONTE - COMARCA; BH-12PJ JUIZO CRIMINAL-SECRETARIA 1.333,00 0,00 578,00 0,00 5.977,08 0,00 0,00 0,00 1.614,33 31/01/2023
70 366400 AILTON ALEXSSANDRO ALVES OFICIAL DO MP PARÁ DE MINAS - COMARCA; PARA DE MINAS-PJ-05PJ 1.333,00 0,00 578,00 0,00 0,00 0,00 0,00 0,00 762,01 31/01/2023
71 318900 AILTON DE CASTRO RIBEIRO JUNIOR OFICIAL DO MP CANDEIAS - COMARCA; CANDEIAS-PJ-UNPJ 1.333,00 0,00 578,00 0,00 5.724,33 0,00 0,00 0,00 1.224,95 31/01/2023
72 533100 AIMARA DE BRITTO DIAS LEITE CABALEIRO PROMOTOR SUBSTITUTO SANTA LUZIA - COMARCA; SANTA LUZIA-PJ-02PJ 1.333,00 0,00 3.040,44 0,00 15.202,21 0,00 0,00 0,00 464,51 31/01/2023
73 439100 AIRTON BATISTA COSTA NETO NEPOMUCENO PROMOTOR 2A ENTRANCIA ITUIUTABA - COMARCA; ITUIUTABA-PJ-04PJ 1.333,00 0,00 3.200,47 0,00 16.002,33 0,00 0,00 0,00 488,96 31/01/2023
74 341600 ALAM BAENA BERTOLLA DOS SANTOS PROMOTOR 2A ENTRANCIA ARAGUARI - COMARCA; ARAGUARI-PJ-05PJ 1.333,00 0,00 3.200,47 0,00 16.002,33 0,00 0,00 0,00 488,96 31/01/2023
75 175700 ALAN CARRIJO RAMOS PROMOTOR 1A ENTRANCIA PRATÁPOLIS - COMARCA; PRATAPOLIS-PJ-UNPJ 1.333,00 0,00 3.040,44 0,00 16.079,73 0,00 0,00 0,00 491,33 31/01/2023
76 464400 ALAN MONTEIRO GASPAR ANALISTA DO MP SETE LAGOAS - COMARCA; SETE LAGOAS-PJ-08PJ 1.333,00 0,00 578,00 0,00 5.812,40 0,00 0,00 0,00 1.227,30 31/01/2023
77 492000 ALANA DE CASTRO FREITAS OFICIAL DO MP BELO HORIZONTE - COMARCA; SECRETARIA DO PROCON-MG 1.333,00 0,00 578,00 0,00 0,00 0,00 0,00 0,00 371,98 31/01/2023
78 306700 ALANA MARCIA DE OLIVEIRA OFICIAL DO MP BELO HORIZONTE - COMARCA; DIRETORIA DE ADMINISTRACAO FINANCEIRA 1.333,00 0,00 578,00 0,00 5.724,33 0,00 0,00 0,00 1.314,35 31/01/2023
79 1523000 ALANA REZENDE BELTRAME ESTAGIARIO DIVINOPOLIS; DIVINOPOLIS-PJ-05PJ 0,00 0,00 0,00 120,00 0,00 0,00 0,00 0,00 0,00 31/01/2023
80 324500 ALANMAR COUTINHO COSTA OFICIAL DO MP LEOPOLDINA - COMARCA; LEOPOLDINA-PJ-02PJ 1.333,00 0,00 578,00 0,00 5.724,33 0,00 0,00 0,00 1.283,08 31/01/2023
81 170800 ALBERTO BOGLIOLO SIRIHAL PROMOT.ENTRANC.ESPECIAL BELO HORIZONTE - COMARCA; BH-05PJ JUIZO SUCESSÕES-GAB CARGO 045PJ 1.333,00 0,00 3.368,91 0,00 12.526,14 0,00 0,00 0,00 574,11 31/01/2023
82 407300 ALBERTO LUIZ SOARES DE OLIVEIRA ANALISTA DO MP BELO HORIZONTE - COMARCA; DIRETORIA DE PROJETOS DE EDIFICACOES 1.333,00 0,00 578,00 0,00 0,00 0,00 0,00 0,00 794,12 31/01/2023
83 118200 ALBERTO PEREIRA DA COSTA OFICIAL DO MP DORES DO INDAIÁ - COMARCA; DORES DO INDAIA-PJ-UNPJ 1.333,00 0,00 578,00 0,00 5.673,96 0,00 0,00 0,00 2.134,77 31/01/2023
84 72000 ALBINO VITORIO BERNARDO PROCURADOR DE JUSTICA BELO HORIZONTE - COMARCA; GABINETE DE PROCURADOR DE JUSTIÇA - SALA 710 1.333,00 0,00 1.519,54 0,00 22.680,60 0,00 0,00 0,00 693,02 31/01/2023
85 660700 ALCIDEZIO JOSE DE OLIVEIRA BISPO JUNIOR PROMOT.ENTRANC.ESPECIAL CARATINGA - COMARCA; CARATINGA-PJ-01PJ 1.333,00 0,00 3.368,91 0,00 16.844,55 0,00 0,00 0,00 514,69 31/01/2023
86 282400 ALCILENE MARISE DE ARAUJO ANALISTA DO MP BELO HORIZONTE - COMARCA; BH-23PJ INF-FISC MED SOC FEC 1.333,00 0,00 578,00 0,00 0,00 0,00 0,00 0,00 1.302,57 31/01/2023
87 112600 ALCIONE DA MOTA JARDIM OFICIAL DO MP BELO HORIZONTE - COMARCA; CAO-CRIANCAS E ADOLESCENTES-SECRETARIA 1.333,00 0,00 578,00 0,00 0,00 0,00 0,00 0,00 1.252,36 31/01/2023
88 396400 ALCIONE DE FREITAS E SILVA ANALISTA DO MP BELO HORIZONTE - COMARCA; ASSESS JUR DO CONS SUPERIOR DO MINISTERIO PUB 1.333,00 0,00 578,00 0,00 0,00 0,00 0,00 0,00 1.189,96 31/01/2023
89 657400 ALCIONE MARIA FERREIRA ASSESSOR PROCURADOR JUSTICA BELO HORIZONTE - COMARCA; GABINETE DE PROCURADOR DE JUSTIÇA - SALA 610 1.333,00 885,30 578,00 0,00 0,00 0,00 0,00 0,00 358,86 31/01/2023
90 161600 ALCIONE NERY SOUZA ASSESSOR ADMINISTRATIVO III BELO HORIZONTE - COMARCA; BH-18PJ DIREITOS HUMANOS-SECRETARIA 1.333,00 0,00 578,00 0,00 0,00 0,00 0,00 0,00 584,12 31/01/2023
91 92000 ALCIR ARANTES PROMOT.ENTRANC.ESPECIAL UBERABA - COMARCA; UBERABA-PJ-03PJ 1.333,00 0,00 3.368,91 0,00 10.584,28 0,00 0,00 0,00 693,02 31/01/2023
92 376000 ALDA GOMES LANA OFICIAL DO MP BELO HORIZONTE - COMARCA; BH-18PJ VIOLENCIA DOMESTICA-SECRETARIA 1.333,00 0,00 578,00 0,00 0,00 0,00 0,00 0,00 613,16 31/01/2023
93 148000 ALDA MARTINS SIMOES OFICIAL DO MP BELO HORIZONTE - COMARCA; BH-23PJ CIVEL- FISC ENT AB POL 1.333,00 0,00 578,00 0,00 0,00 0,00 0,00 0,00 1.470,97 31/01/2023
94 457700 ALDERICO DE CARVALHO JUNIOR PROMOTOR 2A ENTRANCIA BELO HORIZONTE - COMARCA; PROC JUST ATUACAO TRIBUNAIS SUPERIORES-GAB002 1.333,00 0,00 3.200,47 0,00 16.002,33 0,00 0,00 0,00 488,96 31/01/2023
95 318400 ALDO CREPALDI JUNIOR OFICIAL DO MP BELO HORIZONTE - COMARCA; DIVISAO DE MATERIAIS 1.333,00 0,00 578,00 0,00 5.724,33 0,00 0,00 0,00 1.304,40 31/01/2023
96 1434100 ALECSANDER CARDOSO ESTAGIARIO ANDRADAS; ANDRADAS-PJ-02PJ 0,00 0,00 0,00 108,00 0,00 0,00 0,00 0,00 0,00 31/01/2023
97 604500 ALENIZE APARECIDA RODRIGUES HENRIQUE OFICIAL DO MP RIO NOVO - COMARCA; RIO NOVO-PJ-UNPJ 1.333,00 0,00 578,00 0,00 5.891,30 0,00 0,00 0,00 904,08 31/01/2023
98 197900 ALESSA DE SOUSA E SILVA OFICIAL DO MP OLIVEIRA - COMARCA; OLIVEIRA-PJ-02PJ 1.333,00 0,00 578,00 0,00 0,00 198,18 0,00 0,00 1.488,92 31/01/2023
99 428500 ALESSANDRA ALVES DINIZ OFICIAL DO MP BELO HORIZONTE - COMARCA; CENTRAL DE APOIO TECNICO-SECRETARIA 1.333,00 0,00 578,00 0,00 0,00 0,00 0,00 0,00 959,92 31/01/2023
100 1464000 ALESSANDRA BORGES GONCALVES ESTAGIARIO ITUIUTABA; ITUIUTABA-PJ-06PJ 0,00 0,00 0,00 120,00 0,00 0,00 0,00 0,00 0,00 31/01/2023
101 286801 ALESSANDRA BOTELHO JUNQUEIRA DE MENEZES ANALISTA DO MP PASSOS - COMARCA; PASSOS-PJ-05PJ 1.333,00 885,30 578,00 0,00 5.432,94 0,00 0,00 0,00 1.783,42 31/01/2023
102 307000 ALESSANDRA CRISTINA SANTOS MENDES ANALISTA DO MP BELO HORIZONTE - COMARCA; BH-18PJ VIOLENCIA DOMESTICA-SECRETARIA 1.333,00 0,00 578,00 0,00 5.713,46 0,00 0,00 0,00 1.562,65 31/01/2023
103 264400 ALESSANDRA DE SOUZA SANTOS ANALISTA DO MP BELO HORIZONTE - COMARCA; SUPERINTENDENCIA DOS ORGAOS COLEGIADOS 1.333,00 0,00 578,00 0,00 0,00 0,00 0,00 0,00 1.317,49 31/01/2023
104 441500 ALESSANDRA DRUMMOND DE FIGUEIREDO ROSSI ANALISTA DO MP BELO HORIZONTE - COMARCA; DIRETORIA DE PROJETOS DE EDIFICACOES 1.333,00 0,00 578,00 0,00 0,00 0,00 0,00 0,00 576,43 31/01/2023
105 717700 ALESSANDRA HORTA DIAS DE OLIVEIRA PROMOTOR SUBSTITUTO JACINTO - COMARCA; JACINTO-PJ-UNPJ 1.333,00 0,00 1.606,05 0,00 0,00 0,00 0,00 0,00 0,00 31/01/2023
106 1309800 ALESSANDRA KELLY DA SILVA ROCHA ESTAGIARIO PEDRO LEOPOLDO; PEDRO LEOPOLDO-PJ-02PJ 0,00 0,00 0,00 120,00 0,00 0,00 0,00 0,00 0,00 31/01/2023
107 524000 ALESSANDRA LUCIOLI DE BARROS GUERRA ANALISTA DO MP BELO HORIZONTE - COMARCA; BH-19PJ SAUDE--SECRETARIA 1.333,00 0,00 578,00 0,00 0,00 0,00 0,00 0,00 621,60 31/01/2023
108 479900 ALESSANDRA MARA ANDRADE DE FARIA OFICIAL DO MP UBERABA - COMARCA; UBERABA-PJ-09PJ 1.333,00 0,00 578,00 0,00 5.852,41 0,00 0,00 0,00 1.083,36 31/01/2023
109 226700 ALESSANDRA MARA VASCONCELOS REZENDE OFICIAL DO MP CONSELHEIRO LAFAIETE - COMARCA; CONSELHEIRO LAFAIETE-PJ-07PJ 1.333,00 0,00 578,00 0,00 5.261,61 0,00 0,00 0,00 1.308,44 31/01/2023
110 112100 ALESSANDRA MARCIA FERREIRA OFICIAL DO MP BELO HORIZONTE - COMARCA; BELO HORIZONTE- SECRETARIA DAS PROMOTORIAS 1.333,00 0,00 578,00 0,00 0,00 0,00 0,00 0,00 934,81 31/01/2023
111 196500 ALESSANDRA MARIA RIBEIRO LUCIANO OFICIAL DO MP RIO PARANAÍBA - COMARCA; RIO PARANAIBA-PJ-UNPJ 1.333,00 0,00 578,00 0,00 0,00 0,00 0,00 0,00 1.305,46 31/01/2023
112 1257300 ALESSANDRA MIRANDA REZENDE ESTAGIARIO BELO HORIZONTE; 12ª PJ JUÍZO CRIMINAL - COORDENAÇÃO 0,00 0,00 0,00 12,00 0,00 0,00 0,00 0,00 0,00 31/01/2023
113 290500 ALESSANDRA PINTO CASSIANO PROMOTOR 2A ENTRANCIA BOA ESPERANÇA - COMARCA; BOA ESPERANCA-PJ-02PJ 1.333,00 0,00 1.570,19 0,00 5.334,11 0,00 0,00 0,00 488,96 31/01/2023
114 651700 ALESSANDRA PROFIRIO SOUZA OFICIAL DO MP NOVA ERA - COMARCA; NOVA ERA-PJ-UNPJ 1.333,00 0,00 578,00 0,00 0,00 0,00 0,00 0,00 281,06 31/01/2023
115 384900 ALESSANDRA RODRIGUES ANALISTA DO MP VISCONDE DO RIO BRANCO - COMARCA; VISCONDE DO RIO BRANCO-PJ-03PJ 1.333,00 885,30 578,00 0,00 5.609,76 0,00 0,00 0,00 1.544,20 31/01/2023
116 390000 ALESSANDRA SPADANO MASSARA VASCONCELOS OFICIAL DO MP BETIM - COMARCA; BETIM-PJ-10PJ 1.333,00 0,00 578,00 0,00 0,00 0,00 0,00 0,00 545,56 31/01/2023
117 1373300 ALESSANDRA VIEIRA RODRIGUES ESTAGIARIO MONTES CLAROS; MONTES CLAROS-PJ-07PJ 0,00 0,00 0,00 120,00 0,00 0,00 0,00 0,00 0,00 31/01/2023
118 426500 ALESSANDRO CAMPOS DE PAIVA ANALISTA DO MP BELO HORIZONTE - COMARCA; DIR CRIACAO E MIDIAS 1.333,00 0,00 578,00 0,00 0,00 0,00 0,00 0,00 912,70 31/01/2023
119 623400 ALESSANDRO DE OLIVEIRA REZENDE ANALISTA DO MP BELO HORIZONTE - COMARCA; DIRET DE INFORMACAO E CONHECIMENTO-DINC/CEAF 1.333,00 0,00 578,00 0,00 5.451,68 0,00 0,00 0,00 1.062,88 31/01/2023
120 174100 ALESSANDRO GARCIA SILVA PROMOT.ENTRANC.ESPECIAL DIVINÓPOLIS - COMARCA; DIVINOPOLIS-PJ-12PJ 1.333,00 0,00 2.836,47 0,00 11.159,75 0,00 0,00 0,00 568,32 31/01/2023
121 308201 ALESSANDRO RAMOS MACHADO PROMOTOR 2A ENTRANCIA CAMBUÍ - COMARCA; CAMBUI-PJ-02PJ 1.333,00 0,00 3.102,25 0,00 16.002,33 0,00 0,00 0,00 488,96 31/01/2023
122 665700 ALESSANDRO ROGERIO DIAS DE OLIVEIRA PROMOT.ENTRANC.ESPECIAL PATOS DE MINAS - COMARCA; PATOS DE MINAS-PJ-07PJ 1.333,00 0,00 1.671,50 0,00 16.844,55 0,00 0,00 0,00 514,69 31/01/2023
123 420600 ALESSANDRO SILVA OFICIAL DO MP VISCONDE DO RIO BRANCO - COMARCA; VISCONDE DO RIO BRANCO-PJ-02PJ 1.333,00 0,00 578,00 0,00 5.782,08 0,00 0,00 0,00 1.190,92 31/01/2023
124 171100 ALESSIA ALVES DE ALVARENGA SANTA BARBARA PROMOT.ENTRANC.ESPECIAL CONSELHEIRO LAFAIETE - COMARCA; CONSELHEIRO LAFAIETE-PJ-06PJ 1.333,00 0,00 2.279,31 0,00 17.445,83 0,00 0,00 0,00 571,14 31/01/2023
125 57800 ALESSIO GUIMARAES PROCURADOR DE JUSTICA BELO HORIZONTE - COMARCA; GABINETE DE PROCURADOR DE JUSTIÇA - SALA 306 1.333,00 0,00 3.115,43 0,00 0,00 0,00 0,00 0,00 0,00 31/01/2023
126 375301 ALETHEIA PATRICIA ASSIS MORAIS MOREIRA ANALISTA DO MP ITABIRA - COMARCA; ITABIRA-PJ-02PJ 1.333,00 885,30 578,00 0,00 5.812,40 0,00 0,00 0,00 1.148,90 31/01/2023
127 1337000 ALEX ALVES DA SILVA ESTAGIARIO ABRE CAMPO; ABRE CAMPO-PJ-01PJ 0,00 0,00 0,00 120,00 0,00 0,00 0,00 0,00 0,00 31/01/2023
128 382300 ALEX CARVALHO LIMA ANALISTA DO MP UBERLÂNDIA - COMARCA; UBERLANDIA-PJ-14PJ 1.333,00 885,30 578,00 0,00 5.609,76 0,00 0,00 0,00 1.475,67 31/01/2023
129 195201 ALEX DE CASTRO PEREIRA ANALISTA DO MP UBERABA - COMARCA; UBERABA-PJ-09PJ 1.333,00 0,00 578,00 0,00 5.760,89 0,00 0,00 0,00 2.013,54 31/01/2023
130 358900 ALEX DE PAULA LANZA ASSESSOR ADMINISTRATIVO IV BELO HORIZONTE - COMARCA; DIR CONTEUDO JORNALISTICO 1.333,00 885,30 578,00 0,00 0,00 0,00 0,00 0,00 539,99 31/01/2023
131 171400 ALEX FERNANDES SANTIAGO PROMOT.ENTRANC.ESPECIAL JUIZ DE FORA - COMARCA; JUIZ DE FORA-PJ-08PJ 1.333,00 0,00 2.684,52 0,00 12.461,31 0,00 0,00 0,00 0,00 31/01/2023
132 685300 ALEX RAFAEL BITTENCOURT PROMOTOR SUBSTITUTO LEOPOLDINA - COMARCA; LEOPOLDINA-PJ-04PJ 1.333,00 0,00 886,40 0,00 15.202,21 0,00 0,00 0,00 464,51 31/01/2023
133 178400 ALEX RODRIGO SALDANHA GUIMARAES OFICIAL DO MP BELO HORIZONTE - COMARCA; DIRETORIA DE SISTEMAS DE INFORMACAO 1.333,00 0,00 578,00 0,00 0,00 0,00 0,00 0,00 414,38 31/01/2023
134 314100 ALEX SOARES NACIF PROMOT.ENTRANC.ESPECIAL CONTAGEM - COMARCA; CONTAGEM-PJ-15PJ 1.333,00 0,00 3.368,91 0,00 16.844,55 0,00 0,00 0,00 0,00 31/01/2023
135 413500 ALEX VILELA OLIVEIRA ANALISTA DO MP GOVERNADOR VALADARES - COMARCA; COORD REG PJ DEF EDU DIR CRIANCA ADOL RIODOCE 1.333,00 0,00 578,00 0,00 5.432,94 0,00 0,00 0,00 1.545,71 31/01/2023
136 1274500 ALEXANDER MAXIMILIANO FERREIRA SILVA ESTAGIARIO BELO HORIZONTE; BH-13PJ JUIZO DE TOXICOS-COORD PJ 0,00 0,00 0,00 72,00 0,00 0,00 0,00 0,00 0,00 31/01/2023
137 264300 ALEXANDRA FATIMA SARAIVA SOARES ANALISTA DO MP BELO HORIZONTE - COMARCA; CENTRAL DE APOIO TECN-SETOR DE MEIO AMBIENTE 1.333,00 0,00 578,00 0,00 0,00 0,00 0,00 0,00 1.309,44 31/01/2023
138 488000 ALEXANDRA LARA PAIS DE CARVALHO ANALISTA DO MP SABARÁ - COMARCA; SABARA-PJ-04PJ 1.333,00 0,00 578,00 0,00 5.812,40 0,00 0,00 0,00 1.183,22 31/01/2023
139 1539700 ALEXANDRA REALINA MENDES DE ARAUJO ESTAGIARIO RIBEIRAO DAS NEVES; RIBEIRAO DAS NEVES-PJ-05PJ 0,00 0,00 0,00 120,00 0,00 0,00 0,00 0,00 0,00 31/01/2023
140 256300 ALEXANDRA SANTOS GOMES OFICIAL DO MP BELO HORIZONTE - COMARCA; DIRETORIA GESTAO COMPRAS LICITACOES 1.333,00 0,00 578,00 0,00 0,00 0,00 0,00 0,00 646,45 31/01/2023
141 236300 ALEXANDRE ALVES DE OLIVEIRA PROMOT.ENTRANC.ESPECIAL BELO HORIZONTE - COMARCA; BH-12PJ JUIZO CRIMINAL-GAB 101PJ 1.333,00 0,00 1.164,98 0,00 5.922,75 0,00 0,00 0,00 542,92 31/01/2023
142 403300 ALEXANDRE AUGUSTO RODRIGUES ANALISTA DO MP ÁGUAS FORMOSAS - COMARCA; AGUAS FORMOSAS-PJ-UNPJ 1.333,00 1.770,60 578,00 0,00 0,00 0,00 0,00 0,00 608,51 31/01/2023
143 640900 ALEXANDRE BARBOSA MASCARENHAS ANALISTA DO MP BETIM - COMARCA; BETIM-PJ-02PJ 1.333,00 0,00 578,00 0,00 0,00 0,00 0,00 0,00 371,75 31/01/2023
144 311700 ALEXANDRE BARCELOS RESENDE OFICIAL DO MP BELO HORIZONTE - COMARCA; BH-13ª PJ JUÍZO DE TÓXICOS-SECRETARIA 1.333,00 885,30 578,00 0,00 5.035,80 0,00 0,00 0,00 1.058,73 31/01/2023
145 293700 ALEXANDRE BRASILEIRO DE QUEIROZ PROMOT.ENTRANC.ESPECIAL BELO HORIZONTE - COMARCA; BH-12PJ JUIZO CRIMINAL-GAB 092PJ 1.333,00 0,00 3.368,91 0,00 16.844,55 0,00 0,00 0,00 514,69 31/01/2023
146 285600 ALEXANDRE CAMPOS DE OLIVEIRA OFICIAL DO MP UBERABA - COMARCA; COORD REG BACIAS PARANAIBA BAIXO RIO GRANDE 1.333,00 0,00 578,00 0,00 5.724,33 0,00 0,00 0,00 1.280,65 31/01/2023
147 509200 ALEXANDRE CAPUANO DE REZENDE ANALISTA DO MP BELO HORIZONTE - COMARCA; BH-07PJ 03 TRIBUNAL DO JURI-GAB 061PJ 1.333,00 0,00 578,00 0,00 0,00 0,00 0,00 0,00 578,36 31/01/2023
148 229400 ALEXANDRE CARLOS BOTREL SUPERINTENDENTE BELO HORIZONTE - COMARCA; SUPERINTENDENCIA DOS ORGAOS COLEGIADOS 1.333,00 0,00 578,00 0,00 5.196,45 0,00 0,00 0,00 1.741,72 31/01/2023
149 411900 ALEXANDRE CARVALHO SANTOS RIBEIRO ANALISTA DO MP OLIVEIRA - COMARCA; OLIVEIRA-PJ-02PJ 1.333,00 885,30 578,00 0,00 5.432,94 0,00 0,00 0,00 1.485,72 31/01/2023
150 641600 ALEXANDRE DA SILVA ASSUNCAO OFICIAL DO MP BELO HORIZONTE - COMARCA; SERVICO MEDICO-DEPTO PERIC MEDICA SAUDE OCUP 1.333,00 0,00 578,00 0,00 518,27 0,00 0,00 0,00 335,75 31/01/2023
151 201200 ALEXANDRE DE ALENCAR CORDEIRO OFICIAL DO MP ÁGUAS FORMOSAS - COMARCA; AGUAS FORMOSAS-PJ-UNPJ 1.333,00 0,00 578,00 0,00 0,00 0,00 0,00 0,00 518,09 31/01/2023
152 288200 ALEXANDRE DE VASCONCELOS COSTA KER ANALISTA DO MP BELO HORIZONTE - COMARCA; BH-03PJ EMPRESARIAL-SECRETARIA 1.333,00 0,00 578,00 0,00 5.145,66 0,00 0,00 0,00 1.834,11 31/01/2023
153 445000 ALEXANDRE DIOGENES OLIVEIRA ANALISTA DO MP SALINAS - COMARCA; SALINAS-PJ-02PJ 1.333,00 885,30 578,00 0,00 5.817,10 0,00 0,00 0,00 1.361,26 31/01/2023
154 665800 ALEXANDRE FIGUEIREDO MORATO PROMOT.ENTRANC.ESPECIAL MANHUAÇU - COMARCA; MANHUACU-PJ-05PJ 1.333,00 0,00 2.003,75 0,00 5.614,85 0,00 0,00 0,00 514,69 31/01/2023
155 1444200 ALEXANDRE FURTADO DE MACEDO CASTRO ESTAGIARIO BELO HORIZONTE; BH-17PJ PATRIMONIO PUBLICO-GAB 120PJ
156 1475100 ALEXANDRE LABOSSIERE DE ALMEIDA MUZZI ESTAGIARIO BELO HORIZONTE; DIVISAO DE MANUTENCAO PREDIAL 0,00 0,00 0,00 120,00 0,00 0,00 0,00 0,00 0,00 31/01/2023
157 463400 ALEXANDRE LEAL WINKELSTROTER ANALISTA DO MP TEÓFILO OTONI - COMARCA; TEOFILO OTONI-PJ-04PJ 1.333,00 0,00 578,00 0,00 5.284,00 0,00 0,00 0,00 1.144,77 31/01/2023
158 96600 ALEXANDRE LIBERO BARONI PROMOT.ENTRANC.ESPECIAL SETE LAGOAS - COMARCA; SETE LAGOAS-PJ-04PJ 1.333,00 0,00 3.368,91 0,00 6.538,56 0,00 0,00 0,00 599,37 31/01/2023
159 615700 ALEXANDRE LUIZ DE CASTRO MACIEL ANALISTA DO MP BELO HORIZONTE - COMARCA; BH-08PJ JUIZADO ESPECIAL-SECRETARIA 1.333,00 0,00 578,00 0,00 0,00 0,00 0,00 0,00 611,99 31/01/2023
160 356900 ALEXANDRE MOISES MENDONCA E ARAUJO OFICIAL DO MP UBERABA - COMARCA; UBERABA-PJ-13PJ 1.333,00 0,00 578,00 0,00 0,00 0,00 0,00 0,00 477,58 31/01/2023
161 232100 ALEXANDRE MOTTA BENEVIDES PROMOT.ENTRANC.ESPECIAL BELO HORIZONTE - COMARCA; BH-12PJ JUIZO CRIMINAL-GAB 094PJ 1.333,00 0,00 2.735,17 0,00 8.768,30 0,00 0,00 0,00 574,11 31/01/2023
162 633300 ALEXANDRE NONATO MARTINS OFICIAL DO MP IGARAPÉ - COMARCA; IGARAPE-PJ-02PJ 1.333,00 0,00 578,00 0,00 5.960,06 0,00 0,00 0,00 877,31 31/01/2023
163 469900 ALEXANDRE PEREIRA GUEDES ANALISTA DO MP CATAGUASES - COMARCA; CATAGUASES-PJ-03PJ 1.333,00 0,00 578,00 0,00 5.812,40 0,00 0,00 0,00 1.226,10 31/01/2023
164 208700 ALEXANDRE RESENDE FRAGA ANALISTA DO MP BELO HORIZONTE - COMARCA; BH-19PJ SAUDE-SECRETARIA 130PJ 1.333,00 0,00 578,00 0,00 0,00 0,00 0,00 0,00 1.392,11 31/01/2023
165 156900 ALEXANDRE REZENDE GRILLO PROMOTOR 2A ENTRANCIA SÃO GONÇALO DO SAPUCAÍ - COMARCA; SAO GONCALO DO SAPUCAI-PJ-02PJ 1.333,00 0,00 3.200,47 0,00 17.757,36 0,00 0,00 0,00 542,59 31/01/2023
166 216401 ALEXANDRE RIBEIRO DE LIMA MAIORINO ANALISTA DO MP UBERABA - COMARCA; UBERABA-PJ-03PJ 1.333,00 0,00 578,00 0,00 5.541,48 0,00 0,00 0,00 1.951,88 31/01/2023
167 475100 ALEXANDRE TEOTONIO COSTA ANALISTA DO MP ARAGUARI - COMARCA; ARAGUARI-PJ-01PJ 1.333,00 0,00 578,00 0,00 5.812,40 0,00 0,00 0,00 1.170,73 31/01/2023
168 339000 ALEXANDRE VITOR CARDOSO OFICIAL DO MP BELO HORIZONTE - COMARCA; BH-23PJ INFRACIONAL-SEC EXP 1.333,00 0,00 578,00 0,00 5.918,08 0,00 0,00 0,00 1.000,75 31/01/2023
169 694000 ALEXANDRO ANTONIO PORTO E SOUZA INVESTIGADOR DE POLICIA 2 BELO HORIZONTE - COMARCA; GAECO - SETOR POLICIAL CIVIL 1.333,00 0,00 0,00 0,00 0,00 0,00 0,00 0,00 0,00 31/01/2023
170 1428500 ALEXIA ESTEFANIE ALVES LEANDRO ESTAGIARIO BELO HORIZONTE; BH-19PJ SAUDE-GAB 130PJ 0,00 0,00 0,00 24,00 0,00 0,00 0,00 0,00 0,00 31/01/2023
171 1311700 ALEXIA VASCONCELOS MOREIRA ESTAGIARIO CONSELHEIRO PENA; CONSELHEIRO PENA-PJ-01PJ 0,00 0,00 0,00 120,00 0,00 0,00 0,00 0,00 0,00 31/01/2023
172 623100 ALEXSANDER BATISTA AGUIAR COORDENADOR II BELO HORIZONTE - COMARCA; DIRETORIA DE SUPORTE E MANUTENCAO 1.333,00 885,30 578,00 0,00 5.640,21 0,00 0,00 0,00 1.350,08 31/01/2023
173 1460300 ALEXSANDER SAMUEL DE SOUZA GUIMARAES ESTAGIARIO BELO HORIZONTE; DIVISAO DE MANUTENCAO PREDIAL 0,00 0,00 0,00 96,00 0,00 0,00 0,00 0,00 0,00 31/01/2023
174 717800 ALEXSANDER SIQUEIRA SILVA PROMOTOR SUBSTITUTO JEQUITINHONHA - COMARCA; JEQUITINHONHA-PJ-UNPJ 1.333,00 0,00 1.671,50 0,00 0,00 0,00 0,00 0,00 0,00 31/01/2023
175 1481100 ALEXSANDRA GONCALVES DA SILVA ESTAGIARIO BELO HORIZONTE; CAO-FUNDACOES 0,00 0,00 0,00 72,00 0,00 0,00 0,00 0,00 0,00 31/01/2023
176 513300 ALFSON MIRANDA BRAGA ANALISTA DO MP BELO HORIZONTE - COMARCA; BH-12PJ JUIZO CRIMINAL-GAB 087PJ 1.333,00 0,00 578,00 0,00 0,00 0,00 0,00 0,00 665,21 31/01/2023
177 157000 ALI MAHMOUD FAYEZ AYOUB PROMOTOR 2A ENTRANCIA GUAXUPÉ - COMARCA; GUAXUPE-PJ-02PJ 1.333,00 0,00 3.200,47 0,00 17.757,36 0,00 0,00 0,00 542,59 31/01/2023
178 1449300 ALICE ANALIA DIAS FARIA ESTAGIARIO BELO HORIZONTE; BH-23PJ CIVEL-SETOR JURIDICO 0,00 0,00 0,00 120,00 0,00 0,00 0,00 0,00 0,00 31/01/2023
179 1524600 ALICE BRAGA MOREIRA DAVI ESTAGIARIO MERCES; MERCES-PJ-UNPJ 0,00 0,00 0,00 120,00 0,00 0,00 0,00 0,00 0,00 31/01/2023
180 1518100 ALICE DE CAMPOS ALVES ESTAGIARIO DIAMANTINA; DIAMANTINA-PJ-02PJ 0,00 0,00 0,00 60,00 0,00 0,00 0,00 0,00 0,00 31/01/2023
181 1369100 ALICE DE FREITAS REZENDE TORRES ESTAGIARIO BELO HORIZONTE; GABINETE DE PROCURADOR DE JUSTIÇA - SALA 814
182 485300 ALICE DE MELLO VILELA PROMOT.ENTRANC.ESPECIAL CONTAGEM - COMARCA; CONTAGEM-PJ-06PJ 1.333,00 0,00 1.013,03 0,00 16.844,55 0,00 0,00 0,00 514,69 31/01/2023
183 1286400 ALICE FARIA TAYACOL ESTAGIARIO ITUIUTABA; ITUIUTABA-PJ-05PJ 0,00 0,00 0,00 120,00 0,00 0,00 0,00 0,00 0,00 31/01/2023
184 1321200 ALICE GOMES AMORIM ESTAGIARIO MONTES CLAROS; MONTES CLAROS-PJ-05PJ 0,00 0,00 0,00 72,00 0,00 0,00 0,00 0,00 0,00 31/01/2023
185 1270700 ALICE LEAO GUERRA ESTAGIARIO JUIZ DE FORA; JUIZ DE FORA-PJ-03PJ 0,00 0,00 0,00 60,00 0,00 0,00 0,00 0,00 0,00 31/01/2023
186 618400 ALICE MAGALHAES MACEDO DE CARVALHO ANALISTA DO MP IPATINGA - COMARCA; IPATINGA-PJ-10PJ 1.333,00 885,30 578,00 0,00 5.905,99 0,00 0,00 0,00 1.166,55 31/01/2023
187 707000 ALICE MARIA RIBEIRO DINIZ ASSESSOR PROMOTOR JUSTICA BELO HORIZONTE - COMARCA; PROC JUST ATUACAO TRIBUNAIS SUPERIORES-GAB004 1.333,00 0,00 578,00 0,00 5.971,91 0,00 0,00 0,00 813,16 31/01/2023
188 471000 ALICE TITONELI MOREIRA ANALISTA DO MP MIRADOURO - COMARCA; MIRADOURO-PJ-UNPJ 1.333,00 885,30 578,00 0,00 0,00 0,00 0,00 0,00 637,14 31/01/2023
189 1544600 ALICIA CAMPOS ARAUJO ESTAGIARIO BELO HORIZONTE; GABINETE DE PROCURADOR DE JUSTIÇA - SALA 409 0,00 0,00 0,00 60,00 0,00 0,00 0,00 0,00 0,00 31/01/2023
190 731600 ALICIA PAULA RODRIGUES DE LIMA ASSESSOR PROMOTOR JUSTICA TIROS - COMARCA; TIROS-PJ-UNPJ 1.333,00 0,00 578,00 0,00 0,00 0,00 0,00 0,00 0,00 31/01/2023
191 725800 ALINE ALBIERI FRANCISCO ASSESSOR PROMOTOR JUSTICA BELO HORIZONTE - COMARCA; CAO-ORDEM ECONOMICA E TRIBUTARIA-ASSESS TECN 1.333,00 0,00 578,00 0,00 0,00 0,00 0,00 0,00 0,00 31/01/2023
192 622400 ALINE BALBINO PORTUGAL LOPES ANALISTA DO MP TRÊS PONTAS - COMARCA; TRES PONTAS-PJ-03PJ 1.333,00 885,30 578,00 0,00 5.905,99 0,00 0,00 0,00 1.123,80 31/01/2023
193 373000 ALINE BOTELHO RESENDE OFICIAL DO MP JUIZ DE FORA - COMARCA; JUIZ DE FORA-PJ-22PJ 1.333,00 0,00 578,00 0,00 0,00 0,00 0,00 0,00 658,65 31/01/2023
194 1436200 ALINE CARVALHO VIEIRA ESTAGIARIO UBERLANDIA; UBERLANDIA-PJ-23PJ 0,00 0,00 0,00 24,00 0,00 0,00 0,00 0,00 0,00 31/01/2023
195 1538700 ALINE CORREA DA SILVA ESTAGIARIO CONTAGEM; CONTAGEM-PJ-18PJ 0,00 0,00 0,00 120,00 0,00 0,00 0,00 0,00 0,00 31/01/2023
196 699800 ALINE CRISTINA DE OLIVEIRA AMARAL BARBOSA ASSESSOR PROCURADOR JUSTICA BELO HORIZONTE - COMARCA; GABINETE DE PROCURADOR DE JUSTIÇA - SALA 904 1.333,00 0,00 578,00 0,00 0,00 0,00 0,00 0,00 309,76 31/01/2023
197 407700 ALINE CRISTINA RODRIGUES PEREIRA COORDENADOR II BELO HORIZONTE - COMARCA; DIRETORIA DE PROJETOS DE EDIFICACOES 1.333,00 0,00 578,00 0,00 0,00 0,00 0,00 0,00 925,67 31/01/2023
198 193100 ALINE CRISTINA SENA OLIVEIRA OFICIAL DO MP UBERLÂNDIA - COMARCA; UBERLANDIA-PJ-03PJ 1.333,00 885,30 578,00 0,00 5.127,46 0,00 0,00 0,00 1.711,54 31/01/2023
199 554200 ALINE CRISTINA SILVA SOUZA OFICIAL DO MP TIROS - COMARCA; TIROS-PJ-UNPJ 1.333,00 0,00 578,00 0,00 0,00 0,00 0,00 0,00 368,41 31/01/2023
200 505500 ALINE DA CUNHA MARREIROS OLIVEIRA ANALISTA DO MP EUGENÓPOLIS - COMARCA; EUGENOPOLIS-PJ-UNPJ 1.333,00 1.770,60 578,00 0,00 0,00 0,00 0,00 0,00 566,34 31/01/2023
201 433500 ALINE DE MELO QUEIROZ OFICIAL DO MP BELO HORIZONTE - COMARCA; ASSESSORIA JURIDICA DO PROCON-MG 1.333,00 885,30 578,00 0,00 5.610,66 0,00 0,00 0,00 1.189,76 31/01/2023
202 691100 ALINE DE MELO SOUZA ASSESSOR PROCURADOR JUSTICA BELO HORIZONTE - COMARCA; GABINETE DE PROCURADOR DE JUSTIÇA - SALA 401 1.333,00 0,00 578,00 0,00 0,00 0,00 0,00 0,00 313,14 31/01/2023
203 542700 ALINE DE SOUSA ALBINO ANALISTA DO MP CONTAGEM - COMARCA; CONTAGEM-PJ-09PJ 1.333,00 0,00 578,00 0,00 5.812,40 0,00 0,00 0,00 1.141,64 31/01/2023
204 330000 ALINE DIORIO MAYRINK OFICIAL DO MP BELO HORIZONTE - COMARCA; NUCLEO DE ACORDOS DE NAO PERSECUCAO PENAL BH 1.333,00 0,00 578,00 0,00 5.573,66 0,00 0,00 0,00 1.100,88 31/01/2023
205 499000 ALINE FERREIRA LOPES ANALISTA DO MP TEÓFILO OTONI - COMARCA; TEOFILO OTONI-PJ-09PJ 1.333,00 0,00 578,00 0,00 5.812,40 0,00 0,00 0,00 1.178,06 31/01/2023
206 405300 ALINE LAIA CARDOZO SUPERINTENDENTE BELO HORIZONTE - COMARCA; SUPERINTENDENCIA LOGISTICA SERVICOS 1.333,00 0,00 578,00 0,00 5.995,90 0,00 0,00 0,00 1.764,98 31/01/2023
207 278200 ALINE MARCIA FARIA BARBOSA FERNANDES OFICIAL DO MP BARBACENA - COMARCA; BARBACENA-PJ-SECRETARIA 1.333,00 0,00 578,00 0,00 5.847,74 0,00 0,00 0,00 1.129,18 31/01/2023
208 1490300 ALINE MENDES CARDOZO ESTAGIARIO CURVELO; CURVELO-PJ-03PJ 0,00 0,00 0,00 132,00 0,00 0,00 0,00 0,00 61,67 31/01/2023
209 1334100 ALINE MORGANE DE SOUZA ESTAGIARIO VARZEA DA PALMA; VARZEA DA PALMA-PJ-02PJ 0,00 0,00 0,00 120,00 0,00 0,00 0,00 0,00 0,00 31/01/2023
210 389000 ALINE NERI NOBRE ANALISTA DO MP MONTES CLAROS - COMARCA; COORD REG PJ DEF EDUC DIR CRIANCA ADOL NORTE 1.333,00 0,00 578,00 0,00 5.609,76 0,00 0,00 0,00 1.669,72 31/01/2023
211 294600 ALINE PATRICIA SILVA VIEIRA OFICIAL DO MP UBERLÂNDIA - COMARCA; UBERLANDIA-PJ-03PJ 1.333,00 0,00 578,00 0,00 5.298,78 0,00 1.580,00 0,00 1.455,10 31/01/2023
212 420000 ALINE RODRIGUES CAMOROPIN ANALISTA DO MP SABARÁ - COMARCA; SABARA-PJ-02PJ 1.333,00 0,00 578,00 0,00 0,00 0,00 0,00 0,00 1.064,20 31/01/2023
213 715800 ALINE SANTOS PEDROSA MAIA BARBOSA ASSESSOR PROCURADOR JUSTICA BELO HORIZONTE - COMARCA; GABINETE DE PROCURADOR DE JUSTIÇA - SALA 1010 1.333,00 0,00 578,00 0,00 0,00 0,00 0,00 0,00 76,95 31/01/2023
214 699600 ALINE SEPULVEDA ROSA PIRES ASSESSOR PROCURADOR JUSTICA BELO HORIZONTE - COMARCA; GABINETE DE PROCURADOR DE JUSTIÇA - SALA 905 1.333,00 0,00 578,00 0,00 0,00 0,00 0,00 0,00 309,76 31/01/2023
215 408300 ALINE SILVA ARAUJO DE PAULA ANALISTA DO MP SÃO SEBASTIÃO DO PARAÍSO - COMARCA; SAO SEBASTIAO DO PARAISO-PJ-02PJ 1.333,00 0,00 578,00 0,00 5.432,94 0,00 0,00 0,00 1.610,80 31/01/2023
216 665900 ALINE SILVA BARROS PROMOTOR 2A ENTRANCIA VARZEA DA PALMA - COMARCA; VARZEA DA PALMA-PJ-01PJ 1.333,00 0,00 2.149,75 0,00 16.002,33 0,00 0,00 0,00 488,96 31/01/2023
217 1554300 ALINE SILVA MONTOVANI ESTAGIARIO VARGINHA; GAECO REGIONAL DE VARGINHA 0,00 0,00 0,00 48,00 0,00 0,00 0,00 0,00 0,00 31/01/2023
218 1323500 ALINE SIMAO DE PAULA ESTAGIARIO BELO HORIZONTE; PROC. JUSTICA DIR. DIFUSOS E COLETIVOS
219 425400 ALINE TRINDADE DE FREITAS CAMPOS OFICIAL DO MP BELO HORIZONTE - COMARCA; BH-14PJ DEFESA CONSUMIDOR-SECRETARIA 1.333,00 0,00 578,00 0,00 0,00 0,00 0,00 0,00 533,38 31/01/2023
220 1334800 ALINE VICTORIA SILVA MENDES ESTAGIARIO CONSELHEIRO LAFAIETE; CONSELHEIRO LAFAIETE-PJ-08PJ 0,00 0,00 0,00 12,00 0,00 0,00 0,00 0,00 0,00 31/01/2023
221 1367500 ALINY CRISTINA RODRIGUES ESTAGIARIO BELO HORIZONTE; BH-23PJ CIVEL-SETOR JURIDICO 0,00 0,00 0,00 108,00 0,00 0,00 0,00 0,00 0,00 31/01/2023
222 1255800 ALISANGELA DIAS DE SOUZA ESTAGIARIO 0,00 0,00 0,00 84,00 0,00 0,00 0,00 0,00 0,00 31/01/2023
223 517200 ALISSOM PEREIRA DA SILVA ANALISTA DO MP BORDA DA MATA - COMARCA; BORDA DA MATA-PJ-UNPJ 1.333,00 885,30 578,00 0,00 5.812,40 0,00 0,00 0,00 1.199,01 31/01/2023
224 1335600 ALISSON BRENNER ALVES DE OLIVEIRA ESTAGIARIO SALINAS; SALINAS-PJ-01PJ 0,00 0,00 0,00 108,00 0,00 0,00 0,00 0,00 0,00 31/01/2023
225 442400 ALISSON LABRE ANALISTA DO MP VARGINHA - COMARCA; VARGINHA-PJ-03PJ 1.333,00 0,00 578,00 0,00 5.633,72 0,00 0,00 0,00 1.154,14 31/01/2023
226 643800 ALLAN PAUL FONSECA DE CASTRO OFICIAL DO MP CONTAGEM - COMARCA; CONTAGEM-PJ-SECRETARIA 1.333,00 885,30 578,00 0,00 5.811,85 0,00 0,00 0,00 855,97 31/01/2023
227 612900 ALLAN VINICIUS VIEIRA ARAUJO COORDENADOR II BELO HORIZONTE - COMARCA; DIRETORIA DE GESTAO DOCUMENTAL 1.333,00 0,00 578,00 0,00 5.640,21 0,00 0,00 0,00 1.358,47 31/01/2023
228 1406800 ALLANA LUISA PIRES DA CUNHA ESTAGIARIO TRES MARIAS; TRES MARIAS-PJ-UNPJ 0,00 0,00 0,00 120,00 0,00 0,00 0,00 0,00 0,00 31/01/2023
229 349000 ALLEC RODRIGUES VIEIRA OFICIAL DO MP CAPINÓPOLIS - COMARCA; CAO-CIVEL 1.333,00 0,00 578,00 0,00 5.724,33 0,00 0,00 0,00 1.272,36 31/01/2023
230 532400 ALLENDER BARRETO LIMA DA SILVA PROMOTOR 1A ENTRANCIA BELO HORIZONTE - COMARCA; COORD COMB RACISMO E TODA FORM DISCRIM 1.333,00 0,00 886,40 0,00 10.134,81 0,00 0,00 0,00 0,00 31/01/2023
231 297300 ALLYSON SALIBA MONTEIRO LAIZO ANALISTA DO MP CONSELHEIRO LAFAIETE - COMARCA; CONSELHEIRO LAFAIETE-PJ-03PJ 1.333,00 885,30 578,00 0,00 5.349,39 0,00 0,00 0,00 1.782,64 31/01/2023
232 68900 ALMIR ALVES MOREIRA PROCURADOR DE JUSTICA BELO HORIZONTE - COMARCA; GABINETE DE PROCURADOR DE JUSTIÇA - SALA 1012 1.333,00 0,00 2.912,45 0,00 22.680,60 0,00 0,00 0,00 693,02 31/01/2023
233 226601 ALMIR GERALDO GUIMARAES PROMOTOR 2A ENTRANCIA MATEUS LEME - COMARCA; MATEUS LEME-PJ-02PJ 1.333,00 0,00 3.200,47 0,00 16.002,33 0,00 0,00 0,00 488,96 31/01/2023
234 303700 ALMIR LOPES LOURES ANALISTA DO MP BELO HORIZONTE - COMARCA; CENTRAL DE APOIO TECN-SETOR DE MEIO AMBIENTE 1.333,00 0,00 578,00 0,00 5.349,39 0,00 0,00 0,00 1.810,16 31/01/2023
235 440700 ALOISIO CUNHA SOARES JUNIOR PROMOTOR 2A ENTRANCIA PATROCÍNIO - COMARCA; PATROCINIO-PJ-04PJ 1.333,00 0,00 2.405,94 0,00 6.400,93 0,00 0,00 0,00 488,96 31/01/2023
236 90600 ALOISIO RABELO DE REZENDE PROMOT.ENTRANC.ESPECIAL VARGINHA - COMARCA; VARGINHA-PJ-01PJ 1.333,00 0,00 3.165,71 0,00 13.077,12 0,00 0,00 0,00 599,37 31/01/2023
237 696600 ALOIZIO MARTINS JALES JUNIOR ASSESSOR PROMOTOR JUSTICA CAMPESTRE - COMARCA; CAMPESTRE-PJ-SECRETARIA 1.333,00 0,00 578,00 0,00 4.714,66 0,00 0,00 0,00 784,10 31/01/2023
238 515900 ALTAIR NEVES JUNIOR OFICIAL DO MP BELO HORIZONTE - COMARCA; BH-01PJ FAZENDA PUBLICA-SECRETARIA 1.333,00 0,00 578,00 0,00 5.813,14 0,00 0,00 0,00 1.022,07 31/01/2023
239 290800 ALUISIA BERALDO RIBEIRO PROMOT.ENTRANC.ESPECIAL UBERLÂNDIA - COMARCA; UBERLANDIA-PJ-14PJ 1.333,00 0,00 1.671,49 0,00 17.816,88 0,00 0,00 0,00 544,40 31/01/2023
240 233300 ALVARINDO BATISTA ANALISTA DO MP BELO HORIZONTE - COMARCA; NUCLEO APOIO TECNICO ESP COMUNICACAO 1.333,00 796,77 578,00 0,00 0,00 0,00 0,00 0,00 1.272,39 31/01/2023
241 1402600 ALVARO ARCANJO SILVA PEREIRA ESTAGIARIO FERROS; FERROS-PJ-UNPJ 0,00 0,00 0,00 120,00 0,00 0,00 0,00 0,00 0,00 31/01/2023
242 1440700 ALVARO AUGUSTO RODRIGUES E SILVA ESTAGIARIO UBERLANDIA; UBERLANDIA-PJ-13PJ 0,00 0,00 0,00 120,00 0,00 0,00 0,00 0,00 0,00 31/01/2023
243 344400 ALYSSON CARDOZO CEMBRANEL PROMOT.ENTRANC.ESPECIAL BELO HORIZONTE - COMARCA; BH-13ª PJ JUÍXO DE TÓXICOS 1.333,00 0,00 2.609,58 0,00 16.844,55 0,00 0,00 0,00 514,69 31/01/2023
244 274100 ALYSSON CARVALHO VIDAL DE LACERDA OFICIAL DO MP MANHUAÇU - COMARCA; MANHUACU-PJ-01PJ 1.333,00 0,00 578,00 0,00 0,00 0,00 0,00 0,00 690,66 31/01/2023
245 1410600 AMANDA APARECIDA DE SOUZA SOARES ESTAGIARIO LAJINHA; LAJINHA-PJ-UNPJ 0,00 0,00 0,00 108,00 0,00 0,00 0,00 0,00 0,00 31/01/2023
246 621000 AMANDA BASTOS ALVES ANALISTA DO MP BELO HORIZONTE - COMARCA; BH-07PJ 02 TRIBUNAL DO JURI-GAB 066PJ 1.333,00 0,00 578,00 0,00 0,00 0,00 0,00 0,00 526,16 31/01/2023
247 1253500 AMANDA CAROLINE DIAS GONCALVES ESTAGIARIO PATROCINIO; PATROCINIO-PJ-05PJ 0,00 0,00 0,00 96,00 0,00 0,00 0,00 0,00 0,00 31/01/2023
248 1444400 AMANDA CARVALHO BORGES PEREIRA VALLE ESTAGIARIO ARAXA; ARAXA-PJ-01PJ 0,00 0,00 0,00 -48,00 0,00 0,00 0,00 0,00 0,00 31/01/2023
249 1284600 AMANDA CHRISTINA OLIVEIRA DA SILVA ESTAGIARIO BELO HORIZONTE; PROC JUST ATUACAO TRIBUNAIS SUPERIORES-GAB006 0,00 0,00 0,00 108,00 0,00 0,00 0,00 0,00 0,00 31/01/2023
250 521700 AMANDA CRISTINA AGUIAR MACHADO OFICIAL DO MP CONGONHAS - COMARCA; CONGONHAS-PJ-01PJ 1.333,00 0,00 578,00 0,00 0,00 0,00 0,00 0,00 380,50 31/01/2023
251 1511100 AMANDA CRISTINA GONCALVES ESTAGIARIO BELO HORIZONTE; COORD DE INCLUSAO E MOBILIZACAO SOCIAIS 0,00 0,00 0,00 72,00 0,00 0,00 0,00 0,00 0,00 31/01/2023
252 1548200 AMANDA DA SILVA BRAGA ESTAGIARIO BELO HORIZONTE; BH-18PJ VIOLENCIA DOMESTICA-GAB 177PJ 0,00 0,00 0,00 84,00 0,00 0,00 0,00 0,00 0,00 31/01/2023
253 713900 AMANDA DE ARAUJO CARVALHO ASSESSOR PROMOTOR JUSTICA ARAÇUAÍ - COMARCA; ARACUAI-PJ-01PJ 1.333,00 0,00 578,00 0,00 0,00 0,00 0,00 0,00 151,52 31/01/2023
254 613400 AMANDA DE ASSIS IUNES SANTOS ANALISTA DO MP CONGONHAS - COMARCA; CONGONHAS-PJ-01PJ 1.333,00 0,00 578,00 0,00 5.905,99 0,00 0,00 0,00 1.106,82 31/01/2023
255 695900 AMANDA DE OLIVEIRA ASSESSOR PROCURADOR JUSTICA BELO HORIZONTE - COMARCA; PROC JUST ATUACAO TRIBUNAIS SUPERIORES-GAB004 1.333,00 0,00 578,00 0,00 0,00 0,00 0,00 0,00 309,76 31/01/2023
256 1468700 AMANDA DE OLIVEIRA PEIXOTO LOPES ESTAGIARIO DORES DO INDAIA; DORES DO INDAIA-PJ-UNPJ 0,00 0,00 0,00 120,00 0,00 0,00 0,00 0,00 0,00 31/01/2023
257 520800 AMANDA DE SOUZA MACHADO ANALISTA DO MP BAEPENDI - COMARCA; BAEPENDI-PJ-UNPJ 1.333,00 0,00 578,00 0,00 5.812,40 0,00 0,00 0,00 1.192,74 31/01/2023
258 663900 AMANDA DENISE GONCALVES DA SILVA ASSESSOR ADMINISTRATIVO I BELO HORIZONTE - COMARCA; BH-12PJ JUIZO CRIMINAL-SECRETARIA 1.333,00 0,00 578,00 0,00 0,00 0,00 0,00 0,00 148,68 31/01/2023
259 1479900 AMANDA DILASCIO RIBEIRO FICHE ESTAGIARIO SAO JOAO DEL REI; SAO JOAO DEL REI-PJ-01PJ 0,00 0,00 0,00 120,00 0,00 0,00 0,00 0,00 0,00 31/01/2023
260 1378200 AMANDA KAROLINE DIAS SANTOS ESTAGIARIO CONTAGEM; CONTAGEM-PJ-21PJ 0,00 0,00 0,00 96,00 0,00 0,00 0,00 0,00 0,00 31/01/2023
261 677000 AMANDA LETICIA MESSIAS PEGO ASSESSOR PROMOTOR JUSTICA CORAÇÃO DE JESUS - COMARCA; CORACAO DE JESUS-PJ-UNPJ 1.333,00 0,00 578,00 0,00 0,00 0,00 0,00 0,00 334,43 31/01/2023
262 1551900 AMANDA LUIZA NUNES SOARES ESTAGIARIO BELO HORIZONTE; BH-18PJ VIOLENCIA DOMESTICA-GAB 007PJ 0,00 0,00 0,00 48,00 0,00 0,00 0,00 0,00 0,00 31/01/2023
263 666000 AMANDA MERLINI DUTRA OSIPE PROMOTOR 2A ENTRANCIA ITURAMA - COMARCA; ITURAMA - 03ª PJ 1.333,00 0,00 2.228,66 0,00 16.002,33 0,00 0,00 0,00 488,96 31/01/2023
264 1505800 AMANDA NICAELY BARBOSA SANTOS COSTA ESTAGIARIO MONTALVANIA; MONTALVANIA-PJ-UNPJ 0,00 0,00 0,00 132,00 0,00 0,00 0,00 0,00 0,00 31/01/2023
265 1439300 AMANDA NUNES SOUSA ESTAGIARIO LAVRAS; LAVRAS-PJ-02PJ 0,00 0,00 0,00 120,00 0,00 0,00 0,00 0,00 0,00 31/01/2023
266 1546800 AMANDA SILVA MEDEIROS ESTAGIARIO 0,00 0,00 0,00 120,00 0,00 0,00 0,00 0,00 0,00 31/01/2023
267 1468200 AMANDA VIEIRA FREIRE ESTAGIARIO BELO HORIZONTE; BH-13PJ JUIZO DE TOXICOS-GAB 079PJ 0,00 0,00 0,00 -120,00 0,00 0,00 0,00 0,00 0,00 31/01/2023
268 543100 AMANDA VIEIRA FREITAS BRESSANE ANALISTA DO MP VARGINHA - COMARCA; COORD REG DEF ORDEM ECON TRIB VARGINHA 1.333,00 0,00 578,00 0,00 0,00 0,00 0,00 0,00 510,08 31/01/2023
269 1385400 AMANDA VITORIA SANTOS DIAS ESTAGIARIO JANAUBA; JANAUBA-PJ-03PJ 0,00 0,00 0,00 120,00 0,00 0,00 0,00 0,00 0,00 31/01/2023
270 656701 AMARILDO ODILON REZENDE DE AGUIAR INVESTIGADOR DE POLICIA 2 BELO HORIZONTE - COMARCA; CAO-ORDEM ECONOMICA E TRIBUTARIA 1.333,00 0,00 0,00 0,00 0,00 0,00 0,00 0,00 0,00 31/01/2023
271 434400 AMARILIS ASSIS SIMAO CURCIO ANALISTA DO MP BELO HORIZONTE - COMARCA; DIRETORIA GESTAO COMPRAS LICITACOES 1.333,00 0,00 578,00 0,00 0,00 0,00 0,00 0,00 584,39 31/01/2023
272 652000 AMAURI SILVA ALVES ASSESSOR ADMINISTRATIVO III BELO HORIZONTE - COMARCA; BH-23PJ INFRACIONAL-SEC EXP 1.333,00 0,00 578,00 0,00 5.965,48 0,00 0,00 0,00 2.445,34 31/01/2023
273 58000 AMELIA GUARIZE DE CASTRO OFICIAL DO MP JUIZ DE FORA - COMARCA; JUIZ DE FORA-PJ-SECRETARIA 1.333,00 0,00 578,00 0,00 5.896,08 0,00 0,00 0,00 1.320,90 31/01/2023
274 324301 AMERICA SUELI FERREIRA DA SILVA ANALISTA DO MP UBERLÂNDIA - COMARCA; UBERLANDIA-PJ-02PJ 1.333,00 0,00 578,00 0,00 5.812,40 0,00 0,00 0,00 1.195,06 31/01/2023
275 273300 AMUJACY DE BRITO ASSIZ OFICIAL DO MP BELO HORIZONTE - COMARCA; BH-12PJ JUIZO CRIMINAL-SECRETARIA 1.333,00 0,00 578,00 0,00 0,00 0,00 0,00 0,00 697,98 31/01/2023
276 482200 ANA ALICE LOPES ACHTSCHIN ANALISTA DO MP BELO HORIZONTE - COMARCA; PROC JUST ATUACAO TRIBUNAIS SUPERIORES-GAB002 1.333,00 0,00 578,00 0,00 5.763,61 0,00 0,00 0,00 1.230,18 31/01/2023
277 490400 ANA AMELIA PAULINO GARCIA OFICIAL DO MP CONTAGEM - COMARCA; CONTAGEM-PJ-SECRETARIA 1.333,00 885,30 578,00 0,00 0,00 0,00 0,00 0,00 465,63 31/01/2023
278 690400 ANA ANGELICA MOREIRA DA CUNHA ASSESSOR PROMOTOR JUSTICA TIMÓTEO - COMARCA; TIMOTEO-PJ-02PJ 1.333,00 0,00 578,00 0,00 0,00 0,00 0,00 0,00 370,08 31/01/2023
279 671300 ANA BARBARA CANEDO OLIVEIRA PROMOTOR 2A ENTRANCIA PIRAPORA - COMARCA; PIRAPORA-PJ-01PJ 1.333,00 0,00 886,40 0,00 14.935,51 0,00 0,00 0,00 488,96 31/01/2023
280 1471000 ANA BEATRIZ BARBOSA RODRIGUES ESTAGIARIO POUSO ALEGRE; POUSO ALEGRE-PJ-04PJ 0,00 0,00 0,00 96,00 0,00 0,00 0,00 0,00 0,00 31/01/2023
281 1440100 ANA BEATRIZ DE SOUZA ARCANJO BASTOS ESTAGIARIO NOVA ERA; NOVA ERA-PJ-UNPJ 0,00 0,00 0,00 24,00 0,00 0,00 0,00 0,00 0,00 31/01/2023
282 1280900 ANA BEATRIZ DIAS DE AZEVEDO ESTAGIARIO POUSO ALEGRE; POUSO ALEGRE-PJ-06PJ 0,00 0,00 0,00 120,00 0,00 0,00 0,00 0,00 0,00 31/01/2023
283 714900 ANA BEATRIZ LOBATO ALVES DE CARVALHO ASSESSOR PROCURADOR JUSTICA BELO HORIZONTE - COMARCA; GABINETE DE PROCURADOR DE JUSTICA - SALA 309 1.333,00 0,00 578,00 0,00 0,00 0,00 0,00 0,00 84,52 31/01/2023
284 1515700 ANA BEATRIZ VIANA DA SILVA ESTAGIARIO JOAO MONLEVADE; JOAO MONLEVADE-PJ-02PJ 0,00 0,00 0,00 96,00 0,00 0,00 0,00 0,00 0,00 31/01/2023
285 1477500 ANA CARLA GOMES ALVES ESTAGIARIO PASSOS; PASSOS-PJ-04PJ 0,00 0,00 0,00 108,00 0,00 0,00 0,00 0,00 0,00 31/01/2023
286 715000 ANA CARLA RODRIGUES DE SOUZA ASSESSOR PROMOTOR JUSTICA TRÊS CORACOES - COMARCA; TRES CORACOES-PJ-01PJ 1.333,00 0,00 578,00 0,00 0,00 0,00 0,00 0,00 84,52 31/01/2023
287 723200 ANA CAROLINA AMABILE ALVES INVESTIGADOR DE POLICIA 2 1.333,00 0,00 0,00 0,00 0,00 0,00 0,00 0,00 0,00 31/01/2023
288 279100 ANA CAROLINA ARAUJO PEREIRA ANALISTA DO MP BELO HORIZONTE - COMARCA; DIRETORIA DE PROJETOS DE EDIFICACOES 1.333,00 0,00 578,00 0,00 0,00 0,00 0,00 0,00 1.265,09 31/01/2023
289 1460200 ANA CAROLINA BARBOSA FERNANDES ESTAGIARIO ITUIUTABA; ITUIUTABA-PJ-04PJ 0,00 0,00 0,00 36,00 0,00 0,00 0,00 0,00 0,00 31/01/2023
290 653300 ANA CAROLINA CYRNE DINIZ ASSESSOR ADMINISTRATIVO III BELO HORIZONTE - COMARCA; CENTRAL DE APOIO TECNICO-SETOR CONTABIL 1.333,00 0,00 578,00 0,00 0,00 0,00 0,00 0,00 391,76 31/01/2023
291 1533400 ANA CAROLINA DA SILVA REIS ESTAGIARIO IGARAPE; IGARAPE-PJ-03PJ 0,00 0,00 0,00 120,00 0,00 0,00 0,00 0,00 0,00 31/01/2023
292 359400 ANA CAROLINA DE ABREU FARIA ASSESSOR ADMINISTRATIVO IV BELO HORIZONTE - COMARCA; SUPERINTENDÊNCIA DE ENGENHARIA E ARQUITETURA 1.333,00 885,30 578,00 0,00 5.685,22 0,00 0,00 0,00 1.067,43 31/01/2023
293 408500 ANA CAROLINA DE CASTRO CARVALHO ANALISTA DO MP BARBACENA - COMARCA; BARBACENA - SECRETARIA DAS PJS CRIMINAIS 1.333,00 885,30 578,00 0,00 0,00 0,00 0,00 0,00 1.032,78 31/01/2023
294 1487500 ANA CAROLINA DE MELO MARTINS ESTAGIARIO CABO VERDE; CABO VERDE-PJ-UNPJ 0,00 0,00 0,00 36,00 0,00 0,00 0,00 0,00 0,00 31/01/2023
295 1542400 ANA CAROLINA DE OLIVEIRA FROES ESTAGIARIO NOVA LIMA; NOVA LIMA-PJ-03PJ 0,00 0,00 0,00 120,00 0,00 0,00 0,00 0,00 0,00 31/01/2023
296 1551800 ANA CAROLINA DE OLIVEIRA GOMES ESTAGIARIO BELO HORIZONTE; BH-08PJ JUIZADO ESPECIAL-SECRETARIA 0,00 0,00 0,00 48,00 0,00 0,00 0,00 0,00 0,00 31/01/2023
297 688000 ANA CAROLINA DE OLIVEIRA PINTO ASSESSOR PROCURADOR JUSTICA BELO HORIZONTE - COMARCA; GABINETE DE PROCURADOR DE JUSTIÇA - SALA 1005 1.333,00 0,00 578,00 0,00 0,00 0,00 0,00 0,00 328,15 31/01/2023
298 1252200 ANA CAROLINA DE SOUZA SOBRAL ESTAGIARIO BELO HORIZONTE; BH-08PJ JUIZADO ESPECIAL-GAB 051PJ 0,00 0,00 0,00 72,00 0,00 0,00 0,00 0,00 0,00 31/01/2023
299 598900 ANA CAROLINA DUARTE DA SILVA INVESTIGADOR DE POLICIA 2 BELO HORIZONTE - COMARCA; PROC JUST ESP ACOES COMP ORIG CRIMINAL-SEC 1.333,00 0,00 0,00 0,00 0,00 0,00 0,00 0,00 0,00 31/01/2023
300 420200 ANA CAROLINA FERNANDES SILVA ANALISTA DO MP BELO HORIZONTE - COMARCA; GABINETE DE PROCURADOR DE JUSTIÇA - SALA 704 1.333,00 0,00 578,00 0,00 0,00 0,00 0,00 0,00 801,41 31/01/2023
301 522100 ANA CAROLINA FERNANDINO VIDAL PEREIRA SANTOS OFICIAL DO MP BELO HORIZONTE - COMARCA; SECRETARIA DO PROCON-MG 1.333,00 0,00 578,00 0,00 0,00 0,00 0,00 0,00 476,10 31/01/2023
302 716000 ANA CAROLINA FIGUEIREDO SILVA ASSESSOR PROCURADOR JUSTICA BELO HORIZONTE - COMARCA; PROC JUST ATUACAO TRIBUNAIS SUPERIORES-GAB001 1.333,00 0,00 578,00 0,00 0,00 0,00 0,00 0,00 69,63 31/01/2023
303 244700 ANA CAROLINA GARCIA COSTA PROMOT.ENTRANC.ESPECIAL BELO HORIZONTE - COMARCA; BH-23PJ INFRACIONAL-GAB 147PJ 1.333,00 0,00 3.368,91 0,00 17.816,88 0,00 0,00 0,00 544,40 31/01/2023
304 502400 ANA CAROLINA GONCALVES FERNANDES ANALISTA DO MP IPATINGA - COMARCA; IPATINGA-PJ-01PJ 1.333,00 1.770,60 578,00 0,00 5.812,40 0,00 0,00 0,00 1.164,52 31/01/2023
305 529900 ANA CAROLINA GONCALVES PECANHA CHEQUER ANALISTA DO MP MANHUAÇU - COMARCA; MANHUACU-PJ-04PJ 1.333,00 1.770,60 578,00 0,00 0,00 0,00 0,00 0,00 574,13 31/01/2023
306 1546300 ANA CAROLINA MARQUES RAMOS ESTAGIARIO BRUMADINHO; BRUMADINHO-PJ-02PJ 0,00 0,00 0,00 108,00 0,00 0,00 0,00 0,00 0,00 31/01/2023
307 1202400 ANA CAROLINA MARTINS DE ANDRADE ESTAGIARIO UBA; UBA-PJ-02PJ 0,00 0,00 0,00 180,00 0,00 0,00 0,00 0,00 0,00 31/01/2023
308 431900 ANA CAROLINA MOTTA GUATIMOSIM ANALISTA DO MP BELO HORIZONTE - COMARCA; ASSESSORIA JURIDICO-ADMINISTRATIVA 1.333,00 885,30 578,00 0,00 0,00 0,00 0,00 0,00 929,44 31/01/2023
309 1539500 ANA CAROLINA OLIVEIRA DE CARVALHO ESTAGIARIO ITAJUBA; ITAJUBA-PJ-01PJ 0,00 0,00 0,00 132,00 0,00 0,00 0,00 0,00 0,00 31/01/2023
310 1491200 ANA CAROLINA OLIVEIRA DINIZ ESTAGIARIO CONTAGEM; CONTAGEM-PJ-03PJ 0,00 0,00 0,00 96,00 0,00 0,00 0,00 0,00 0,00 31/01/2023
311 1461800 ANA CAROLINA PORTO SEGURO CAMPOS COELHO ESTAGIARIO BELO HORIZONTE; BH-26 CRIME CONT CRIAN ADOL-GAB 169PJ 0,00 0,00 0,00 324,00 0,00 0,00 0,00 0,00 740,00 31/01/2023
312 1524500 ANA CAROLINA VASCONCELOS VALADARES GRAVITO ESTAGIARIO BELO HORIZONTE; BH-23PJ CIVEL-GAB 162PJ 0,00 0,00 0,00 84,00 0,00 0,00 0,00 0,00 0,00 31/01/2023
313 490600 ANA CAROLINA XAVIER GODOY ANALISTA DO MP BELO HORIZONTE - COMARCA; BH-18PJ DIREITOS HUMANOS-SECRETARIA 1.333,00 1.770,60 578,00 0,00 5.812,40 0,00 0,00 0,00 1.209,95 31/01/2023
314 313700 ANA CAROLINA ZAMBOM PINTO COELHO PROMOT.ENTRANC.ESPECIAL BELO HORIZONTE - COMARCA; COORD ESTADUAL DE DEFESA DA EDUCACAO 1.333,00 0,00 1.519,54 0,00 10.106,73 0,00 0,00 0,00 514,69 31/01/2023
315 1220900 ANA CAROLINE CARVALHO MARTINS ESTAGIARIO IPATINGA; IPATINGA-PJ-01PJ 0,00 0,00 0,00 36,00 740,00 0,00 0,00 0,00 0,00 31/01/2023
316 1501100 ANA CAROLINE DE OLIVEIRA ESTAGIARIO 0,00 0,00 0,00 0,00 0,00 0,00 0,00 0,00 0,00 31/01/2023
317 600300 ANA CAROLINE PEREIRA DINIZ ANALISTA DO MP BELO HORIZONTE - COMARCA; PROC JUST ESP ACOES COMP ORIG CRIMINAL-SEC 1.333,00 885,30 578,00 0,00 5.812,40 0,00 0,00 0,00 1.148,09 31/01/2023
318 615800 ANA CAROLINE PEREIRA OLIVEIRA OFICIAL DO MP ALFENAS - COMARCA; ALFENAS-PJ-06PJ 1.333,00 0,00 578,00 0,00 5.891,30 0,00 0,00 0,00 962,19 31/01/2023
319 1357300 ANA CAROLINE RIBEIRO PRATES ESTAGIARIO 0,00 0,00 0,00 48,00 0,00 0,00 0,00 0,00 0,00 31/01/2023
320 1389400 ANA CAROLINE SOARES GOMES ESTAGIARIO SAO DOMINGOS DO PRATA; SAO DOMINGOS DO PRATA-PJ-UNPJ 0,00 0,00 0,00 60,00 0,00 0,00 0,00 0,00 0,00 31/01/2023
321 717900 ANA CATHARINA MACHADO NORMANTON PROMOTOR SUBSTITUTO UBERABA - COMARCA; UBERABA-PJ-04PJ 1.333,00 0,00 3.040,44 0,00 0,00 0,00 0,00 0,00 0,00 31/01/2023
322 1541300 ANA CECILIA BRESSANIN KIMURA ESTAGIARIO POUSO ALEGRE; POUSO ALEGRE-PJ-05PJ 0,00 0,00 0,00 120,00 0,00 0,00 0,00 0,00 0,00 31/01/2023
323 229202 ANA CECILIA JUNQUEIRA GOUVEA PROMOT.ENTRANC.ESPECIAL RIBEIRÃO DAS NEVES - COMARCA; RIBEIRAO DAS NEVES-PJ-08PJ 1.333,00 0,00 2.583,22 0,00 0,00 0,00 0,00 0,00 0,00 31/01/2023
324 324800 ANA CECILIA MENDES DA SILVA OFICIAL DO MP OURO FINO - COMARCA; OURO FINO-PJ-01PJ 1.333,00 0,00 578,00 0,00 0,00 0,00 0,00 0,00 619,37 31/01/2023
325 1502000 ANA CLARA ANTUNES VASCONCELOS ESTAGIARIO BELO HORIZONTE; GABINETE DE PROCURADOR DE JUSTIÇA - SALA 408 0,00 0,00 0,00 0,00 0,00 0,00 0,00 0,00 0,00 31/01/2023
326 1538300 ANA CLARA DE OLIVEIRA CASTRO ESTAGIARIO NOVA ERA; NOVA ERA-PJ-UNPJ 0,00 0,00 0,00 144,00 0,00 0,00 0,00 0,00 0,00 31/01/2023
327 1327400 ANA CLARA DOS SANTOS PEREIRA ESTAGIARIO SETE LAGOAS; SETE LAGOAS-PJ-11PJ 0,00 0,00 0,00 72,00 0,00 0,00 0,00 0,00 61,67 31/01/2023
328 1548100 ANA CLARA DRUMMOND ARTHUSO ESTAGIARIO BELO HORIZONTE; GABINETE DE PROCURADOR DE JUSTIÇA - SALA 609 0,00 0,00 0,00 60,00 0,00 0,00 0,00 0,00 1.083,33 31/01/2023
329 1465500 ANA CLARA GONCALVES FANTECELE VIEIRA ESTAGIARIO BELO HORIZONTE; BH-10PJ EXECUÇÃO PENAL-GAB 078PJ 0,00 0,00 0,00 108,00 0,00 0,00 0,00 0,00 0,00 31/01/2023
330 1480400 ANA CLARA GRECO VILLANI MARQUES ESTAGIARIO BELO HORIZONTE; BH-23PJ INFRACIONAL-GAB 144PJ 0,00 0,00 0,00 84,00 0,00 0,00 0,00 0,00 0,00 31/01/2023
331 1384200 ANA CLARA GUIMARAES ROSA ESTAGIARIO CONTAGEM; CONTAGEM-PJ-06PJ 0,00 0,00 0,00 0,00 0,00 0,00 0,00 0,00 0,00 31/01/2023
332 1510900 ANA CLARA LINA COSTA ESTAGIARIO BELO HORIZONTE; BH-13PJ JUIZO DE TOXICOS-GAB 149PJ 0,00 0,00 0,00 72,00 0,00 0,00 0,00 0,00 0,00 31/01/2023
333 704100 ANA CLARA MARTINS ALBUQUERQUE ASSESSOR ADMINISTRATIVO I BELO HORIZONTE - COMARCA; CAO-CRIANCAS E ADOLESCENTES-ASS TECNICA 1.333,00 0,00 578,00 0,00 0,00 0,00 0,00 0,00 123,03 31/01/2023
334 1322000 ANA CLARA RESGALA BARTHOLDY ESTAGIARIO BELO HORIZONTE; PROC. JUSTICA DIR. DIFUSOS E COLETIVOS
335 698700 ANA CLARA SANTOS ALMEIDA ASSESSOR PROMOTOR JUSTICA SABINÓPOLIS - COMARCA; SABINOPOLIS-PJ-UNPJ 1.333,00 0,00 578,00 0,00 0,00 0,00 0,00 0,00 320,44 31/01/2023
336 441300 ANA CLAUDIA ALKIMIM MIRANDA BOMTEMPO ANALISTA DO MP MONTES CLAROS - COMARCA; MONTES CLAROS-PJ-11PJ 1.333,00 0,00 578,00 0,00 0,00 0,00 0,00 0,00 801,15 31/01/2023
337 1490100 ANA CLAUDIA ALVES MACHADO ESTAGIARIO BELO HORIZONTE; BH-18PJ VIOLENCIA DOMESTICA 0,00 0,00 0,00 72,00 0,00 0,00 0,00 0,00 0,00 31/01/2023
338 642500 ANA CLAUDIA DA COSTA NAVES OFICIAL DO MP MONTE CARMELO - COMARCA; MONTE CARMELO-PJ-02PJ 1.333,00 885,30 578,00 0,00 0,00 297,28 0,00 0,00 279,06 31/01/2023
339 716800 ANA CLAUDIA DOURADO MENDES ASSESSOR PROMOTOR JUSTICA ARAÇUAÍ - COMARCA; ARACUAI-PJ-02PJ 1.333,00 0,00 578,00 0,00 0,00 0,00 0,00 0,00 62,30 31/01/2023
340 1392700 ANA CLAUDIA GOIANAZES MOREIRA ESTAGIARIO BELO HORIZONTE; GABINETE DE PROCURADOR DE JUSTIÇA - SALA 705 0,00 0,00 0,00 -48,00 0,00 0,00 0,00 0,00 0,00 31/01/2023
341 341500 ANA CLAUDIA LOPES PROMOT.ENTRANC.ESPECIAL BELO HORIZONTE - COMARCA; BH-07PJ 01 TRIBUNAL DO JURI-GAB 077PJ 1.333,00 0,00 1.164,98 0,00 16.844,55 0,00 0,00 0,00 514,69 31/01/2023
342 604900 ANA CLAUDIA OLIVEIRA DE MIRANDA OFICIAL DO MP PONTE NOVA - COMARCA; PONTE NOVA-PJ-04PJ 1.333,00 0,00 578,00 0,00 5.302,17 0,00 0,00 0,00 812,86 31/01/2023
343 1381200 ANA CLAUDIA SARAIVA MARTINS FERREIRA ESTAGIARIO BELO HORIZONTE; BH-18PJ DIREITOS HUMANOS-GAB 128PJ 0,00 0,00 0,00 -48,00 0,00 0,00 0,00 0,00 0,00 31/01/2023
344 379300 ANA CRISTINA ALVES FLAVIO ANALISTA DO MP SÃO GOTARDO - COMARCA; SAO GOTARDO-PJ-01PJ 1.333,00 885,30 578,00 0,00 0,00 0,00 0,00 0,00 1.038,64 31/01/2023
345 461200 ANA CRISTINA ALVES PASCHOAL ANALISTA DO MP BELO HORIZONTE - COMARCA; BH-07PJ 03 TRIBUNAL DO JURI-GAB 064PJ 1.333,00 0,00 578,00 0,00 0,00 0,00 0,00 0,00 699,69 31/01/2023
346 514100 ANA CRISTINA ARAUJO ASSUNCAO ANALISTA DO MP BELO HORIZONTE - COMARCA; ASSESS JUR DO CONS SUPERIOR DO MINISTERIO PUB 1.333,00 885,30 578,00 0,00 0,00 0,00 0,00 0,00 621,63 31/01/2023
347 113401 ANA CRISTINA BRAGA ALBUQUERQUE ASSESSOR ADM. ESPECIAL BELO HORIZONTE - COMARCA; DIRETORIA-GERAL 1.333,00 0,00 0,00 0,00 0,00 0,00 0,00 0,00 434,94 31/01/2023
348 233800 ANA CRISTINA BRAGA SOARES OFICIAL DO MP CONTAGEM - COMARCA; CONTAGEM-PJ-SECRETARIA 1.333,00 0,00 578,00 0,00 0,00 0,00 0,00 0,00 843,98 31/01/2023
349 186400 ANA CRISTINA DE AZEVEDO LOPES OFICIAL DO MP UBÁ - COMARCA; UBA-PJ-01PJ 1.333,00 0,00 578,00 0,00 5.127,46 0,00 0,00 0,00 1.749,63 31/01/2023
350 693000 ANA CRISTINA DE MELO SILVEIRA ASSESSOR PROCURADOR JUSTICA BELO HORIZONTE - COMARCA; COORD DE CONTROLE CONSTITUCIONALIDADE 1.151,23 885,30 578,00 0,00 0,00 0,00 0,00 0,00 343,88 31/01/2023
351 465100 ANA CRISTINA DE OLIVEIRA GUIMARAES ANALISTA DO MP ITAJUBA - COMARCA; ITAJUBA-PJ-05PJ 1.333,00 885,30 578,00 0,00 5.812,40 0,00 0,00 0,00 1.181,65 31/01/2023
352 500600 ANA CRISTINA LATADO SUDARIO ANALISTA DO MP UBERLÂNDIA - COMARCA; UBERLANDIA-PJ-09PJ 1.333,00 0,00 578,00 0,00 0,00 0,00 0,00 0,00 588,81 31/01/2023
353 331400 ANA CRISTINA RIBEIRO ALVES OFICIAL DO MP BAMBUÍ - COMARCA; BAMBUI-PJ-UNPJ 1.333,00 0,00 578,00 0,00 5.724,33 0,00 0,00 0,00 1.312,06 31/01/2023
354 1552300 ANA ELISA TEIXEIRA GONCALVES ESTAGIARIO IBIRITE; IBIRITE-PJ-06PJ 0,00 0,00 0,00 48,00 0,00 0,00 0,00 0,00 0,00 31/01/2023
355 249300 ANA ELOINA MARTINS OFICIAL DO MP BETIM - COMARCA; BETIM-PJ-02PJ 1.333,00 0,00 578,00 0,00 5.637,44 0,00 0,00 0,00 1.573,18 31/01/2023
356 611500 ANA FLAVIA AFONSO DRUMOND AMORIM PROMOTOR 2A ENTRANCIA PIRAPORA - COMARCA; PIRAPORA-PJ-02PJ 1.333,00 0,00 0,00 0,00 16.002,33 0,00 0,00 0,00 488,96 31/01/2023
357 1466700 ANA FLAVIA ALVES ARAUJO ESTAGIARIO NOVA LIMA; NOVA LIMA-PJ-SECRETARIA 0,00 0,00 0,00 108,00 0,00 0,00 0,00 0,00 0,00 31/01/2023
358 257400 ANA FLAVIA CAMBRAIA ANALISTA DO MP BELO HORIZONTE - COMARCA; BH-19PJ SAUDE-SECRETARIA 150PJ 1.333,00 0,00 578,00 0,00 0,00 0,00 0,00 0,00 1.411,21 31/01/2023
359 1230700 ANA FLAVIA CARDOSO VIZOTTO ESTAGIARIO BELO HORIZONTE; BH-12PJ JUIZO CRIMINAL-GAB 104PJ
360 248201 ANA FLAVIA DE MORAIS SOUZA ANALISTA DO MP DIVINÓPOLIS - COMARCA; DIVINOPOLIS-PJ-01PJ 1.333,00 885,30 578,00 0,00 5.550,14 0,00 0,00 0,00 1.439,96 31/01/2023
361 621100 ANA FLAVIA DINIZ TEODORO OFICIAL DO MP SANTA LUZIA - COMARCA; SANTA LUZIA-PJ-06PJ 1.333,00 0,00 578,00 0,00 0,00 0,00 0,00 0,00 394,14 31/01/2023
362 238600 ANA FLAVIA FRANCO OFICIAL DO MP BELO HORIZONTE - COMARCA; DIRETORIA DE PESSOAL ADMINISTRATIVO - DPAD 1.333,00 0,00 578,00 0,00 5.432,94 0,00 0,00 0,00 1.646,54 31/01/2023
363 690000 ANA FLAVIA LURIAN DE PAIVA ASSESSOR PROCURADOR JUSTICA BELO HORIZONTE - COMARCA; GABINETE DE PROCURADOR DE JUSTIÇA - SALA 609 1.333,00 0,00 578,00 0,00 0,00 0,00 0,00 0,00 328,57 31/01/2023
364 1488300 ANA FLAVIA PINTO ESTAGIARIO RESENDE COSTA; RESENDE COSTA-PJ-UNPJ 0,00 0,00 0,00 120,00 0,00 0,00 0,00 0,00 0,00 31/01/2023
365 402900 ANA FLAVIA PORTES DE CARVALHO ANALISTA DO MP BELO HORIZONTE - COMARCA; DIRET DE PLANOS PROJETOS E PROGRAMAS INST 1.333,00 0,00 578,00 0,00 5.609,76 0,00 0,00 0,00 1.567,89 31/01/2023
366 1326900 ANA FLAVIA RIBEIRO PEREIRA ESTAGIARIO CORINTO; CORINTO-PJ-UNPJ 0,00 0,00 0,00 0,00 1.110,00 0,00 0,00 0,00 0,00 31/01/2023
367 1336700 ANA FLAVIA SANTOS PARAISO ESTAGIARIO BRASILIA DE MINAS; BRASILIA DE MINAS-PJ-01PJ 0,00 0,00 0,00 84,00 0,00 0,00 0,00 0,00 0,00 31/01/2023
368 1297100 ANA GABRIELA BOLDRIN TRINCA ESTAGIARIO POCOS DE CALDAS; POCOS DE CALDAS-PJ-07PJ 0,00 0,00 0,00 108,00 0,00 0,00 0,00 0,00 0,00 31/01/2023
369 526300 ANA GABRIELA BRITO MELO ROCHA PROMOTOR 2A ENTRANCIA TRÊS PONTAS - COMARCA; TRES PONTAS-PJ-03PJ 1.333,00 0,00 2.026,06 0,00 16.002,33 0,00 0,00 0,00 488,96 31/01/2023
370 1425900 ANA GABRIELA MOURA SIQUEIRA ESTAGIARIO FRUTAL; FRUTAL-PJ-01PJ 0,00 0,00 0,00 120,00 0,00 0,00 0,00 0,00 0,00 31/01/2023
371 1515200 ANA GABRIELLY SILVA ESTAGIARIO BELO HORIZONTE; BH-12PJ JUIZO CRIMINAL-GAB 086PJ 0,00 0,00 0,00 72,00 0,00 0,00 0,00 0,00 0,00 31/01/2023
372 1254700 ANA HELENA SANTOS DE OLIVEIRA ESTAGIARIO ITABIRA; ITABIRA-PJ-05PJ 0,00 0,00 0,00 120,00 0,00 0,00 0,00 0,00 0,00 31/01/2023
373 1476700 ANA JULIA ALVES SOARES ESTAGIARIO GUARANESIA; GUARANESIA-PJ-UNPJ 0,00 0,00 0,00 120,00 0,00 0,00 0,00 0,00 0,00 31/01/2023
374 1488400 ANA JULIA DIXINI CARVALHO ESTAGIARIO TRES PONTAS; TRES PONTAS-PJ-03PJ 0,00 0,00 0,00 120,00 0,00 0,00 0,00 0,00 0,00 31/01/2023
375 1412300 ANA JULIA PEREIRA BELLEI GOMES ESTAGIARIO JUIZ DE FORA; JUIZ DE FORA-PJ-03PJ 0,00 0,00 0,00 108,00 0,00 0,00 0,00 0,00 0,00 31/01/2023
376 1426000 ANA JULIA PERES DE OLIVEIRA ESTAGIARIO FRUTAL; FRUTAL-PJ-02PJ 0,00 0,00 0,00 108,00 0,00 0,00 0,00 0,00 0,00 31/01/2023
377 1483100 ANA JULIA RODRIGUES CAMPOS ESTAGIARIO ITAUNA; ITAUNA-PJ-05PJ 0,00 0,00 0,00 84,00 0,00 0,00 0,00 0,00 0,00 31/01/2023
378 1262100 ANA JULIA SILVA PEREIRA ESTAGIARIO LAVRAS; LAVRAS-PJ-06PJ 0,00 0,00 0,00 36,00 375,00 0,00 0,00 0,00 125,00 31/01/2023
379 1537300 ANA JULIA SOUSA DE JESUS ESTAGIARIO PAINS; ALFENAS-PJ-05PJ 0,00 0,00 0,00 120,00 0,00 0,00 0,00 0,00 0,00 31/01/2023
380 382700 ANA KARENINA SALDANHA GONTIJO ANALISTA DO MP BELO HORIZONTE - COMARCA; ASSESS TECNICO-JUR JUNTO AS PROC. DE JUST 1.333,00 0,00 578,00 0,00 0,00 0,00 0,00 0,00 861,83 31/01/2023
381 620500 ANA KARINE DE ANDRADE OLIVEIRA ANALISTA DO MP RIBEIRÃO DAS NEVES - COMARCA; RIBEIRAO NEVES-SEC PJ EXECUCAO PENAL 1.333,00 0,00 578,00 0,00 0,00 0,00 0,00 0,00 635,43 31/01/2023
382 1412600 ANA KAROLINE ARAUJO DA SILVA ESTAGIARIO BELO HORIZONTE; BH-12PJ JUIZO CRIMINAL-GAB 083PJ 0,00 0,00 0,00 108,00 0,00 0,00 0,00 0,00 0,00 31/01/2023
383 1259400 ANA KAROLINE DOS SANTOS ESTAGIARIO
384 1520600 ANA KAROLYNA OLIVEIRA MORAIS ESTAGIARIO BELO HORIZONTE; BH-17PJ PATRIMONIO PUBLICO-GAB 121PJ 0,00 0,00 0,00 96,00 0,00 0,00 0,00 0,00 0,00 31/01/2023
385 1420700 ANA LAURA CARVALHO GENEROSO ESTAGIARIO BELO HORIZONTE; GABINETE DE PROCURADOR DE JUSTIÇA - SALA 1013
386 1417200 ANA LAURA FERREIRA DA SILVA ESTAGIARIO UBERABA; UBERABA-PJ-16PJ 0,00 0,00 0,00 120,00 0,00 0,00 0,00 0,00 0,00 31/01/2023
387 1457800 ANA LAURA GONCALVES DE MENEZES ESTAGIARIO UBERLANDIA; GAECO REGIONAL DE UBERLANDIA 0,00 0,00 0,00 120,00 0,00 0,00 0,00 0,00 0,00 31/01/2023
388 1503800 ANA LAURA PEREIRA MORAIS ESTAGIARIO CONCEICAO DAS ALAGOAS; CONCEICAO DAS ALAGOAS-PJ-01PJ 0,00 0,00 0,00 120,00 0,00 0,00 0,00 0,00 0,00 31/01/2023
389 57400 ANA LEIA SALOMAO E RIBEIRO PROMOT.ENTRANC.ESPECIAL JUIZ DE FORA - COMARCA; JUIZ DE FORA-PJ-17PJ 1.333,00 0,00 2.850,77 0,00 15.120,40 0,00 0,00 0,00 693,02 31/01/2023
390 224300 ANA LETICIA MARTINS DE SOUZA PROMOT.ENTRANC.ESPECIAL CONTAGEM - COMARCA; CONTAGEM-PJ-13PJ 1.333,00 0,00 1.063,68 0,00 0,00 0,00 0,00 0,00 0,00 31/01/2023
391 1476300 ANA LIVIA DE FREITAS SILVA ESTAGIARIO PARAOPEBA; PARAOPEBA-PJ-UNPJ 0,00 0,00 0,00 120,00 0,00 0,00 0,00 0,00 0,00 31/01/2023
392 1391300 ANA LIVIA DO NASCIMENTO TORQUATO ESTAGIARIO GUAXUPE; GUAXUPE-PJ-01PJ 0,00 0,00 0,00 120,00 0,00 0,00 0,00 0,00 0,00 31/01/2023
393 462200 ANA LUCIA ANDRADE TOMICH OTTONI ANALISTA DO MP TEÓFILO OTONI - COMARCA; TEOFILO OTONI-PJ-07PJ 1.333,00 885,30 578,00 0,00 2.113,60 0,00 0,00 0,00 818,62 31/01/2023
394 504100 ANA LUCIA CATAO DE CARVALHO OFICIAL DO MP BELO HORIZONTE - COMARCA; DIR RELACOES INSTITUCIONAIS 1.333,00 0,00 578,00 0,00 0,00 0,00 0,00 0,00 496,01 31/01/2023
395 274700 ANA LUCIA DE ALENCAR BRAGATO OFICIAL DO MP UBERABA - COMARCA; UBERABA-PJ-07PJ 1.333,00 0,00 578,00 0,00 5.724,33 0,00 0,00 0,00 1.270,24 31/01/2023
396 509400 ANA LUCIA DORNELAS MALLOSTO ANALISTA DO MP JUIZ DE FORA - COMARCA; JUIZ DE FORA-PJ-25PJ 1.333,00 0,00 578,00 0,00 5.812,40 0,00 0,00 0,00 1.187,30 31/01/2023
397 114600 ANA LUCIA JUNQUEIRA MUZZI CAVALIERI PROMOT.ENTRANC.ESPECIAL JUIZ DE FORA - COMARCA; JUIZ DE FORA-PJ-14PJ 1.333,00 0,00 3.368,91 0,00 12.077,15 0,00 0,00 0,00 691,92 31/01/2023
398 302600 ANA LUCIA LOPES SANTOS OFICIAL DO MP BELO HORIZONTE - COMARCA; DIVISÃO DE FISCALIZAÇÃO DAS RELAÇÕES DE CONSU 1.333,00 0,00 578,00 0,00 0,00 0,00 1.580,00 0,00 842,63 31/01/2023
399 1409600 ANA LUISA COSTA DA SILVA ARAUJO ESTAGIARIO GOVERNADOR VALADARES; GOVERNADOR VALADARES-PJ-13PJ 0,00 0,00 0,00 108,00 0,00 0,00 0,00 0,00 0,00 31/01/2023
400 716700 ANA LUISA DE LANA COELHO ASSESSOR PROCURADOR JUSTICA BELO HORIZONTE - COMARCA; GABINETE DE PROCURADOR DE JUSTIÇA - SALA 715 1.333,00 0,00 578,00 0,00 0,00 0,00 0,00 0,00 63,34 31/01/2023
401 702000 ANA LUISA DE OLIVEIRA RIBEIRO ASSESSOR PROCURADOR JUSTICA BELO HORIZONTE - COMARCA; ASSESS TECNICO-JUR JUNTO AS PROC. DE JUST 1.333,00 0,00 578,00 0,00 0,00 0,00 0,00 0,00 294,86 31/01/2023
402 1496800 ANA LUISA LOPES CARMO ESTAGIARIO ITABIRITO; ITABIRITO-PJ-01PJ 0,00 0,00 0,00 120,00 0,00 0,00 0,00 0,00 0,00 31/01/2023
403 493400 ANA LUISA NOGUEIRA MOREIRA ANALISTA DO MP BELO HORIZONTE - COMARCA; BH-19PJ SAUDE-SECRETARIA 130PJ 1.333,00 0,00 578,00 0,00 0,00 0,00 0,00 0,00 655,85 31/01/2023
404 389300 ANA LUISA REUTER LIMA ANALISTA DO MP BELO HORIZONTE - COMARCA; DIRETORIA DE SISTEMAS DE INFORMACAO 1.333,00 0,00 578,00 0,00 0,00 0,00 0,00 0,00 904,79 31/01/2023
405 1235500 ANA LUISA RODRIGUES SOUSA ESTAGIARIO 0,00 0,00 0,00 96,00 1.850,00 0,00 0,00 0,00 0,00 31/01/2023
406 1422600 ANA LUIZA ALVES FERREIRA ESTAGIARIO BELO HORIZONTE; BH-23PJ INFRACIONAL-GAB 039PJ 0,00 0,00 0,00 72,00 0,00 0,00 0,00 0,00 0,00 31/01/2023
407 1391000 ANA LUIZA ANTUNES DE OLIVEIRA ESTAGIARIO NANUQUE; NANUQUE-PJ-01PJ 0,00 0,00 0,00 120,00 0,00 0,00 0,00 0,00 0,00 31/01/2023
408 1405100 ANA LUIZA CUNHA ALVES ESTAGIARIO JUIZ DE FORA; JUIZ DE FORA-PJ-18PJ 0,00 0,00 0,00 72,00 0,00 0,00 0,00 0,00 0,00 31/01/2023
409 441100 ANA LUIZA DA COSTA E CRUZ PROMOTOR 2A ENTRANCIA PEDRO LEOPOLDO - COMARCA; PEDRO LEOPOLDO-PJ-03PJ 1.333,00 0,00 3.185,95 0,00 16.002,33 0,00 0,00 0,00 488,96 31/01/2023
410 161000 ANA LUIZA DE ABREU MOREIRA PROMOT.ENTRANC.ESPECIAL BELO HORIZONTE - COMARCA; BH-03PJ EMPRESARIAL-GAB 037PJ 1.333,00 0,00 3.368,91 0,00 18.789,20 0,00 0,00 0,00 574,11 31/01/2023
411 480600 ANA LUIZA FERNANDES FRAGA E GRECO COORDENADOR I BELO HORIZONTE - COMARCA; OUVIDORIA DO MPMG 1.333,00 0,00 578,00 0,00 5.640,04 0,00 0,00 0,00 1.386,53 31/01/2023
412 726800 ANA LUIZA GOMES PEREIRA ASSESSOR ADMINISTRATIVO I BELO HORIZONTE - COMARCA; OUVIDORIA DO MPMG 1.333,00 0,00 578,00 0,00 0,00 0,00 0,00 0,00 0,00 31/01/2023
413 685400 ANA LUIZA HENRIQUES BERGER MACHADO PROMOTOR 2A ENTRANCIA ARAÇUAÍ - COMARCA; ARACUAI-PJ-01PJ 1.333,00 0,00 835,75 0,00 11.735,04 0,00 0,00 0,00 488,96 31/01/2023
414 1479700 ANA LUIZA MACHADO RODRIGUES ESTAGIARIO CARMO DA MATA; CARMO DA MATA-PJ-UNPJ 0,00 0,00 0,00 120,00 0,00 0,00 0,00 0,00 0,00 31/01/2023
415 517800 ANA LUIZA MAGALHAES CIRINO PIOTO DE MELO OFICIAL DO MP BELO HORIZONTE - COMARCA; DIVISAO DE MATERIAIS 1.333,00 1.770,60 578,00 0,00 0,00 0,00 0,00 0,00 257,20 31/01/2023
416 1311400 ANA LUIZA MENDES VIANA ESTAGIARIO BELO HORIZONTE; BH-12PJ JUIZO CRIMINAL-GAB 086PJ 0,00 0,00 0,00 96,00 0,00 0,00 0,00 0,00 0,00 31/01/2023
417 1547500 ANA LUIZA REIS MARTINS ESTAGIARIO BELO HORIZONTE; BH-02PJ FAMILIA-GAB 019PJ 0,00 0,00 0,00 96,00 0,00 0,00 0,00 0,00 0,00 31/01/2023
418 1554800 ANA LUIZA SILVA SANTIAGO ESTAGIARIO BELO HORIZONTE; GABINETE DE PROCURADOR DE JUSTIÇA - SALA 610 0,00 0,00 0,00 48,00 0,00 0,00 0,00 0,00 0,00 31/01/2023
419 1260700 ANA LUIZA SOARES BISPO ESTAGIARIO SETE LAGOAS; SETE LAGOAS-PJ-09PJ 0,00 0,00 0,00 -36,00 1.083,33 0,00 0,00 0,00 0,00 31/01/2023
420 1431000 ANA LUIZA SOARES CARDOSO ESTAGIARIO CONTAGEM; CONTAGEM-PJ-19PJ 0,00 0,00 0,00 72,00 0,00 0,00 0,00 0,00 0,00 31/01/2023
421 481400 ANA MARCIA CANDIDA FERREIRA OFICIAL DO MP BRUMADINHO - COMARCA; BRUMADINHO-PJ-02PJ 1.333,00 0,00 578,00 0,00 0,00 0,00 0,00 0,00 424,64 31/01/2023
422 114700 ANA MARIA CAMILO DA HORA E ROCHA PROMOT.ENTRANC.ESPECIAL MONTES CLAROS - COMARCA; MONTES CLAROS-PJ-05PJ 1.333,00 0,00 3.368,91 0,00 22.680,60 0,00 0,00 0,00 693,02 31/01/2023
423 1553700 ANA MARIA DA SILVA PRADO ESTAGIARIO MURIAE; MURIAE-PJ-02PJ 0,00 0,00 0,00 48,00 0,00 0,00 0,00 0,00 0,00 31/01/2023
424 1247900 ANA MARIA FONSECA ROSA ESTAGIARIO PATOS DE MINAS; PATOS DE MINAS-PJ-02PJ 0,00 0,00 0,00 36,00 0,00 0,00 0,00 0,00 0,00 31/01/2023
425 643100 ANA MARIA LOPES MIRANDA ANALISTA DO MP BELO HORIZONTE - COMARCA; CAO-FUNDACOES 1.333,00 885,30 578,00 0,00 0,00 0,00 0,00 0,00 473,41 31/01/2023
426 1446600 ANA MARIA MENDES GOULART ESTAGIARIO BELO HORIZONTE; BH-23PJ INFRACIONAL-GAB 140PJ 0,00 0,00 0,00 72,00 0,00 0,00 0,00 0,00 0,00 31/01/2023
427 556400 ANA MARIA OLIVEIRA SOUZA OFICIAL DO MP ITAPECERICA - COMARCA; ITAPECERICA-PJ-UNPJ 1.333,00 0,00 578,00 0,00 0,00 0,00 0,00 0,00 389,64 31/01/2023
428 409600 ANA OLIVIA FARIA ROSENBURG ANALISTA DO MP BELO HORIZONTE - COMARCA; DIRETORIA DO COLEGIO E DA CAMARA DE PJ 1.333,00 0,00 578,00 0,00 5.885,69 0,00 0,00 0,00 1.703,36 31/01/2023
429 461500 ANA PAULA ALVES CARVALHO ANALISTA DO MP UBERLÂNDIA - COMARCA; UBERLANDIA-PJ-25PJ 1.333,00 885,30 578,00 0,00 0,00 0,00 0,00 0,00 618,78 31/01/2023
430 523200 ANA PAULA ALVES DA SILVA OFICIAL DO MP GOVERNADOR VALADARES - COMARCA; GOVERNADOR VALADARES-PJ-10PJ 1.333,00 3.541,20 578,00 0,00 5.813,14 0,00 0,00 0,00 1.007,83 31/01/2023
431 381200 ANA PAULA BARROS PEREIRA RIGHI ANALISTA DO MP BELO HORIZONTE - COMARCA; PROC JUST ATUACAO TRIBUNAIS SUPERIORES-GAB003 1.333,00 885,30 578,00 0,00 0,00 0,00 0,00 0,00 897,37 31/01/2023
432 696400 ANA PAULA CARVALHO SILVA ASSESSOR PROMOTOR JUSTICA PERDÕES - COMARCA; PERDOES-PJ-UNPJ 1.333,00 885,30 578,00 0,00 0,00 0,00 0,00 0,00 309,76 31/01/2023
433 700900 ANA PAULA CRAVO SALOME ASSESSOR ADMINISTRATIVO I BELO HORIZONTE - COMARCA; PROCURADOR-GERAL DE JUSTIÇA 1.333,00 0,00 578,00 0,00 1.912,06 0,00 0,00 0,00 304,68 31/01/2023
434 227200 ANA PAULA DA SILVA CAMPOLINA ANALISTA DO MP BELO HORIZONTE - COMARCA; DIRETORIA DE ORCAMENTO-DIOR/SPC 1.333,00 0,00 578,00 0,00 4.937,90 0,00 0,00 0,00 2.047,05 31/01/2023
435 1438600 ANA PAULA DE SOUZA ESTAGIARIO BRASOPOLIS; BRASOPOLIS-PJ-UNPJ 0,00 0,00 0,00 120,00 0,00 0,00 0,00 0,00 0,00 31/01/2023
436 1275600 ANA PAULA DE SOUZA OLIVEIRA ESTAGIARIO MURIAE; MURIAE-PJ-07PJ 0,00 0,00 0,00 120,00 0,00 0,00 0,00 0,00 0,00 31/01/2023
437 278500 ANA PAULA DIAS CAPANEMA OFICIAL DO MP BELO HORIZONTE - COMARCA; DIRETORIA DE SEGURANCA 1.333,00 0,00 578,00 0,00 5.492,87 0,00 0,00 0,00 1.258,90 31/01/2023
438 1429200 ANA PAULA DO NASCIMENTO LAGES ESTAGIARIO BELO HORIZONTE; BH-17PJ PATRIMONIO PUBLICO-GAB 004PJ 0,00 0,00 0,00 60,00 0,00 0,00 0,00 0,00 0,00 31/01/2023
439 1364900 ANA PAULA FLORINDA MACHADO DO CARMO ESTAGIARIO UBERABA; UBERABA-PJ-15PJ 0,00 0,00 0,00 84,00 0,00 0,00 0,00 0,00 0,00 31/01/2023
440 327300 ANA PAULA GARCIA MAXIMO OFICIAL DO MP UNAÍ - COMARCA; UNAI-PJ-01PJ 1.333,00 0,00 578,00 0,00 5.400,20 0,00 0,00 0,00 1.553,36 31/01/2023
441 270000 ANA PAULA GOULART CRUZ DE MAGALHAES ANALISTA DO MP BELO HORIZONTE - COMARCA; ASSESSORIA ESPECIAL DO PGJ 1.333,00 0,00 578,00 0,00 5.349,39 0,00 0,00 0,00 1.762,27 31/01/2023
442 262100 ANA PAULA KOMATSUZAKI ABIJAUDI ANALISTA DO MP BELO HORIZONTE - COMARCA; BH-17PJ PATRIMONIO PUBLICO-SECRETARIA 1.333,00 0,00 578,00 0,00 0,00 0,00 0,00 0,00 1.328,52 31/01/2023
443 671400 ANA PAULA LIMA DA SILVA PROMOTOR 1A ENTRANCIA RIO CASCA - COMARCA; RIO CASCA-PJ-UNPJ 1.333,00 0,00 1.821,55 0,00 5.067,40 0,00 0,00 0,00 464,51 31/01/2023
444 222600 ANA PAULA LOURENCO DE PAULA PROMOTOR 2A ENTRANCIA ITUIUTABA - COMARCA; ITUIUTABA-PJ-03PJ 1.333,00 0,00 3.200,47 0,00 5.642,01 0,00 0,00 0,00 517,18 31/01/2023
445 1418000 ANA PAULA MACHADO DE OLIVEIRA ESTAGIARIO BELO HORIZONTE; BH-23PJ INFRACIONAL-GAB 142PJ 0,00 0,00 0,00 72,00 0,00 0,00 0,00 0,00 0,00 31/01/2023
446 106200 ANA PAULA MENDES RODRIGUES PROCURADOR DE JUSTICA BELO HORIZONTE - COMARCA; PROC JUSTICA DIR DIFUSOS E COLETIVOS-GAB007 1.333,00 0,00 1.392,91 0,00 0,00 0,00 0,00 0,00 0,00 31/01/2023
447 278900 ANA PAULA MOREIRA GURGEL ANALISTA DO MP BELO HORIZONTE - COMARCA; ASSESSORIA JURIDICO-ADMINISTRATIVA 1.333,00 0,00 578,00 0,00 5.673,96 0,00 0,00 0,00 2.144,88 31/01/2023
448 1446000 ANA PAULA NAGIB LATFALLA ESTAGIARIO MANHUACU; MANHUACU-PJ-05PJ 0,00 0,00 0,00 48,00 0,00 0,00 0,00 0,00 0,00 31/01/2023
449 1333700 ANA PAULA PACHECO DA SILVA ARAUJO ESTAGIARIO BELO HORIZONTE; GABINETE DE PROCURADOR DE JUSTIÇA - SALA 713 0,00 0,00 0,00 12,00 0,00 0,00 0,00 0,00 0,00 31/01/2023
450 484400 ANA PAULA RESENDE DORNELLAS DE AZEVEDO PROMOTOR SUBSTITUTO CONTAGEM - COMARCA; CONTAGEM-PJ-19PJ 1.333,00 0,00 3.040,44 0,00 5.067,40 0,00 0,00 0,00 464,51 31/01/2023
451 425701 ANA PAULA ROCHA ANALISTA DO MP BELO HORIZONTE - COMARCA; ASSESSORIA DE COMUNICACAO INTEGRADA 1.333,00 885,30 578,00 0,00 0,00 0,00 0,00 0,00 555,31 31/01/2023
452 1511700 ANA PAULA ROSA ESTAGIARIO PATROCINIO; PATROCINIO-PJ-03PJ 0,00 0,00 0,00 120,00 0,00 0,00 0,00 0,00 0,00 31/01/2023
453 395601 ANA PAULA SALGE OLIVEIRA ANALISTA DO MP UBERABA - COMARCA; UBERABA-PJ-15PJ 1.333,00 0,00 578,00 0,00 5.724,33 0,00 0,00 0,00 1.279,05 31/01/2023
454 473200 ANA PAULA SCOTTON BRASIL ANALISTA DO MP JUIZ DE FORA - COMARCA; JUIZ DE FORA-PJ-09PJ 1.333,00 0,00 578,00 0,00 0,00 0,00 0,00 0,00 695,76 31/01/2023
455 633600 ANA PAULA SILVA FERNANDES OFICIAL DO MP CATAGUASES - COMARCA; CATAGUASES-PJ-04PJ 1.333,00 0,00 578,00 0,00 0,00 0,00 0,00 0,00 294,74 31/01/2023
456 1468500 ANA PAULA TEIXEIRA ESTAGIARIO 0,00 0,00 0,00 84,00 0,00 0,00 0,00 0,00 0,00 31/01/2023
457 470900 ANA PAULA VALADARES ANALISTA DO MP PITANGUI - COMARCA; PITANGUI-PJ-01PJ 1.333,00 0,00 578,00 0,00 0,00 0,00 0,00 0,00 581,99 31/01/2023
458 447000 ANA PAULA VALENTIM DE ARAUJO ANALISTA DO MP BELO HORIZONTE - COMARCA; PROC JUST ESP ACOES COMP ORIG CRIMINAL-ASSESS 1.333,00 0,00 578,00 0,00 0,00 0,00 0,00 0,00 742,71 31/01/2023
459 604200 ANA PAULA VIANA E SILVA OFICIAL DO MP BELO HORIZONTE - COMARCA; BH-17PJ PATRIMONIO PUBLICO-SECRETARIA 1.333,00 0,00 578,00 0,00 0,00 0,00 0,00 0,00 367,71 31/01/2023
460 505400 ANA PAULA VIEIRA SOUTO OFICIAL DO MP ALMENARA - COMARCA; ALMENARA-PJ-01PJ 1.333,00 0,00 578,00 0,00 0,00 0,00 0,00 0,00 448,49 31/01/2023
461 280200 ANA RACHEL BRANDAO LADEIRA ROLAND ANALISTA DO MP BELO HORIZONTE - COMARCA; SUPERINTENDENCIA GESTÃO DE PESSOAS 1.333,00 0,00 578,00 0,00 5.478,70 0,00 0,00 0,00 1.977,01 31/01/2023
462 691000 ANA RACHEL DOS REIS E SENA COSTA ASSESSOR PROMOTOR JUSTICA BELO HORIZONTE - COMARCA; GABINETE DE PROCURADOR DE JUSTIÇA - SALA 601 1.333,00 0,00 578,00 0,00 5.971,91 0,00 0,00 0,00 879,10 31/01/2023
463 601200 ANA REGINA RIBEIRO ANALISTA DO MP BELO HORIZONTE - COMARCA; DIV FISCAL ADM CONT TERCEIRIZACAO 1.333,00 0,00 578,00 0,00 6.906,18 0,00 0,00 0,00 7.895,83 31/01/2023
464 384700 ANA RODRIGUES PEREIRA MARRA ANALISTA DO MP COROMANDEL - COMARCA; COROMANDEL-PJ-01PJ 1.333,00 885,30 578,00 0,00 5.812,40 0,00 0,00 0,00 1.228,38 31/01/2023
465 232700 ANA SILVIA SEMBLANO NAKAMURA OFICIAL DO MP BELO HORIZONTE - COMARCA; CENT DE APOIO TEC-SETOR DEF,IDOSO E INFANC 1.333,00 0,00 578,00 0,00 5.726,87 0,00 0,00 0,00 1.303,93 31/01/2023
466 1417800 ANA TARSILA MAIA CORTES ESTAGIARIO BELO HORIZONTE; BH-08PJ JUIZADO ESPECIAL-GAB 070PJ 0,00 0,00 0,00 120,00 0,00 0,00 0,00 0,00 0,00 31/01/2023
467 1437900 ANA TEREZA RIBEIRO ALFENAS ESTAGIARIO UBA; UBA-PJ-01PJ 0,00 0,00 0,00 120,00 0,00 0,00 0,00 0,00 0,00 31/01/2023
468 530300 ANA TEREZA RIBEIRO SALLES GIACOMINI PROMOTOR 2A ENTRANCIA OURO PRETO - COMARCA; OURO PRETO-PJ-02PJ 1.333,00 0,00 3.039,08 0,00 21.336,44 0,00 0,00 0,00 488,96 31/01/2023
469 1434600 ANA VIRGINIA SANTOS DEMUNER ESTAGIARIO OLIVEIRA; OLIVEIRA-PJ-02PJ 0,00 0,00 0,00 0,00 0,00 0,00 0,00 0,00 0,00 31/01/2023
470 602100 ANACLETO FRANCISCO MARCIER PIMENTA OFICIAL DO MP SÃO JOÃO DEL REI - COMARCA; SAO JOAO DEL REI-PJ-03PJ 1.333,00 1.032,85 578,00 0,00 0,00 0,00 0,00 0,00 317,31 31/01/2023
471 310400 ANADEJE DO CARMO DINIZ ARAUJO OFICIAL DO MP BELO HORIZONTE - COMARCA; DIRETORIA DE PESSOAL ADMINISTRATIVO - DPAD 1.333,00 0,00 578,00 0,00 5.724,33 0,00 0,00 0,00 1.170,60 31/01/2023
472 337000 ANAILDES MARIA MENDES OFICIAL DO MP JANAÚBA - COMARCA; JANAUBA-PJ-02PJ 1.333,00 885,30 578,00 0,00 5.724,33 0,00 0,00 0,00 1.356,93 31/01/2023
473 1417400 ANALU BATISTA TORQUATO ARAUJO ESTAGIARIO BELO HORIZONTE; PROC JUST ESP ACOES COMP ORIG CRIMINAL-ASSESS 0,00 0,00 0,00 120,00 0,00 0,00 0,00 0,00 0,00 31/01/2023
474 192900 ANATALIA CERQUEIRA LIMA PERES OFICIAL DO MP UBERABA - COMARCA; COORD REG SAUDE MACROR SANIT TRIANGULO SUL 1.333,00 0,00 578,00 0,00 5.400,20 0,00 0,00 0,00 1.366,16 31/01/2023
475 377400 ANDEIRSON DA MATTA BARBOSA ANALISTA DO MP POUSO ALEGRE - COMARCA; POUSO ALEGRE-PJ-01PJ 1.333,00 885,30 578,00 0,00 5.812,40 0,00 0,00 0,00 1.229,19 31/01/2023
476 720100 ANDERSON CHINEN RUIZ PROMOTOR SUBSTITUTO BELO HORIZONTE - COMARCA; BH-13PJ JUIZO DE TOXICOS-GAB 164PJ 1.333,00 0,00 2.298,70 0,00 0,00 0,00 0,00 0,00 0,00 31/01/2023
477 317400 ANDERSON DA SILVA BICALHO OFICIAL DO MP CONTAGEM - COMARCA; CONTAGEM-PJ-SECRETARIA 1.333,00 0,00 578,00 0,00 0,00 0,00 0,00 0,00 623,63 31/01/2023
478 506900 ANDERSON DE SOUZA DAMIANI ANALISTA DO MP BELO HORIZONTE - COMARCA; DIRETORIA DE PAGAMENTO DE PESSOAL-DPAG 1.333,00 0,00 578,00 0,00 5.390,15 0,00 0,00 0,00 1.185,29 31/01/2023
479 410000 ANDERSON DE SOUZA NETO ASSESSOR ADMINISTRATIVO II BELO HORIZONTE - COMARCA; DIRETORIA DE ADMINISTRACAO FINANCEIRA 1.333,00 0,00 578,00 0,00 5.891,30 0,00 0,00 0,00 813,18 31/01/2023
480 1300000 ANDERSON EDUARDO DOS SANTOS PEDRO ESTAGIARIO TRES CORACOES; TRES CORACOES-PJ-02PJ 0,00 0,00 0,00 108,00 0,00 0,00 0,00 0,00 0,00 31/01/2023
481 181900 ANDERSON FLAVIO DE OLIVEIRA OFICIAL DO MP ITAGUARA - COMARCA; ITAGUARA-PJ-SECRETARIA 1.333,00 0,00 578,00 0,00 0,00 0,00 0,00 0,00 1.088,66 31/01/2023
482 333200 ANDERSON JOSE DE FREITAS OFICIAL DO MP IPATINGA - COMARCA; IPATINGA-PJ-04PJ 1.333,00 885,30 578,00 0,00 5.720,70 0,00 1.580,00 0,00 1.371,39 31/01/2023
483 699400 ANDERSON LUIZ CABRAL ASSESSOR PROMOTOR JUSTICA ALÉM PARAÍBA - COMARCA; ALEM PARAIBA-PJ-03PJ 1.333,00 0,00 578,00 0,00 0,00 0,00 0,00 0,00 309,76 31/01/2023
484 462100 ANDERSON LUIZ GUIMARAES CARDOSO ANALISTA DO MP BARBACENA - COMARCA; BARBACENA-PJ-02PJ 1.333,00 0,00 578,00 0,00 5.763,61 0,00 0,00 0,00 1.312,52 31/01/2023
485 429700 ANDERSON MELO DE SOUZA ASSESSOR ADMINISTRATIVO IV BELO HORIZONTE - COMARCA; DIRET DE ESTAGIOS E CONVENIOS ACADEMICOS 1.333,00 0,00 578,00 0,00 5.581,85 0,00 0,00 0,00 1.238,42 31/01/2023
486 545600 ANDERSON MENDES PROCOPIO FERREIRA ANALISTA DO MP BELO HORIZONTE - COMARCA; BH-12PJ JUIZO CRIMINAL-GAB 089PJ 1.333,00 0,00 578,00 0,00 5.812,40 0,00 0,00 0,00 1.158,12 31/01/2023
487 519900 ANDERSON MOREIRA DOEHLER ANALISTA DO MP TEÓFILO OTONI - COMARCA; COORD REG SAUDE MACRORREGIAO SANIT NORDESTE 1.333,00 0,00 578,00 0,00 0,00 0,00 0,00 0,00 684,90 31/01/2023
488 1379900 ANDERSON NASCIMENTO DOS SANTOS ESTAGIARIO MARIANA; MARIANA-PJ-01PJ 0,00 0,00 0,00 120,00 0,00 0,00 0,00 0,00 0,00 31/01/2023
489 103000 ANDERSON TADEU DE DEUS ASSESSOR ADMINISTRATIVO II BELO HORIZONTE - COMARCA; BH-26 CRIME CONT CRIAN ADOL-SECRETARIA 1.333,00 0,00 578,00 0,00 3.793,64 0,00 0,00 0,00 363,39 31/01/2023
490 652500 ANDERSON TADEU LOPES INVESTIGADOR DE POLICIA 2 CONTAGEM - COMARCA; COORD REG DEF ORDEM ECON TRIB CONTAGEM 1.333,00 0,00 0,00 0,00 0,00 0,00 0,00 0,00 0,00 31/01/2023
491 309200 ANDITYAS SOARES DE MOURA COSTA MATOS ANALISTA DO MP BELO HORIZONTE - COMARCA; GABINETE DE PROCURADOR DE JUSTIÇA - SALA 909 1.333,00 0,00 578,00 0,00 0,00 0,00 0,00 0,00 996,27 31/01/2023
492 1471100 ANDRE BAMBIRRA DE PAULA REIS ESTAGIARIO BELO HORIZONTE; GABINETE DE PROCURADOR DE JUSTIÇA - SALA 715 0,00 0,00 0,00 96,00 0,00 0,00 0,00 0,00 0,00 31/01/2023
493 519200 ANDRE BORJA LANA ANALISTA DO MP BELO HORIZONTE - COMARCA; DIR CONTEUDO JORNALISTICO 1.333,00 0,00 578,00 0,00 0,00 0,00 0,00 0,00 1.419,49 31/01/2023
494 486000 ANDRE CARDOSO CAVALCANTI PROMOTOR 2A ENTRANCIA ITAJUBA - COMARCA; ITAJUBA-PJ-02PJ 1.333,00 0,00 3.200,47 0,00 16.002,33 0,00 0,00 0,00 488,96 31/01/2023
495 1512600 ANDRE CHAVES REIS ESTAGIARIO BELO HORIZONTE; GABINETE DE PROCURADOR DE JUSTIÇA - SALA 407 0,00 0,00 0,00 48,00 0,00 0,00 0,00 0,00 0,00 31/01/2023
496 224900 ANDRE CHIO MAXIMO PROMOT.ENTRANC.ESPECIAL VESPASIANO - COMARCA; VESPASIANO-PJ-02PJ 1.333,00 0,00 3.368,91 0,00 5.907,36 0,00 0,00 0,00 541,51 31/01/2023
497 1526200 ANDRE DA SILVA RODRIGUES ESTAGIARIO IBIRITE; IBIRITE-PJ-04PJ 0,00 0,00 0,00 84,00 0,00 0,00 0,00 0,00 0,00 31/01/2023
498 102400 ANDRE DE OLIVEIRA ANDRADE PROMOT.ENTRANC.ESPECIAL BELO HORIZONTE - COMARCA; BH-02PJ FAMILIA-GAB 030PJ 1.333,00 0,00 3.368,91 0,00 7.560,20 0,00 0,00 0,00 693,02 31/01/2023
499 656000 ANDRE DE OLIVEIRA SOUSA INVESTIGADOR DE POLICIA 2 BELO HORIZONTE - COMARCA; GAECO - SETOR POLICIAL CIVIL 1.333,00 0,00 0,00 0,00 0,00 0,00 0,00 0,00 0,00 31/01/2023
500 79200 ANDRE ESTEVAO UBALDINO PEREIRA PROCURADOR DE JUSTICA BELO HORIZONTE - COMARCA; GABINETE DE PROCURADOR DE JUSTIÇA - SALA 502 1.333,00 0,00 3.546,22 0,00 16.632,44 0,00 0,00 0,00 693,02 31/01/2023
501 1519800 ANDRE FELIPE MURTA LEMES ESTAGIARIO NOVA LIMA; NOVA LIMA-PJ-03PJ 0,00 0,00 0,00 120,00 0,00 0,00 0,00 0,00 0,00 31/01/2023
502 1489700 ANDRE FELIPE REIS MENDES ESTAGIARIO BELO HORIZONTE; BH-09PJ AUDITORIA MILITAR-GAB 074PJ 0,00 0,00 0,00 96,00 0,00 0,00 0,00 0,00 0,00 31/01/2023
503 637200 ANDRE FERNANDES DA CUNHA OFICIAL DO MP MORADA NOVA DE MINAS - COMARCA; MORADA NOVA DE MINAS-PJ-UNPJ 1.333,00 0,00 578,00 0,00 0,00 0,00 0,00 0,00 304,05 31/01/2023
504 162800 ANDRE FERNANDO COLUCCO PROMOTOR 2A ENTRANCIA CASSIA - COMARCA; CASSIA-PJ-02PJ 1.333,00 0,00 3.200,47 0,00 23.676,48 0,00 0,00 0,00 542,59 31/01/2023
505 651500 ANDRE GONCALVES MARANHAO OFICIAL DO MP ANDRADAS - COMARCA; ANDRADAS-PJ-02PJ 1.333,00 0,00 578,00 0,00 0,00 0,00 0,00 0,00 261,80 31/01/2023
506 439200 ANDRE LEITE DE ALMEIDA PROMOT.ENTRANC.ESPECIAL VESPASIANO - COMARCA; VESPASIANO-PJ-03PJ 1.333,00 0,00 1.570,19 0,00 10.106,73 0,00 0,00 0,00 0,00 31/01/2023
507 166900 ANDRE LUIS ALVES DE MELO PROMOTOR 2A ENTRANCIA ARAGUARI - COMARCA; ARAGUARI-PJ-01PJ 1.333,00 0,00 3.200,47 0,00 11.838,24 0,00 0,00 0,00 0,00 31/01/2023
508 85000 ANDRE LUIS GARCIA DE PINHO PROMOT.ENTRANC.ESPECIAL BELO HORIZONTE - COMARCA; SUPER DE GESTAO DE PESSOAS-EM DISPONIBILIDADE 0,00 0,00 2.875,25 0,00 0,00 0,00 0,00 0,00 0,00 31/01/2023
509 521900 ANDRE LUIS GOMES SILVA ANALISTA DO MP FORMIGA - COMARCA; FORMIGA-PJ-02PJ 1.333,00 1.770,60 578,00 0,00 5.812,40 0,00 0,00 0,00 1.119,22 31/01/2023
510 340800 ANDRE LUIS MACHADO ARANTES PROMOTOR 2A ENTRANCIA PARÁ DE MINAS - COMARCA; PARA DE MINAS-PJ-05PJ 1.333,00 0,00 3.368,91 0,00 16.844,55 0,00 0,00 0,00 2.199,15 31/01/2023
511 1551400 ANDRE LUIS RESENDE ESTAGIARIO DIVINOPOLIS; DIVINOPOLIS-PJ-01PJ 0,00 0,00 0,00 48,00 0,00 0,00 0,00 0,00 0,00 31/01/2023
512 304300 ANDRE LUIZ AVELAR ANALISTA DO MP BELO HORIZONTE - COMARCA; DIRETORIA DE REDES E BANCOS DE DADOS 1.333,00 0,00 578,00 0,00 0,00 0,00 0,00 0,00 512,67 31/01/2023
513 666100 ANDRE LUIZ FERREIRA VALADARES PROMOTOR 2A ENTRANCIA VARZEA DA PALMA - COMARCA; VARZEA DA PALMA-PJ-02PJ 1.333,00 0,00 1.931,75 0,00 16.002,33 0,00 0,00 0,00 488,96 31/01/2023
514 530200 ANDRE LUIZ NOLLI MERRIGHI PROMOT.ENTRANC.ESPECIAL SETE LAGOAS - COMARCA; SETE LAGOAS-PJ-03PJ 1.333,00 0,00 3.368,91 0,00 16.844,55 0,00 0,00 0,00 514,69 31/01/2023
515 718800 ANDRE OBERG LEMOS PROMOTOR SUBSTITUTO GRAO MOGOL - COMARCA; GRAO MOGOL-PJ-UNPJ 1.333,00 0,00 3.040,44 0,00 0,00 0,00 0,00 0,00 0,00 31/01/2023
516 397400 ANDRE PATARO MYRRHA DE PAULA E SILVA ANALISTA DO MP BELO HORIZONTE - COMARCA; ASSESSORIA JURIDICO-ADMINISTRATIVA 1.333,00 885,30 578,00 0,00 5.609,76 0,00 0,00 0,00 1.523,40 31/01/2023
517 533200 ANDRE PEREIRA MAFIA PROMOTOR 2A ENTRANCIA ALÉM PARAÍBA - COMARCA; ALEM PARAIBA-PJ-01PJ 1.333,00 0,00 886,40 0,00 8.534,58 0,00 0,00 0,00 488,96 31/01/2023
518 441200 ANDRE SALLES DIAS PINTO PROMOTOR 2A ENTRANCIA IGARAPÉ - COMARCA; IGARAPE-PJ-01PJ 1.333,00 0,00 3.200,47 0,00 12.801,86 0,00 0,00 0,00 488,96 31/01/2023
519 237800 ANDRE SILVARES VASCONCELOS PROMOTOR 2A ENTRANCIA PIUMHI - COMARCA; PIUMHI-PJ-02PJ 1.333,00 0,00 2.963,10 0,00 16.926,03 0,00 0,00 0,00 517,18 31/01/2023
520 231800 ANDRE SPERLING PRADO PROMOT.ENTRANC.ESPECIAL BELO HORIZONTE - COMARCA; BH-19PJ SAUDE-GAB 047PJ 1.333,00 0,00 3.292,33 0,00 7.515,68 0,00 0,00 0,00 574,11 31/01/2023
521 666300 ANDRE TANURE DOMINGUES FIGUEIREDO PROMOTOR 2A ENTRANCIA PONTE NOVA - COMARCA; PONTE NOVA-PJ-05PJ 1.333,00 0,00 2.818,72 0,00 5.334,11 0,00 0,00 0,00 488,96 31/01/2023
522 650100 ANDRE THOME VARGAS OFICIAL DO MP LEOPOLDINA - COMARCA; LEOPOLDINA-PJ-04PJ 1.333,00 0,00 578,00 0,00 5.960,06 0,00 0,00 0,00 870,36 31/01/2023
523 231600 ANDRE TUMA DELBIM FERREIRA PROMOT.ENTRANC.ESPECIAL UBERABA - COMARCA; UBERABA-PJ-10PJ 1.333,00 0,00 1.063,68 0,00 17.816,88 0,00 0,00 0,00 544,40 31/01/2023
524 671500 ANDRE VALDERRAMAS FRANCO PROMOTOR SUBSTITUTO MONTE CARMELO - COMARCA; MONTE CARMELO-PJ-02PJ 1.333,00 0,00 835,75 0,00 15.202,21 0,00 0,00 0,00 464,51 31/01/2023
525 548500 ANDRE VINICIUS CARVALHO MEIRA ANALISTA DO MP JUIZ DE FORA - COMARCA; JUIZ DE FORA-PJ-24PJ 1.333,00 0,00 578,00 0,00 0,00 0,00 0,00 0,00 589,95 31/01/2023
526 297200 ANDRE WILLE ROSARIO ANALISTA DO MP BELO HORIZONTE - COMARCA; ASSESSORIA ESPECIAL DO PGJ 1.333,00 0,00 578,00 0,00 5.349,39 0,00 0,00 0,00 1.881,85 31/01/2023
527 224500 ANDREA BASILIO GONCALVES GOLLOP PROMOT.ENTRANC.ESPECIAL BELO HORIZONTE - COMARCA; BH-18PJ VIOLENCIA DOMESTICA-GAB 186PJ 1.333,00 0,00 3.368,91 0,00 0,00 0,00 0,00 0,00 0,00 31/01/2023
528 666400 ANDREA CLEMENTE BARBOSA DE SOUZA PROMOTOR SUBSTITUTO ITAÚNA - COMARCA; ITAUNA-PJ-03PJ 1.333,00 0,00 2.982,52 0,00 5.067,40 0,00 0,00 0,00 464,51 31/01/2023
529 423600 ANDREA COSTA GUALBERTO ALVES ANALISTA DO MP GOVERNADOR VALADARES - COMARCA; COORD REG PJ DEF EDU DIR CRIANCA ADOL RIODOCE 1.333,00 0,00 578,00 0,00 0,00 0,00 0,00 0,00 1.191,54 31/01/2023
530 230600 ANDREA CRISTINA CALDAS SANTIAGO PROMOT.ENTRANC.ESPECIAL CONSELHEIRO LAFAIETE - COMARCA; CONSELHEIRO LAFAIETE-PJ-07PJ 1.333,00 0,00 1.899,42 0,00 0,00 0,00 0,00 0,00 0,00 31/01/2023
531 467300 ANDREA DE CASSIA PENNA ALVERNAZ ANALISTA DO MP PONTE NOVA - COMARCA; PONTE NOVA-PJ-01PJ 1.333,00 0,00 578,00 0,00 5.812,40 0,00 0,00 0,00 1.178,07 31/01/2023
532 308000 ANDREA DE CASSIA SANTOS OLIVEIRA ANALISTA DO MP BELO HORIZONTE - COMARCA; COORD DE GABINETE DO PGJ 1.333,00 0,00 578,00 0,00 0,00 0,00 0,00 0,00 1.529,34 31/01/2023
533 106300 ANDREA DE FIGUEIREDO SOARES PROCURADOR DE JUSTICA BELO HORIZONTE - COMARCA; GABINETE DE PROCURADOR DE JUSTIÇA - SALA 709 1.333,00 0,00 3.546,22 0,00 7.560,20 0,00 0,00 0,00 693,02 31/01/2023
534 349500 ANDREA DE OLIVEIRA LOIOLA REGIS OFICIAL DO MP IGUATAMA - COMARCA; IGUATAMA-PJ-UNPJ 1.333,00 0,00 578,00 0,00 0,00 0,00 0,00 0,00 708,49 31/01/2023
535 287900 ANDREA FERNANDES PENA MARTINS OFICIAL DO MP MONTES CLAROS - COMARCA; MONTES CLAROS-PJ-09PJ 1.333,00 0,00 578,00 0,00 5.724,33 0,00 0,00 0,00 1.240,04 31/01/2023
536 300800 ANDREA FERREIRA ANALISTA DO MP LAVRAS - COMARCA; LAVRAS-PJ-04PJ 1.333,00 0,00 578,00 0,00 0,00 0,00 0,00 0,00 1.268,41 31/01/2023
537 395100 ANDREA LANNA MENDES NOVAIS ANALISTA DO MP BELO HORIZONTE - COMARCA; PROMOT ESTADUAL DE DEF PATRI CULT E TUR DE MG 1.333,00 0,00 578,00 0,00 0,00 0,00 0,00 0,00 907,23 31/01/2023
538 67300 ANDREA LEAO MAGALHAES ROQUE ASSESSOR ADMINISTRATIVO IV BELO HORIZONTE - COMARCA; COORD ESTADUAL COMBATE CRIMES CIBERNETICOS 1.333,00 0,00 578,00 0,00 0,00 0,00 0,00 0,00 861,20 31/01/2023
539 335700 ANDREA LOPES PEREIRA ANALISTA DO MP GOVERNADOR VALADARES - COMARCA; COORD REG DO MA DA BACIA DO RIO DOCE 1.333,00 0,00 578,00 0,00 0,00 0,00 0,00 0,00 1.214,23 31/01/2023
540 224700 ANDREA MARIA NESSRALLA BAHURY PROMOT.ENTRANC.ESPECIAL BELO HORIZONTE - COMARCA; BH-12PJ JUIZO CRIMINAL-GAB 089PJ 1.333,00 0,00 3.368,91 0,00 0,00 0,00 0,00 0,00 0,00 31/01/2023
541 167000 ANDREA MISMOTTO CARELLI PROMOT.ENTRANC.ESPECIAL BELO HORIZONTE - COMARCA; BH-26 CRIME CONT CRIAN ADOL-GAB 048PJ 1.333,00 0,00 1.164,98 0,00 6.263,07 0,00 0,00 0,00 574,11 31/01/2023
542 1436600 ANDREA ROSA DE SOUSA ESTAGIARIO TEOFILO OTONI; TEOFILO OTONI-PJ-04PJ 0,00 0,00 0,00 84,00 0,00 0,00 0,00 0,00 0,00 31/01/2023
543 389200 ANDREA TUPINI DOS SANTOS TRISTAO DA ROCHA GESTOR ADM. SECRETARIA IV BELO HORIZONTE - COMARCA; BH-13ª PJ JUÍZO DE TÓXICOS-SECRETARIA 1.333,00 0,00 578,00 0,00 0,00 0,00 0,00 0,00 751,29 31/01/2023
544 419000 ANDREIA BARBOSA DE ALMEIDA ANALISTA DO MP BELO HORIZONTE - COMARCA; SUPER DE RECURSOS HUMANOS-COOP REMOTA 1.333,00 0,00 578,00 0,00 5.261,61 0,00 0,00 0,00 1.444,39 31/01/2023
545 281501 ANDREIA CARLA COSTA ANALISTA DO MP UBÁ - COMARCA; UBA-PJ-02PJ 1.333,00 0,00 578,00 0,00 5.432,94 0,00 0,00 0,00 1.567,78 31/01/2023
546 477100 ANDREIA DE ALMEIDA RIBEIRO MELO OFICIAL DO MP CONTAGEM - COMARCA; CONTAGEM-PJ-SECRETARIA 1.333,00 0,00 578,00 0,00 0,00 0,00 0,00 0,00 531,67 31/01/2023
547 619000 ANDREIA FERREIRA NORONHA COORDENADOR II BELO HORIZONTE - COMARCA; DIRETORIA DE SERVICO CRIMINAL 1.333,00 0,00 578,00 0,00 5.640,21 0,00 0,00 0,00 1.362,06 31/01/2023
548 424000 ANDREIA LUCIA COUTO ANALISTA DO MP BELO HORIZONTE - COMARCA; BH-18PJ DIREITOS HUMANOS-SECRETARIA 1.333,00 0,00 578,00 0,00 0,00 0,00 0,00 0,00 1.016,86 31/01/2023
549 370100 ANDREIA MARIA SILVA PINTO OFICIAL DO MP CORONEL FABRICIANO - COMARCA; CORONEL FABRICIANO-PJ-01PJ 1.333,00 885,30 578,00 0,00 0,00 0,00 0,00 0,00 688,60 31/01/2023
550 382100 ANDREIA NATALI PEREIRA DE OLIVEIRA OFICIAL DO MP PRADOS - COMARCA; PRADOS-PJ-UNPJ 1.333,00 0,00 578,00 0,00 0,00 0,00 0,00 0,00 576,19 31/01/2023
551 198701 ANDREIA NUNES DURAES PROMOTOR 2A ENTRANCIA BOCAIÚVA - COMARCA; BOCAIUVA-PJ-02PJ 1.333,00 0,00 0,00 0,00 16.002,33 0,00 0,00 0,00 488,96 31/01/2023
552 275200 ANDREIA RIBEIRO FREITAS OFICIAL DO MP VIÇOSA - COMARCA; VICOSA-PJ-04PJ 1.333,00 0,00 578,00 0,00 0,00 0,00 0,00 0,00 687,24 31/01/2023
553 352200 ANDREIA XAVIER PEREIRA OFICIAL DO MP CLÁUDIO - COMARCA; CLAUDIO-PJ-UNPJ 1.333,00 1.327,95 578,00 0,00 5.724,33 0,00 0,00 0,00 1.262,30 31/01/2023
554 638500 ANDRESA ALVES FEITOSA CASAGRANDE ANALISTA DO MP LAVRAS - COMARCA; COORD REG DO MA DA BACIA DO RIO GRANDE 1.333,00 0,00 578,00 0,00 0,00 0,00 0,00 0,00 506,22 31/01/2023
555 1331800 ANDRESSA ALBUQUERQUE BATISTA ESTAGIARIO JUIZ DE FORA; JUIZ DE FORA-PJ-15PJ 0,00 0,00 0,00 120,00 0,00 0,00 0,00 0,00 0,00 31/01/2023
556 1466400 ANDRESSA BARROS TOMAZ ESTAGIARIO ITUMIRIM; ITUMIRIM-PJ-UNPJ 0,00 0,00 0,00 96,00 0,00 0,00 0,00 0,00 0,00 31/01/2023
557 1523900 ANDRESSA CRISTINA MARTINS PEREIRA ESTAGIARIO 0,00 0,00 0,00 72,00 0,00 0,00 0,00 0,00 0,00 31/01/2023
558 1475200 ANDRESSA DA SILVA COUTO ESTAGIARIO BELO HORIZONTE; GABINETE DE PROCURADOR DE JUSTIÇA - SALA 702 0,00 0,00 0,00 24,00 0,00 0,00 0,00 0,00 0,00 31/01/2023
559 210000 ANDRESSA DE OLIVEIRA LANCHOTTI PROMOT.ENTRANC.ESPECIAL BELO HORIZONTE - COMARCA; BH-12PJ JUIZO CRIMINAL-GAB 104PJ 1.333,00 0,00 3.368,91 0,00 5.922,75 0,00 0,00 0,00 542,92 31/01/2023
560 1372300 ANDRESSA DE OLIVEIRA RESENDE ESTAGIARIO ARAGUARI; ARAGUARI-PJ-06PJ 0,00 0,00 0,00 60,00 0,00 0,00 0,00 0,00 0,00 31/01/2023
561 383700 ANDRESSA EDUARDO SOUZA ANALISTA DO MP OURO BRANCO - COMARCA; OURO BRANCO-PJ-SECRETARIA 1.333,00 885,30 578,00 0,00 0,00 0,00 0,00 0,00 877,57 31/01/2023
562 1393200 ANDRESSA ESTEVAO ESTAGIARIO POUSO ALEGRE; POUSO ALEGRE-PJ-04PJ 0,00 0,00 0,00 108,00 0,00 0,00 0,00 0,00 0,00 31/01/2023
563 485500 ANDRESSA ISABELLE FERREIRA BARRETO PROMOTOR 2A ENTRANCIA CONCEICAO DAS ALAGOAS - COMARCA; CONCEICAO DAS ALAGOAS-PJ-02PJ 1.333,00 0,00 3.200,47 0,00 16.002,33 0,00 0,00 0,00 488,96 31/01/2023
564 678400 ANDRESSA LUIZA SILVA LOPES ASSESSOR PROMOTOR JUSTICA CARMO DO PARANAÍBA - COMARCA; CARMO DO PARANAIBA-PJ-02PJ 1.333,00 0,00 578,00 0,00 0,00 0,00 0,00 0,00 323,69 31/01/2023
565 426200 ANDRESSA MENDES CASAL OFICIAL DO MP BELO HORIZONTE - COMARCA; DIR ESTRUTURA E PROCESSOS ORGANIZACIONAIS 1.333,00 885,30 578,00 0,00 0,00 0,00 0,00 0,00 462,26 31/01/2023
566 390100 ANDRESSA RIBEIRO PUCCI OFICIAL DO MP UBERABA - COMARCA; UBERABA-PJ-14PJ 1.333,00 0,00 578,00 0,00 5.629,85 0,00 0,00 0,00 979,60 31/01/2023
567 1537800 ANDRESSA VILELA FERREIRA ESTAGIARIO ITUIUTABA; ITUIUTABA-PJ-01PJ 0,00 0,00 0,00 120,00 0,00 0,00 0,00 0,00 0,00 31/01/2023
568 462500 ANDREZA APARECIDA COSTA E SILVA ANALISTA DO MP CONSELHEIRO LAFAIETE - COMARCA; CONSELHEIRO LAFAIETE-PJ-02PJ 1.333,00 2.301,78 578,00 0,00 0,00 0,00 0,00 0,00 636,54 31/01/2023
569 1406200 ANDREZA APARECIDA RABELO BELO ESTAGIARIO ITAGUARA; ITAGUARA-PJ-UNPJ 0,00 0,00 0,00 120,00 0,00 0,00 0,00 0,00 0,00 31/01/2023
570 1515300 ANDREZA CRISTINA DA SILVA SOUZA ESTAGIARIO BELO HORIZONTE; BH-19PJ SAUDE-SECRETARIA 047PJ 0,00 0,00 0,00 48,00 0,00 0,00 0,00 0,00 0,00 31/01/2023
571 677700 ANDREZA DE LOURDES FERREIRA DE PAIVA ASSESSOR PROMOTOR JUSTICA ABRE CAMPO - COMARCA; ABRE CAMPO-PJ-01PJ 1.333,00 0,00 578,00 0,00 1.885,86 0,00 0,00 0,00 496,56 31/01/2023
572 1483200 ANDREZA FARIA MOSELI ESTAGIARIO VARGINHA; VARGINHA-PJ-04PJ
573 1447600 ANDREZZA CRISTINA DIAS DE ANDRADE ESTAGIARIO SANTOS DUMONT; SANTOS DUMONT-PJ-01PJ 0,00 0,00 0,00 120,00 0,00 0,00 0,00 0,00 0,00 31/01/2023
574 537800 ANDREZZA LUZIA DE OLIVEIRA ALVES ANALISTA DO MP PATOS DE MINAS - COMARCA; COORD REG PJ DEF EDU DIR CRI ADO AL PAR NOROE 1.333,00 0,00 578,00 0,00 5.812,40 0,00 0,00 0,00 1.111,88 31/01/2023
575 491600 ANE PATRICIA RIBEIRO DUARTE ANALISTA DO MP SETE LAGOAS - COMARCA; SETE LAGOAS-PJ-11PJ 1.333,00 0,00 578,00 0,00 0,00 0,00 0,00 0,00 577,15 31/01/2023
576 361900 ANELISA CARDOSO RIBEIRO PROMOT.ENTRANC.ESPECIAL CONTAGEM - COMARCA; CONTAGEM-PJ-05PJ 1.333,00 0,00 2.076,71 0,00 16.844,55 0,00 0,00 0,00 514,69 31/01/2023
577 465800 ANELISE GAMA ASSESSOR ADMINISTRATIVO III BELO HORIZONTE - COMARCA; BH-18PJ VIOLENCIA DOMESTICA-SECRETARIA 1.333,00 0,00 578,00 0,00 0,00 0,00 0,00 0,00 391,73 31/01/2023
578 535200 ANELIZE FERNANDA ALVES VILARINHO OFICIAL DO MP CAPINÓPOLIS - COMARCA; CAPINOPOLIS-PJ-UNPJ 1.333,00 885,30 578,00 0,00 5.891,30 0,00 0,00 0,00 977,43 31/01/2023
579 197200 ANGELA COELHO SALDANHA OFICIAL DO MP PARÁ DE MINAS - COMARCA; PARA DE MINAS-PJ-03PJ 1.333,00 0,00 578,00 0,00 0,00 0,00 0,00 0,00 1.276,04 31/01/2023
580 307400 ANGELA CRISTINA GONCALVES MUNIZ ANALISTA DO MP UBERLÂNDIA - COMARCA; UBERLANDIA-PJ-SEC FAMILIA 1.333,00 0,00 578,00 0,00 0,00 0,00 0,00 0,00 1.238,11 31/01/2023
581 157100 ANGELA FABERO PROMOT.ENTRANC.ESPECIAL BELO HORIZONTE - COMARCA; BH-23PJ INFRACIONAL-GAB 145PJ 1.333,00 0,00 3.368,91 0,00 30.240,80 0,00 0,00 0,00 693,02 31/01/2023
582 191800 ANGELA MARIA DE OLIVEIRA OFICIAL DO MP GUARANÉSIA - COMARCA; GUARANESIA-PJ-SECRETARIA 1.333,00 0,00 578,00 0,00 0,00 0,00 0,00 0,00 1.786,01 31/01/2023
583 497400 ANGELA MARIA HENRIQUES ANALISTA DO MP BELO HORIZONTE - COMARCA; COORD REG BACIAS RIO VELHAS E PARAOPEBA 1.333,00 0,00 578,00 0,00 5.812,40 0,00 0,00 0,00 1.213,42 31/01/2023
584 54600 ANGELA MARIA PEREIRA GRAVINA PROMOT.ENTRANC.ESPECIAL JUIZ DE FORA - COMARCA; JUIZ DE FORA-PJ-11PJ 1.333,00 0,00 2.081,99 0,00 7.560,20 0,00 0,00 0,00 693,02 31/01/2023
585 1482400 ANGELI COSTA MARTINS ESTAGIARIO ARAGUARI; ARAGUARI-PJ-04PJ 0,00 0,00 0,00 120,00 0,00 0,00 0,00 0,00 0,00 31/01/2023
586 260700 ANGELICA CRISTINA AZEVEDO MOREIRA MOUCO OFICIAL DO MP UBÁ - COMARCA; UBA-PJ-05PJ 1.333,00 0,00 578,00 0,00 5.700,08 0,00 0,00 0,00 1.528,65 31/01/2023
587 1252800 ANGELICA DE SOUZA CORTES ESTAGIARIO GOVERNADOR VALADARES; GOVERNADOR VALADARES-PJ-12PJ 0,00 0,00 0,00 12,00 0,00 0,00 0,00 0,00 0,00 31/01/2023
588 708300 ANGELICA NUNES VIEIRA DA SILVA ASSESSOR PROMOTOR JUSTICA IBIRITÉ - COMARCA; IBIRITE-PJ-02PJ 1.333,00 0,00 578,00 0,00 0,00 0,00 0,00 0,00 255,33 31/01/2023
589 334600 ANGELICA PANISSA DE FREITAS GALLATI OFICIAL DO MP GUAXUPÉ - COMARCA; GUAXUPE-PJ-02PJ 1.333,00 885,30 578,00 0,00 5.724,33 0,00 0,00 0,00 1.278,37 31/01/2023
590 660400 ANGELICA POLLYANA QUEIROZ DE MEDEIROS PROMOTOR 2A ENTRANCIA FRUTAL - COMARCA; FRUTAL-PJ-01PJ 1.333,00 0,00 886,40 0,00 16.002,33 0,00 0,00 0,00 488,96 31/01/2023
591 521100 ANGELICA SALES MOREIRA OFICIAL DO MP BELO HORIZONTE - COMARCA; BH-02PJ FAMILIA-SECRETARIA 1.333,00 0,00 578,00 0,00 5.813,14 0,00 0,00 0,00 1.038,33 31/01/2023
592 1477400 ANGELICA SILVA LEMOS SANTOS ESTAGIARIO DIVINOPOLIS; DIVINOPOLIS-PJ-13PJ 0,00 0,00 0,00 48,00 0,00 0,00 0,00 0,00 0,00 31/01/2023
593 466500 ANGELLO MARQUES AGRELLI ANALISTA DO MP MAR DE ESPANHA - COMARCA; MAR DE ESPANHA-PJ-UNPJ 1.333,00 0,00 578,00 0,00 0,00 0,00 0,00 0,00 582,16 31/01/2023
594 222700 ANGELO ALEXANDRE MARZANO PROMOT.ENTRANC.ESPECIAL BELO HORIZONTE - COMARCA; BH-PJ AUXILIAR-GAB 141PJ 1.333,00 0,00 2.912,45 0,00 20.501,66 0,00 0,00 0,00 626,44 31/01/2023
595 167100 ANGELO ANSANELLI JUNIOR PROMOTOR 2A ENTRANCIA FORMIGA - COMARCA; FORMIGA-PJ-02PJ 1.333,00 0,00 3.200,47 0,00 7.139,89 0,00 0,00 0,00 545,41 31/01/2023
596 363300 ANGELO VERDOLIN HENRIQUES ANALISTA DO MP SETE LAGOAS - COMARCA; SETE LAGOAS-PJ-04PJ 1.333,00 0,00 578,00 0,00 0,00 0,00 0,00 0,00 1.429,30 31/01/2023
597 267600 ANIBAL TAMAOKI PROMOT.ENTRANC.ESPECIAL BELO HORIZONTE - COMARCA; BH-18PJ VIOLENCIA DOMESTICA-GAB 053PJ 1.333,00 0,00 3.368,91 0,00 11.229,70 0,00 0,00 0,00 514,69 31/01/2023
598 1430100 ANIELLE FERNANDA EDUARDO SILVA ESTAGIARIO ITABIRA; ITABIRA-PJ-01PJ 0,00 0,00 0,00 120,00 0,00 0,00 0,00 0,00 0,00 31/01/2023
599 1525200 ANILZA DE OLIVEIRA SILVA ESTAGIARIO SAO JOAO EVANGELISTA; SAO JOAO EVANGELISTA-PJ-UNPJ 0,00 0,00 0,00 60,00 0,00 0,00 0,00 0,00 0,00 31/01/2023
600 250900 ANISIO APARECIDO SANTOS OFICIAL DO MP BETIM - COMARCA; BETIM - SECRETARIA DAS PJS CRIMINAIS 1.333,00 0,00 578,00 0,00 5.248,61 0,00 0,00 0,00 959,82 31/01/2023
601 1256500 ANNA CAROLINA BARBOSA METZKER ESTAGIARIO POCOS DE CALDAS; POCOS DE CALDAS-PJ-06PJ 0,00 0,00 0,00 12,00 1.333,33 0,00 0,00 0,00 0,00 31/01/2023
602 1478900 ANNA CAROLINA DE SENNA BARCANTE ESTAGIARIO FORMIGA; FORMIGA-PJ-04PJ 0,00 0,00 0,00 120,00 0,00 0,00 0,00 0,00 0,00 31/01/2023
603 698100 ANNA CAROLINA POLICARIO BERTOLIN ASSESSOR PROCURADOR JUSTICA BELO HORIZONTE - COMARCA; PROC. JUSTICA DIR. DIFUSOS E COLETIVOS-SEC 1.333,00 0,00 578,00 0,00 0,00 0,00 0,00 0,00 309,76 31/01/2023
604 1330700 ANNA CAROLINE GEMIMA FERREIRA PEREIRA ESTAGIARIO UBERABA; UBERABA-PJ-08PJ 0,00 0,00 0,00 120,00 0,00 0,00 0,00 0,00 0,00 31/01/2023
605 1459600 ANNA CAROLYNNA SANTOS REZENDE DE ALMEIDA - 2:14596 ESTAGIARIO PONTE NOVA; PONTE NOVA-PJ-01PJ 0,00 0,00 0,00 84,00 0,00 0,00 0,00 0,00 0,00 31/01/2023
606 253400 ANNA FLAVIA LEHMAN ANALISTA DO MP BELO HORIZONTE - COMARCA; SUPRIN DE PLANEJAMENTO E COORDENACAO 1.333,00 0,00 578,00 0,00 0,00 0,00 0,00 0,00 1.606,93 31/01/2023
607 1372100 ANNA LARA FERREIRA ESTAGIARIO PARA DE MINAS; PARA DE MINAS-PJ-05PJ 0,00 0,00 0,00 120,00 0,00 0,00 0,00 0,00 0,00 31/01/2023
608 1395600 ANNA LUISA FERREIRA DE OLIVEIRA ESTAGIARIO CONTAGEM; CONTAGEM-PJ-25PJ 0,00 0,00 0,00 84,00 0,00 0,00 0,00 0,00 0,00 31/01/2023
609 688800 ANNA LUIZA MATTOS DUARTE ASSESSOR PROCURADOR JUSTICA BELO HORIZONTE - COMARCA; GABINETE DE PROCURADOR DE JUSTICA - SALA 311 1.333,00 0,00 578,00 0,00 0,00 0,00 0,00 0,00 328,57 31/01/2023
610 1547200 ANNA LUIZA ULHOA ANDRADE NEVES ESTAGIARIO BELO HORIZONTE; BH-10PJ EXECUÇÃO PENAL-GAB 078PJ 0,00 0,00 0,00 120,00 0,00 0,00 0,00 0,00 0,00 31/01/2023
611 1440200 ANNA MARINA DIAS QUEIROZ PEREIRA ESTAGIARIO MONTES CLAROS; MONTES CLAROS-PJ-01PJ 0,00 0,00 0,00 108,00 0,00 0,00 0,00 0,00 0,00 31/01/2023
612 1446900 ANNA RAFAELA LESSA DA SILVA ESTAGIARIO ITUIUTABA; ITUIUTABA-PJ-03PJ 0,00 0,00 0,00 120,00 0,00 0,00 0,00 0,00 0,00 31/01/2023
613 447600 ANNGELUCE ALCANTARA DE CAMPOS OFICIAL DO MP DIVINÓPOLIS - COMARCA; DIVINOPOLIS-PJ-SECRETARIA 1.333,00 0,00 578,00 0,00 5.755,15 0,00 0,00 0,00 1.112,76 31/01/2023
614 1506800 ANOA DIAS QUARESMA CAMPOS ESTAGIARIO JACINTO; JACINTO-PJ-UNPJ 0,00 0,00 0,00 72,00 0,00 0,00 0,00 0,00 0,00 31/01/2023
615 119600 ANSELMO BORGES PARREIRAS OFICIAL DO MP BONFIM - COMARCA; BONFIM-PJ-UNPJ 1.333,00 0,00 578,00 0,00 0,00 0,00 0,00 0,00 745,51 31/01/2023
616 630300 ANTONIA GOMES RAMALHO OFICIAL DO MP NOVO CRUZEIRO - COMARCA; NOVO CRUZEIRO-PJ-UNPJ 1.333,00 1.770,60 578,00 0,00 0,00 336,54 0,00 0,00 333,77 31/01/2023
617 73100 ANTONIO AURELIO SANTOS PROCURADOR DE JUSTICA BELO HORIZONTE - COMARCA; CAO-CONFLITOS AGRARIOS 1.333,00 0,00 3.039,08 0,00 22.680,60 0,00 0,00 0,00 693,02 31/01/2023
618 157300 ANTONIO BORGES DA SILVA PROMOTOR 2A ENTRANCIA SÃO LOURENÇO - COMARCA; SAO LOURENCO-PJ-02PJ 1.333,00 0,00 3.200,47 0,00 19.656,52 0,00 0,00 0,00 693,02 31/01/2023
619 1493700 ANTONIO CARLOS DOMINGUES JUNIOR ESTAGIARIO ESTRELA DO SUL; ESTRELA DO SUL-PJ-UNPJ 0,00 0,00 0,00 120,00 0,00 0,00 0,00 0,00 0,00 31/01/2023
620 401600 ANTONIO CARLOS GUEDES AROUCA ANALISTA DO MP BELO HORIZONTE - COMARCA; ASSESSORIA JURIDICO-ADMINISTRATIVA 1.333,00 0,00 578,00 0,00 0,00 0,00 0,00 0,00 900,43 31/01/2023
621 1298900 ANTONIO DE OLIVEIRA SOUZA JUNIOR ESTAGIARIO UBERLANDIA; UBERLANDIA-PJ-24PJ 0,00 0,00 0,00 0,00 0,00 0,00 0,00 0,00 0,00 31/01/2023
622 76600 ANTONIO DE PADOVA MARCHI JUNIOR PROCURADOR DE JUSTICA BELO HORIZONTE - COMARCA; GABINETE DE PROCURADOR DE JUSTIÇA - SALA 1006 1.333,00 0,00 3.393,64 0,00 22.680,60 0,00 0,00 0,00 693,02 31/01/2023
623 101900 ANTONIO DIAS MAIA PROCURADOR DE JUSTICA BELO HORIZONTE - COMARCA; GABINETE DE PROCURADOR DE JUSTIÇA - SALA 808 1.333,00 0,00 3.546,22 0,00 15.120,40 0,00 0,00 0,00 693,02 31/01/2023
624 84600 ANTONIO DIOGO DA ROCHA PROMOTOR 1A ENTRANCIA BOTELHOS - COMARCA; BOTELHOS-PJ-UNPJ 1.333,00 0,00 3.039,08 0,00 22.680,60 0,00 0,00 0,00 693,02 31/01/2023
625 333900 ANTONIO GONCALVES DE SOUZA FILHO OFICIAL DO MP BELO HORIZONTE - COMARCA; DIRETORIA DE CONTABILIDADE 1.333,00 0,00 578,00 0,00 0,00 0,00 0,00 0,00 699,92 31/01/2023
626 340600 ANTONIO HENRIQUE FRANCO LOPES PROMOT.ENTRANC.ESPECIAL BELO HORIZONTE - COMARCA; ASSESSORIA ESPECIAL-GABINETE DOS ASSESSORES 1.333,00 0,00 2.026,05 0,00 16.844,55 0,00 0,00 0,00 514,69 31/01/2023
627 67600 ANTONIO JOAQUIM SCHELLENBERGER FERNANDES PROCURADOR DE JUSTICA BELO HORIZONTE - COMARCA; PROC JUSTICA DIR DIFUSOS E COLETIVOS-GAB004 1.333,00 0,00 3.546,22 0,00 12.096,32 0,00 0,00 0,00 693,02 31/01/2023
628 77300 ANTONIO JOSE CHINELATO PROCURADOR DE JUSTICA BELO HORIZONTE - COMARCA; GABINETE DE PROCURADOR DE JUSTIÇA - SALA 1008 1.333,00 0,00 0,00 0,00 7.560,20 0,00 0,00 0,00 693,02 31/01/2023
629 211800 ANTONIO JOSE DE OLIVEIRA PROMOTOR 2A ENTRANCIA PASSOS - COMARCA; PASSOS-PJ-06PJ 1.333,00 0,00 3.200,47 0,00 8.760,93 0,00 0,00 0,00 573,63 31/01/2023
630 176100 ANTONIO MARCELO CAMPOS CAMPANELLA OFICIAL DO MP BELO HORIZONTE - COMARCA; COORD DE GABINETE DO PGJ 1.333,00 0,00 578,00 0,00 5.711,19 0,00 0,00 0,00 2.058,41 31/01/2023
631 1438000 ANTONIO MARCIO OLIVEIRA SOUZA ESTAGIARIO BELO HORIZONTE; GABINETE DE PROCURADOR DE JUSTIÇA - SALA 607 0,00 0,00 0,00 48,00 0,00 0,00 0,00 0,00 678,33 31/01/2023
632 321001 ANTONIO OLINTO VIEIRA MACHADO ANALISTA DO MP BELO HORIZONTE - COMARCA; CENTRAL DE APOIO TECN-SETOR DE MEIO AMBIENTE 1.333,00 0,00 578,00 0,00 5.609,76 0,00 0,00 0,00 1.586,64 31/01/2023
633 356200 ANTONIO PAULA DA SILVA OFICIAL DO MP JUIZ DE FORA - COMARCA; JUIZ DE FORA-PJ-20PJ 1.333,00 0,00 578,00 0,00 5.970,30 0,00 0,00 0,00 1.347,79 31/01/2023
634 63400 ANTONIO PEDRO DA SILVA MELO PROMOT.ENTRANC.ESPECIAL SÃO JOÃO DEL REI - COMARCA; SAO JOAO DEL REI-PJ-01PJ 1.333,00 0,00 3.039,08 0,00 22.680,60 0,00 0,00 0,00 693,02 31/01/2023
635 119900 ANTONIO RODRIGUES DE PINHO OFICIAL DO MP GUANHÃES - COMARCA; GUANHAES-PJ-01PJ 1.333,00 0,00 578,00 0,00 0,00 0,00 0,00 0,00 1.525,67 31/01/2023
636 373300 ANTONIO SERGIO ANANIAS OFICIAL DO MP SÃO JOÃO NEPOMUCENO - COMARCA; SAO JOAO NEPOMUCENO-PJ-01PJ 1.333,00 0,00 578,00 0,00 0,00 0,00 0,00 0,00 541,69 31/01/2023
637 93500 ANTONIO SERGIO ROCHA DE PAULA PROCURADOR DE JUSTICA BELO HORIZONTE - COMARCA; PROC JUSTICA DIR DIFUSOS E COLETIVOS-GAB003 1.333,00 0,00 3.546,22 0,00 22.680,60 0,00 0,00 0,00 693,02 31/01/2023
638 68700 ANTONIO SERGIO TONET PROCURADOR DE JUSTICA BELO HORIZONTE - COMARCA; GABINETE DE PROCURADOR DE JUSTIÇA - SALA 902 1.333,00 0,00 1.937,38 0,00 7.560,20 0,00 0,00 0,00 0,00 31/01/2023
639 608100 ANTONIO SIDINEY VIEIRA LEMOS ANALISTA DO MP PIRAPORA - COMARCA; PIRAPORA-PJ-01PJ 1.333,00 885,30 578,00 0,00 5.782,08 0,00 0,00 0,00 1.333,46 31/01/2023
640 374700 ANTONIO SILVA NETO OFICIAL DO MP BELO HORIZONTE - COMARCA; BH-12PJ JUIZO CRIMINAL-SECRETARIA 1.333,00 885,30 578,00 0,00 0,00 0,00 0,00 0,00 602,43 31/01/2023
641 636700 ANTONIUS VITORIANO FERNANDES OFICIAL DO MP BELO HORIZONTE - COMARCA; ASSESSORIA JURIDICA DO PROCON-MG 1.333,00 0,00 578,00 0,00 0,00 0,00 0,00 0,00 275,96 31/01/2023
642 413200 ANY PEREIRA SILVA ANALISTA DO MP TRÊS PONTAS - COMARCA; TRES PONTAS-PJ-01PJ 1.333,00 0,00 578,00 0,00 5.261,61 0,00 0,00 0,00 1.412,30 31/01/2023
643 151401 APARECIDA DE FATIMA MENDES DE ALMEIDA ASSESSOR ADMINISTRATIVO II JUIZ DE FORA - COMARCA; JUIZ DE FORA-PJ-SECRETARIA 1.333,00 0,00 578,00 0,00 5.891,30 0,00 0,00 0,00 810,41 31/01/2023
644 329300 APARECIDA MARIA MELO DE ASSIS OFICIAL DO MP BELO HORIZONTE - COMARCA; BH-18PJ DIREITOS HUMANOS-SECRETARIA 1.333,00 0,00 578,00 0,00 0,00 0,00 0,00 0,00 628,58 31/01/2023
645 653000 APARECIDA ROSA DE LIMA ASSESSOR ADMINISTRATIVO III BELO HORIZONTE - COMARCA; SECRETARIA PROCESSOS DISCIPES ADMINISTRATIVOS 1.333,00 0,00 578,00 0,00 5.810,54 0,00 0,00 0,00 954,96 31/01/2023
646 354500 APARECIDA VIEIRA DE CARVALHO OFICIAL DO MP BELO HORIZONTE - COMARCA; DIVISÃO DE EDUCAÇÃO PARA O CONSUMO 1.333,00 0,00 578,00 0,00 5.852,41 0,00 0,00 0,00 1.151,01 31/01/2023
647 551000 ARACELES BICALHO FELIX ANALISTA DO MP MANHUAÇU - COMARCA; MANHUACU-PJ-SECRETARIA 1.333,00 1.770,60 578,00 0,00 0,00 0,00 0,00 0,00 512,94 31/01/2023
648 286200 ARACELI MEDRADO DOS SANTOS LIMA OFICIAL DO MP PARACATU - COMARCA; PARACATU-PJ-03PJ 1.333,00 0,00 578,00 0,00 0,00 0,00 0,00 0,00 434,02 31/01/2023
649 112200 ARAQUEM AUGUSTO DE MATOS AGENTE DO MP BELO HORIZONTE - COMARCA; BH-23PJ CIVEL-SEC EXP CIVEIS 1.333,00 0,00 578,00 0,00 0,00 0,00 0,00 0,00 891,40 31/01/2023
650 280600 ARDUINO FRATTEZI ANALISTA DO MP BELO HORIZONTE - COMARCA; CENTRAL DE APOIO TECNICO-SETOR CONTABIL 1.333,00 0,00 578,00 0,00 5.349,39 0,00 0,00 0,00 1.881,62 31/01/2023
651 67700 ARESLAN EUSTAQUIO MARTINS PROMOTOR 1A ENTRANCIA CARMO DA MATA - COMARCA; CARMO DA MATA-PJ-UNPJ 1.333,00 0,00 3.040,44 0,00 22.680,60 0,00 0,00 0,00 693,02 31/01/2023
652 1481300 ARIANE DA SILVA MENDES - 2:1481300 ESTAGIARIO ABRE CAMPO; ABRE CAMPO-PJ-02PJ 0,00 0,00 0,00 120,00 0,00 0,00 0,00 0,00 0,00 31/01/2023
653 520201 ARIANE DE FATIMA CARVALHO ALMEIDA RODRIGUES ANALISTA DO MP VESPASIANO - COMARCA; VESPASIANO-PJ-SECRETARIA 1.333,00 1.327,95 578,00 0,00 0,00 0,00 0,00 0,00 583,89 31/01/2023
654 1547100 ARIANE MAGALHAES DE PAULA GALDINO ESTAGIARIO CORONEL FABRICIANO; CORONEL FABRICIANO-PJ-04PJ 0,00 0,00 0,00 96,00 0,00 0,00 0,00 0,00 0,00 31/01/2023
655 1261600 ARIANE SOUZA MAGALHAES ESTAGIARIO IPATINGA; IPATINGA-PJ-11PJ 0,00 0,00 0,00 108,00 0,00 0,00 0,00 0,00 0,00 31/01/2023
656 537600 ARIELA FREIRE MONTIJO ANALISTA DO MP ARCOS - COMARCA; ARCOS-PJ-01PJ 1.333,00 0,00 578,00 0,00 0,00 0,00 0,00 0,00 573,20 31/01/2023
657 182000 ARILSON ALEXANDRE MARTINS MAGALHAES OFICIAL DO MP JOÃO MONLEVADE - COMARCA; JOAO MONLEVADE-PJ-01PJ 1.333,00 3.098,55 578,00 0,00 5.493,71 0,00 0,00 0,00 1.848,13 31/01/2023
658 511000 ARISLANE CAROLINA DA SILVA ANALISTA DO MP MONTE CARMELO - COMARCA; MONTE CARMELO-PJ-02PJ 1.333,00 1.770,60 578,00 0,00 0,00 0,00 0,00 0,00 567,76 31/01/2023
659 212000 ARLEN DE OLIVEIRA FERNANDES PROMOT.ENTRANC.ESPECIAL BELO HORIZONTE - COMARCA; BH-12PJ JUIZO CRIMINAL-GAB 098PJ 1.333,00 0,00 3.368,91 0,00 16.283,98 0,00 0,00 0,00 574,11 31/01/2023
660 170000 ARLEY BRITES DA SILVA ASSESSOR ADMINISTRATIVO II BELO HORIZONTE - COMARCA; BH-14PJ DEFESA CONSUMIDOR-SECRETARIA 1.333,00 0,00 578,00 0,00 5.998,41 0,00 0,00 0,00 939,98 31/01/2023
661 120400 ARLINDO CASSIO DA CRUZ OFICIAL DO MP SÃO GONÇALO DO SAPUCAÍ - COMARCA; SAO GONCALO DO SAPUCAI-PJ-01PJ 1.333,00 0,00 578,00 0,00 0,00 0,00 0,00 0,00 1.008,44 31/01/2023
662 243700 ARLINDO MARCIO LACERDA OFICIAL DO MP CONTAGEM - COMARCA; CONTAGEM-PJ-SECRETARIA 1.333,00 0,00 578,00 0,00 0,00 0,00 1.580,00 0,00 982,40 31/01/2023
663 111900 ARNALDO ALVES SOARES PROCURADOR DE JUSTICA BELO HORIZONTE - COMARCA; GABINETE DE PROCURADOR DE JUSTIÇA - SALA 903 1.333,00 0,00 3.546,22 0,00 19.646,66 0,00 0,00 0,00 600,31 31/01/2023
664 392100 ARNALDO DE ANDRADE OFICIAL DO MP DIVINÓPOLIS - COMARCA; DIVINOPOLIS-PJ-02PJ 1.333,00 0,00 578,00 0,00 5.916,00 0,00 1.580,00 0,00 1.221,02 31/01/2023
665 75900 ARNALDO GOMES RIBEIRO PROCURADOR DE JUSTICA BELO HORIZONTE - COMARCA; GABINETE DE PROCURADOR DE JUSTIÇA - SALA 602 1.333,00 0,00 3.418,96 0,00 22.680,60 0,00 0,00 0,00 693,02 31/01/2023
666 642400 ARTANE INARDE DE SIQUEIRA DAMASCENO ANALISTA DO MP BELO HORIZONTE - COMARCA; SECRETARIA DE ASSUNTOS INTERNACIONAIS 1.333,00 0,00 578,00 0,00 0,00 0,00 0,00 0,00 430,54 31/01/2023
667 1261800 ARTHUR DE LIMA SOSSAI ESTAGIARIO LAVRAS; COORD REG DO MA DA BACIA DO RIO GRANDE
668 1276200 ARTHUR GONCALVES SERAFIM ESTAGIARIO PEDRO LEOPOLDO; PEDRO LEOPOLDO-PJ-03PJ 0,00 0,00 0,00 120,00 616,67 0,00 0,00 0,00 0,00 31/01/2023
669 1433800 ARTHUR OLIVEIRA CARABETTI DINIZ ESTAGIARIO BELO HORIZONTE; BH-09PJ AUDITORIA MILITAR-GAB 073PJ 0,00 0,00 0,00 60,00 0,00 0,00 0,00 0,00 0,00 31/01/2023
670 1433500 ARTHUR SALIM DE PAULA LEITE ESTAGIARIO BELO HORIZONTE; BH-06PJ JUIZO CIVEL-GAB 049PJ 0,00 0,00 0,00 -48,00 0,00 0,00 0,00 0,00 0,00 31/01/2023
671 1306300 ARTUR CALDEIRA VELOSO FILHO ESTAGIARIO MONTES CLAROS; MONTES CLAROS-PJ-04PJ 0,00 0,00 0,00 48,00 370,00 0,00 0,00 0,00 0,00 31/01/2023
672 1525800 ARTUR FERNANDES DE LIMA JUNIOR ESTAGIARIO SANTA RITA DO SAPUCAI; SANTA RITA DO SAPUCAI-PJ-01PJ 0,00 0,00 0,00 120,00 0,00 0,00 0,00 0,00 0,00 31/01/2023
673 712100 ARTUR FONTE BOA TEOFILO ASSESSOR ADMINISTRATIVO I BELO HORIZONTE - COMARCA; DIRET DE ESTAGIOS E CONVENIOS ACADEMICOS 1.333,00 0,00 578,00 0,00 0,00 0,00 0,00 0,00 81,90 31/01/2023
674 221400 ARTUR FORSTER GIOVANNINI PROMOTOR 2A ENTRANCIA TRÊS PONTAS - COMARCA; TRES PONTAS-PJ-01PJ 1.333,00 0,00 3.200,47 0,00 16.926,03 0,00 0,00 0,00 517,18 31/01/2023
675 1409500 ARTUR GUEDES CHAVES ESTAGIARIO MANGA; MANGA-PJ-01PJ 0,00 0,00 0,00 96,00 0,00 0,00 0,00 0,00 0,00 31/01/2023
676 313500 ARY PEDROSA BITTENCOURT PROMOT.ENTRANC.ESPECIAL SANTA LUZIA - COMARCA; SANTA LUZIA-PJ-05PJ 1.333,00 0,00 3.368,91 0,00 16.844,55 0,00 0,00 0,00 514,69 31/01/2023
677 1252100 ARYELLE GONCALVES RODRIGUES SILVA ESTAGIARIO CLAUDIO; CLAUDIO-PJ-UNPJ 0,00 0,00 0,00 120,00 0,00 0,00 0,00 0,00 0,00 31/01/2023
678 315700 ATHAIDE FRANCISCO PERES OLIVEIRA PROMOTOR 2A ENTRANCIA UNAÍ - COMARCA; UNAI-PJ-01PJ 1.333,00 0,00 3.200,47 0,00 0,00 0,00 0,00 0,00 0,00 31/01/2023
679 1304600 AUGUSTO JOSE SAD PEREIRA GOMES ESTAGIARIO CATAGUASES; CATAGUASES-PJ-02PJ 0,00 0,00 0,00 60,00 0,00 0,00 0,00 0,00 0,00 31/01/2023
680 702900 AUGUSTO PENA FIGUEIREDO CAPITAO BELO HORIZONTE - COMARCA; NUCLEO DE OPERACOES DE SEGURANCA DE PESSOAL 1.333,00 0,00 0,00 0,00 0,00 0,00 0,00 0,00 0,00 31/01/2023
681 666600 AUGUSTO REIS BALLARDIM PROMOTOR 1A ENTRANCIA ITAMARANDIBA - COMARCA; ITAMARANDIBA-PJ-UNPJ 1.333,00 0,00 1.671,50 0,00 15.202,21 0,00 0,00 0,00 464,51 31/01/2023
682 302100 AUGUSTO ROUSSEAU DE CASTRO ANALISTA DO MP CATAGUASES - COMARCA; CATAGUASES-PJ-02PJ 1.333,00 0,00 578,00 0,00 5.349,39 0,00 0,00 0,00 1.874,93 31/01/2023
683 1534500 AUGUSTO SANAVIA ROCHA ESTAGIARIO BELO HORIZONTE; GABINETE DE PROCURADOR DE JUSTIÇA - SALA 601 0,00 0,00 0,00 120,00 0,00 0,00 0,00 0,00 0,00 31/01/2023
684 540200 AUREA AVELAR BITTENCOURT OFICIAL DO MP BELO HORIZONTE - COMARCA; GRUPO ESP PROM JUST DEF PROB ADM PAT PUB 1.333,00 0,00 578,00 0,00 0,00 0,00 0,00 0,00 329,06 31/01/2023
685 633501 AUREA GONTIJO BIRCHAL ASSESSOR DE GABINETE I BELO HORIZONTE - COMARCA; PROCURADOR-GERAL DE JUSTIÇA 1.333,00 0,00 578,00 0,00 0,00 0,00 0,00 0,00 398,76 31/01/2023
686 1286700 AUREA MARIA MILWARD PORTUGAL FLAMINI ESTAGIARIO INHAPIM; INHAPIM-PJ-02PJ 0,00 0,00 0,00 120,00 0,00 0,00 0,00 0,00 0,00 31/01/2023
687 183200 AURELIANO MAGELA DE REZENDE OFICIAL DO MP BELO HORIZONTE - COMARCA; COORD DE GABINETE DO PGJ 1.333,00 0,00 578,00 0,00 4.980,96 0,00 0,00 0,00 1.902,20 31/01/2023
688 106500 AVAIDE MARCOS MARIANO PROMOT.ENTRANC.ESPECIAL UBERLÂNDIA - COMARCA; UBERLANDIA-PJ-13PJ 1.333,00 0,00 1.519,54 0,00 15.120,40 0,00 0,00 0,00 693,02 31/01/2023
689 629400 AYESKA DA COSTA VAL MOURA DABIEN OFICIAL DO MP BELO HORIZONTE - COMARCA; BH-09PJ AUDITORIA MILITAR-SECRETARIA 1.333,00 0,00 578,00 0,00 0,00 0,00 0,00 0,00 298,18 31/01/2023
690 1475000 AYLA FERREIRA LIMA ESTAGIARIO CASSIA; CASSIA-PJ-01PJ 0,00 0,00 0,00 120,00 0,00 0,00 0,00 0,00 0,00 31/01/2023
691 1450800 AYLANNA SOARES ARAUJO ESTAGIARIO BELO HORIZONTE; BH-25PJ DEFESA DA EDUCACAO-SECRETARIA 0,00 0,00 0,00 84,00 0,00 0,00 0,00 0,00 0,00 31/01/2023
692 151800 AYLOR LUIZ MEIRELLES JUNIOR PROMOTOR 2A ENTRANCIA SÃO DOMINGOS DO PRATA - COMARCA; SAO DOMINGOS DO PRATA-PJ-UNPJ 1.333,00 0,00 2.912,45 0,00 22.524,86 0,00 0,00 0,00 688,26 31/01/2023
693 707400 AYMEE JOHANSSENN TYNEE CORREIA ALVES ASSESSOR PROMOTOR JUSTICA NOVA LIMA - COMARCA; NOVA LIMA-PJ-01PJ 1.333,00 0,00 578,00 0,00 5.971,91 0,00 0,00 0,00 807,16 31/01/2023
694 1231000 BARBARA ALEXANDRA DA SILVA ESTAGIARIO LIMA DUARTE; LIMA DUARTE-PJ-UNPJ 0,00 0,00 0,00 120,00 0,00 0,00 0,00 0,00 0,00 31/01/2023
695 1323400 BARBARA ARANTES NASCIMENTO SOUZA ESTAGIARIO CRUZILIA; CRUZILIA-PJ-UNPJ 0,00 0,00 0,00 84,00 0,00 0,00 0,00 0,00 0,00 31/01/2023
696 1358500 BARBARA ASSENCAO DA SILVA FARIA ESTAGIARIO BELO HORIZONTE; COORD COMB RACISMO E TODA FORM DISCRIM 0,00 0,00 0,00 0,00 0,00 0,00 0,00 0,00 0,00 31/01/2023
697 701600 BARBARA CHAVES OLIVEIRA ASSESSOR PROCURADOR JUSTICA BELO HORIZONTE - COMARCA; PROC. JUSTICA DIR. DIFUSOS E COLETIVOS-SEC 1.333,00 0,00 578,00 0,00 0,00 0,00 0,00 0,00 300,04 31/01/2023
698 1481800 BARBARA COTTA E SILVA ESTAGIARIO BELO HORIZONTE; GABINETE DE PROCURADOR DE JUSTIÇA - SALA 914 0,00 0,00 0,00 48,00 0,00 0,00 0,00 0,00 0,00 31/01/2023
699 691900 BARBARA COUTINHO REIS ASSESSOR PROCURADOR JUSTICA BELO HORIZONTE - COMARCA; GABINETE DE PROCURADOR DE JUSTIÇA - SALA 910 1.333,00 0,00 578,00 0,00 0,00 0,00 0,00 0,00 313,14 31/01/2023
700 1538200 BARBARA CRISTINA MELO BATISTA ESTAGIARIO BELO HORIZONTE; BH-10PJ EXECUÇÃO PENAL-GAB 080PJ 0,00 0,00 0,00 120,00 0,00 0,00 0,00 0,00 0,00 31/01/2023
701 692200 BARBARA CRISTINA MENDES BANDEIRA DE MELO DUTRA ASSESSOR PROCURADOR JUSTICA BELO HORIZONTE - COMARCA; GABINETE DE PROCURADOR DE JUSTIÇA - SALA 1009 1.333,00 0,00 578,00 0,00 5.971,91 0,00 0,00 0,00 871,29 31/01/2023
702 1415700 BARBARA CRISTINA SOUZA E SOUSA ESTAGIARIO BELO HORIZONTE; BH-23PJ INFRACIONAL-GAB 054PJ 0,00 0,00 0,00 60,00 0,00 0,00 0,00 0,00 0,00 31/01/2023
703 723400 BARBARA CRISTINA TAVARES CARNEIRO ASSESSOR PROCURADOR JUSTICA BELO HORIZONTE - COMARCA; GABINETE DE PROCURADOR DE JUSTIÇA - SALA 502 1.333,00 0,00 578,00 0,00 0,00 0,00 0,00 0,00 0,00 31/01/2023
704 1306500 BARBARA EVELYN LIMA CHAVES ESTAGIARIO BUENOPOLIS; BUENOPOLIS-PJ-UNPJ 0,00 0,00 0,00 120,00 0,00 0,00 0,00 0,00 0,00 31/01/2023
705 727200 BARBARA FERNANDES AMARAL ASSESSOR PROMOTOR JUSTICA GOVERNADOR VALADARES - COMARCA; GOVERNADOR VALADARES-PJ-SECRETARIA 1.333,00 0,00 578,00 0,00 0,00 0,00 0,00 0,00 0,00 31/01/2023
706 1473700 BARBARA FERREIRA DOS SANTOS ESTAGIARIO PAINS; ALFENAS-PJ-02PJ 0,00 0,00 0,00 72,00 0,00 0,00 0,00 0,00 0,00 31/01/2023
707 314700 BARBARA FRANCINE PRETTE NUNES PROMOTOR 1A ENTRANCIA PERDIZES - COMARCA; PERDIZES-PJ-UNPJ 1.333,00 0,00 2.633,87 0,00 5.067,40 0,00 0,00 0,00 464,51 31/01/2023
708 1539800 BARBARA GEOVANA SILVA SANTOS ESTAGIARIO BELO HORIZONTE; CAO-FUNDACOES 0,00 0,00 0,00 84,00 0,00 0,00 0,00 0,00 0,00 31/01/2023
709 1410100 BARBARA HELENA FROIS GUIMARAES GIL ESTAGIARIO BELO HORIZONTE; GABINETE DE PROCURADOR DE JUSTIÇA - SALA 814 0,00 0,00 0,00 12,00 0,00 0,00 0,00 0,00 0,00 31/01/2023
710 1368200 BARBARA ISABELY LIMA OLIVEIRA ESTAGIARIO BELO HORIZONTE; BH-18PJ DIREITOS HUMANOS-GAB 183PJ 0,00 0,00 0,00 120,00 0,00 0,00 0,00 0,00 0,00 31/01/2023
711 652800 BARBARA JULIANNE MOREIRA CASTRO ASSESSOR PROCURADOR JUSTICA BELO HORIZONTE - COMARCA; ASSESS TECNICO-JUR JUNTO AS PROC. DE JUST 1.333,00 0,00 578,00 0,00 0,00 0,00 0,00 0,00 352,27 31/01/2023
712 1546500 BARBARA KATLEN SOARES FERNANDES ESTAGIARIO OURO BRANCO; OURO BRANCO-PJ-UNPJ 0,00 0,00 0,00 120,00 0,00 0,00 0,00 0,00 0,00 31/01/2023
713 1450300 BARBARA LARISSA DAS GRACAS SOUZA ESTAGIARIO BELO HORIZONTE; BH-24PJ JUIZO REG BARREIRO-GAB 003PJ 0,00 0,00 0,00 48,00 0,00 0,00 0,00 0,00 0,00 31/01/2023
714 1457700 BARBARA LEDRES SILVA ESTAGIARIO MEDINA; MEDINA-PJ-UNPJ 0,00 0,00 0,00 48,00 0,00 0,00 0,00 0,00 0,00 31/01/2023
715 707700 BARBARA LOUISE PUFF DE OLIVEIRA ASSESSOR PROMOTOR JUSTICA RIBEIRÃO DAS NEVES - COMARCA; RIBEIRAO DAS NEVES-PJ-02PJ 1.333,00 0,00 578,00 0,00 5.971,91 0,00 0,00 0,00 803,31 31/01/2023
716 1521500 BARBARA LOURENCO LIMA ESTAGIARIO JANAUBA; JANAUBA-PJ-02PJ 0,00 0,00 0,00 120,00 0,00 0,00 0,00 0,00 0,00 31/01/2023
717 666500 BARBARA MARTINS DE SOUZA PROMOTOR 2A ENTRANCIA PONTE NOVA - COMARCA; PONTE NOVA-PJ-02PJ 1.333,00 0,00 2.592,77 0,00 13.868,68 0,00 0,00 0,00 488,96 31/01/2023
718 1534100 BARBARA MOLINARI VEIGA BARBOSA ESTAGIARIO PONTE NOVA; PONTE NOVA-PJ-02PJ 0,00 0,00 0,00 108,00 0,00 0,00 0,00 0,00 0,00 31/01/2023
719 1536000 BARBARA PRADO KRETLI OLIVEIRA ESTAGIARIO GOVERNADOR VALADARES; GOVERNADOR VALADARES-PJ-16PJ 0,00 0,00 0,00 132,00 0,00 0,00 0,00 0,00 0,00 31/01/2023
720 663600 BARBARA REGINA PEREIRA DE PINHO MAGALHAES ASSESSOR PROMOTOR JUSTICA BELO HORIZONTE - COMARCA; CAO-DH CONT EXT ATIV POLIC E AP COMUNIT 1.333,00 0,00 578,00 0,00 0,00 0,00 0,00 0,00 398,75 31/01/2023
721 685500 BARBARA RODRIGUES DE PAULA PROMOTOR SUBSTITUTO GOVERNADOR VALADARES - COMARCA; GOVERNADOR VALADARES-PJ-10PJ 1.333,00 0,00 835,75 0,00 14.188,73 0,00 0,00 0,00 464,51 31/01/2023
722 1475300 BARBARA SILVEIRA TORRES DE AZEVEDO ESTAGIARIO BRASOPOLIS; BRASOPOLIS-PJ-UNPJ 0,00 0,00 0,00 120,00 0,00 0,00 0,00 0,00 0,00 31/01/2023
723 692400 BARBARA SOUZA OLIVEIRA ASSESSOR PROMOTOR JUSTICA DIVINO - COMARCA; DIVINO-PJ-UNPJ 1.333,00 0,00 578,00 0,00 0,00 0,00 0,00 0,00 313,14 31/01/2023
724 546500 BARBARA ZACARONI GOULART OFICIAL DO MP BETIM - COMARCA; BETIM-PJ-08PJ 1.333,00 0,00 578,00 0,00 5.891,30 0,00 0,00 0,00 967,74 31/01/2023
725 1479200 BARBARACAMILA DE SOUZA LARA ESTAGIARIO JOAO PINHEIRO; JOAO PINHEIRO-PJ-02PJ 0,00 0,00 0,00 -48,00 0,00 0,00 0,00 0,00 0,00 31/01/2023
726 1542800 BARBARAH EMANUELLY SOUZA SANTOS ESTAGIARIO BARBACENA; BARBACENA-PJ-08PJ 0,00 0,00 0,00 96,00 0,00 0,00 0,00 0,00 0,00 31/01/2023
727 316500 BEATRIZ ABILVIA DA SILVA ANALISTA DO MP GOVERNADOR VALADARES - COMARCA; GOVERNADOR VALADARES-PJ-07PJ 1.333,00 0,00 578,00 0,00 5.145,66 0,00 0,00 0,00 1.834,38 31/01/2023
728 1498900 BEATRIZ APARECIDA DIAS BATISTA ESTAGIARIO MANHUMIRIM; MANHUMIRIM-PJ-02PJ 0,00 0,00 0,00 84,00 0,00 0,00 0,00 0,00 0,00 31/01/2023
729 311800 BEATRIZ APARECIDA SOARES GANEM OFICIAL DO MP ITAMBACURI - COMARCA; ITAMBACURI-PJ-02PJ 1.333,00 0,00 578,00 0,00 5.429,30 0,00 0,00 0,00 1.374,94 31/01/2023
730 266800 BEATRIZ AUGUSTA VILACA GOMES DE HUBER OFICIAL DO MP BELO HORIZONTE - COMARCA; BH-05PJ-JUÍZO SUCESSÕES-SEC 1.333,00 0,00 578,00 0,00 0,00 0,00 0,00 0,00 707,95 31/01/2023
731 235200 BEATRIZ BOTELHO BATISTA OFICIAL DO MP MATEUS LEME - COMARCA; MATEUS LEME-PJ-02PJ 1.333,00 0,00 578,00 0,00 0,00 0,00 0,00 0,00 681,04 31/01/2023
732 1480500 BEATRIZ CAMPOS VIEIRA FEIO ESTAGIARIO BELO HORIZONTE; GABINETE DE PROCURADOR DE JUSTICA - SALA 313 0,00 0,00 0,00 -12,00 0,00 0,00 0,00 0,00 0,00 31/01/2023
733 1321300 BEATRIZ FERREIRA GUERRA ESTAGIARIO BELO HORIZONTE; BH-12PJ JUIZO CRIMINAL-GAB 093PJ 0,00 0,00 0,00 84,00 0,00 0,00 0,00 0,00 0,00 31/01/2023
734 1543300 BEATRIZ FONSECA FELICE BRASIL ESTAGIARIO 0,00 0,00 0,00 24,00 0,00 0,00 0,00 0,00 0,00 31/01/2023
735 1453200 BEATRIZ GABRICH CARVALHO ESTAGIARIO BELO HORIZONTE; CAO-ORDEM ECONOMICA E TRIBUTARIA 0,00 0,00 0,00 -36,00 0,00 0,00 0,00 0,00 0,00 31/01/2023
736 1429500 BEATRIZ MACIEL ALMEIDA RIBEIRO ESTAGIARIO BELO HORIZONTE; PROC. JUSTICA DE HABEAS CORPUS 0,00 0,00 0,00 12,00 0,00 0,00 0,00 0,00 0,00 31/01/2023
737 1541900 BEATRIZ PALHARES CAMPOS ESTAGIARIO BELO HORIZONTE; BH-12PJ JUIZO CRIMINAL-GAB 085PJ 0,00 0,00 0,00 120,00 0,00 0,00 0,00 0,00 0,00 31/01/2023
738 182300 BEATRIZ PAULA SOUSA RAMOS OFICIAL DO MP MARIANA - COMARCA; MARIANA-PJ-01PJ 1.333,00 0,00 578,00 0,00 0,00 0,00 0,00 0,00 1.278,84 31/01/2023
739 1314100 BEATRIZ PAULINO DE FREITAS ESTAGIARIO CALDAS; CALDAS-PJ-UNPJ 0,00 0,00 0,00 120,00 0,00 0,00 0,00 0,00 0,00 31/01/2023
740 1359900 BEATRIZ PEREIRA LAMBOGLIA ESTAGIARIO UBERABA; UBERABA-PJ-13PJ 0,00 0,00 0,00 120,00 0,00 0,00 0,00 0,00 0,00 31/01/2023
741 1425800 BEATRIZ SANTOS CAVERZAN ESTAGIARIO FRUTAL; FRUTAL-PJ-04PJ 0,00 0,00 0,00 108,00 0,00 0,00 0,00 0,00 0,00 31/01/2023
742 507000 BELCHIOR FRANKLIN AMARAL LEITE ANALISTA DO MP BELO HORIZONTE - COMARCA; CAO ORGAOS MPMG DESIG FUNC ELEITORAIS-SEC 1.333,00 0,00 578,00 0,00 5.817,10 0,00 0,00 0,00 1.305,90 31/01/2023
743 345100 BENITO ELIAS RODRIGUES ANALISTA DO MP BARBACENA - COMARCA; BARBACENA - SECRETARIA DAS PJS CRIMINAIS 1.333,00 0,00 578,00 0,00 5.939,64 0,00 0,00 0,00 1.835,89 31/01/2023
744 207300 BENITO VIEIRA DOS SANTOS ANALISTA DO MP BELO HORIZONTE - COMARCA; PROC JUST ESP ACOES COMP ORIG CRIMINAL-ASSESS 1.333,00 0,00 578,00 0,00 5.760,89 0,00 0,00 0,00 1.997,88 31/01/2023
745 84700 BERGSON CARDOSO GUIMARAES PROMOT.ENTRANC.ESPECIAL BELO HORIZONTE - COMARCA; BH-13PJ JUIZO DE TOXICOS-GAB 107PJ 1.333,00 0,00 3.368,91 0,00 7.560,20 0,00 0,00 0,00 693,02 31/01/2023
746 480200 BERNADETE NUNES DOS SANTOS ANALISTA DO MP GUANHÃES - COMARCA; GUANHAES-PJ-02PJ 1.333,00 0,00 578,00 0,00 5.724,33 0,00 0,00 0,00 1.259,90 31/01/2023
747 1474100 BERNARDO ANGELI BELO ESTAGIARIO FORMIGA; FORMIGA-PJ-03PJ 0,00 0,00 0,00 120,00 0,00 0,00 0,00 0,00 0,00 31/01/2023
748 1503900 BERNARDO CARVALHO BAUMGRATZ DE MIRANDA ESTAGIARIO BELO HORIZONTE; BH-01PJ FAZENDA PUBLICA-GAB 008PJ 0,00 0,00 0,00 96,00 0,00 0,00 0,00 0,00 83,33 31/01/2023
749 1240100 BERNARDO DANTAS GUIMARAES ESTAGIARIO SANTA RITA DO SAPUCAI; SANTA RITA DO SAPUCAI-PJ-02PJ 0,00 0,00 0,00 120,00 0,00 0,00 0,00 0,00 0,00 31/01/2023
750 456700 BERNARDO DE MOURA LIMA PAIVA JEHA PROMOTOR 2A ENTRANCIA ITAÚNA - COMARCA; ITAUNA-PJ-01PJ 1.333,00 0,00 3.200,47 0,00 16.002,33 0,00 0,00 0,00 488,96 31/01/2023
751 1504700 BERNARDO SANTI ENGEL ESTAGIARIO BELO HORIZONTE; BH-08PJ JUIZADO ESPECIAL-GAB 168PJ 0,00 0,00 0,00 120,00 0,00 0,00 0,00 0,00 0,00 31/01/2023
752 1508100 BETANIA BEZERRA FIGUEIRA ESTAGIARIO UBERLANDIA; UBERLANDIA-PJ-24PJ 0,00 0,00 0,00 120,00 0,00 0,00 0,00 0,00 0,00 31/01/2023
753 162900 BETANIA CABRAL DE PINA LARCHER PROMOT.ENTRANC.ESPECIAL CONTAGEM - COMARCA; CONTAGEM-PJ-18PJ 1.333,00 0,00 3.368,91 0,00 12.461,30 0,00 0,00 0,00 571,14 31/01/2023
754 378400 BETANIA FARNESI DE SOUZA E SILVA OFICIAL DO MP CURVELO - COMARCA; CURVELO-PJ-01PJ 1.333,00 0,00 578,00 0,00 0,00 0,00 0,00 0,00 689,50 31/01/2023
755 387400 BETANIA MENDONCA DE ASSIS CARVALHO ANALISTA DO MP JUIZ DE FORA - COMARCA; JUIZ DE FORA-PJ-03PJ 1.333,00 885,30 578,00 0,00 0,00 0,00 0,00 0,00 889,01 31/01/2023
756 1453100 BIANCA CRISTINA GONZAGA OLIVEIRA ESTAGIARIO BELO HORIZONTE; DIRET DE ESTAGIOS E CONVENIOS ACADEMICOS 0,00 0,00 0,00 12,00 0,00 0,00 0,00 0,00 0,00 31/01/2023
757 714400 BIANCA DE CASTRO RAMOS ASSESSOR PROMOTOR JUSTICA BETIM - COMARCA; BETIM-PJ-13PJ 1.333,00 0,00 578,00 0,00 0,00 0,00 0,00 0,00 114,64 31/01/2023
758 712700 BIANCA DE JESUS SOUZA ASSESSOR ADMINISTRATIVO I GOVERNADOR VALADARES - COMARCA; COOR REG APOIO COM INC MOB VALE DO RIO DOCE 1.333,00 0,00 578,00 0,00 0,00 0,00 0,00 0,00 79,06 31/01/2023
759 1547800 BIANCA DE MELO PONTES ESTAGIARIO BELO HORIZONTE; CORREGEDORIA-GERAL-ASSESSORIA 0,00 0,00 0,00 84,00 0,00 0,00 0,00 0,00 0,00 31/01/2023
760 1278400 BIANCA DE SOUZA VILELA ESTAGIARIO BELO HORIZONTE; BH-13PJ JUIZO DE TOXICOS-GAB 079PJ 0,00 0,00 0,00 -207,60 0,00 0,00 0,00 0,00 0,00 31/01/2023
761 1293800 BIANCA GEORJUTTI VIEIRA ESTAGIARIO UBERLANDIA; UBERLANDIA-PJ-02PJ
762 1278100 BIANCA LIDSEY CARVALHO PINTO ESTAGIARIO GUANHAES; GUANHAES-PJ-01PJ
763 1446400 BIANCA MACHADO DOS SANTOS ESTAGIARIO ARAGUARI; ARAGUARI-PJ-01PJ 0,00 0,00 0,00 204,00 0,00 0,00 0,00 0,00 0,00 31/01/2023
764 1354000 BIANCA NEVES BATISTA COSTA ESTAGIARIO BELO HORIZONTE; PROC JUST ATUACAO TRIBUNAIS SUPERIORES-GAB007 0,00 0,00 0,00 36,00 0,00 0,00 0,00 0,00 0,00 31/01/2023
765 450300 BIANCA OLIVEIRA DE ALBUQUERQUE ANALISTA DO MP BELO HORIZONTE - COMARCA; BH-10PJ EXECUÇÃO PENAL-SECRETARIA 1.333,00 885,30 578,00 0,00 0,00 0,00 0,00 0,00 584,66 31/01/2023
766 535400 BIANCA SALOTO ROSSI ANALISTA DO MP SANTOS DUMONT - COMARCA; SANTOS DUMONT-PJ-01PJ 1.333,00 885,30 578,00 0,00 0,00 0,00 0,00 0,00 571,36 31/01/2023
767 1473300 BIANCA SILVA BRANDAO ESTAGIARIO PASSOS; PASSOS-PJ-05PJ 0,00 0,00 0,00 72,00 0,00 0,00 0,00 0,00 0,00 31/01/2023
768 1405700 BIANCA SIQUEIRA BERALDO SILVA ESTAGIARIO SILVIANOPOLIS; SILVIANOPOLIS-PJ-UNPJ 0,00 0,00 0,00 120,00 0,00 0,00 0,00 0,00 0,00 31/01/2023
769 1447200 BIANKA SOUZA VIEIRA ESTAGIARIO SAO ROMAO; SAO ROMAO-PJ-UNPJ 0,00 0,00 0,00 60,00 0,00 0,00 0,00 0,00 0,00 31/01/2023
770 120800 BRAS MARQUES DE SOUZA ANALISTA DO MP BELO HORIZONTE - COMARCA; SUPERINTENDENCIA DE GESTAO ADMINISTRATIVA 1.333,00 0,00 578,00 0,00 5.673,96 0,00 0,00 0,00 520,11 31/01/2023
771 1520300 BRENDA COELHO DA SILVA ESTAGIARIO 0,00 0,00 0,00 72,00 0,00 0,00 0,00 0,00 0,00 31/01/2023
772 1316700 BRENDA FAULKNER ASSIS DA SILVA ESTAGIARIO BELO HORIZONTE; BH-15PJ M AMB PAT HIST CULT-GAB 114PJ 0,00 0,00 0,00 108,00 0,00 0,00 0,00 0,00 0,00 31/01/2023
773 1501700 BRENDA GONCALVES DE CARVALHO ESTAGIARIO BELO HORIZONTE; GABINETE DE PROCURADOR DE JUSTIÇA - SALA 904 0,00 0,00 0,00 84,00 0,00 0,00 0,00 0,00 0,00 31/01/2023
774 1484800 BRENDA IZABEL GONCALVES FRANCA ESTAGIARIO BELO HORIZONTE; BH-12PJ JUIZO CRIMINAL-GAB 094PJ 0,00 0,00 0,00 120,00 0,00 0,00 0,00 0,00 0,00 31/01/2023
775 1526400 BRENDA MATOZINHO SANTOS ESTAGIARIO BELO HORIZONTE; BH-18PJ VIOLENCIA DOMESTICA-GAB 186PJ 0,00 0,00 0,00 96,00 0,00 0,00 0,00 0,00 0,00 31/01/2023
776 1250300 BRENDA MOREIRA SANTOS ESTAGIARIO BELO HORIZONTE; BH-02PJ FAMILIA-GAB 018PJ 0,00 0,00 0,00 72,00 0,00 0,00 0,00 0,00 0,00 31/01/2023
777 724400 BRENDA PIMENTEL DE SOUZA VIANA ASSESSOR PROMOTOR JUSTICA MANHUMIRIM - COMARCA; MANHUMIRIM-PJ-01PJ 1.333,00 0,00 578,00 0,00 0,00 0,00 0,00 0,00 0,00 31/01/2023
778 1476200 BRENDA RODRIGUES DIAS ESTAGIARIO BETIM; BETIM-PJ-02PJ 0,00 0,00 0,00 96,00 0,00 0,00 0,00 0,00 0,00 31/01/2023
779 1365100 BRENDA VIEIRA JORGE ESTAGIARIO BELO HORIZONTE; BH-23PJ INFRACIONAL-RECEPCAO 0,00 0,00 0,00 48,00 0,00 0,00 0,00 0,00 0,00 31/01/2023
780 1294100 BRENDA VITORIA SANTOS DE ALMEIDA ESTAGIARIO NOVA LIMA; NOVA LIMA-PJ-02PJ 0,00 0,00 0,00 180,00 0,00 0,00 0,00 0,00 0,00 31/01/2023
781 710500 BRENNO VINICIUS MAGESTE ROSA ASSESSOR PROMOTOR JUSTICA MANHUAÇU - COMARCA; MANHUACU-PJ-02PJ 1.333,00 0,00 578,00 0,00 4.086,04 0,00 0,00 0,00 606,72 31/01/2023
782 372400 BRENO COSTA DA SILVA COELHO PROMOTOR 2A ENTRANCIA VISCONDE DO RIO BRANCO - COMARCA; GAECO REGIONAL ZONA MATA-VISCONDE RIO BRANCO 1.333,00 0,00 2.405,94 0,00 5.334,11 0,00 0,00 0,00 488,96 31/01/2023
783 460900 BRENO CRISTIANO DE SOUZA REZENDE ANALISTA DO MP ITAÚNA - COMARCA; ITAUNA-PJ-02PJ 1.333,00 0,00 578,00 0,00 0,00 0,00 0,00 0,00 640,16 31/01/2023
784 96700 BRENO LINHARES LINTZ PROMOT.ENTRANC.ESPECIAL UBERLÂNDIA - COMARCA; UBERLANDIA-PJ-10PJ 1.333,00 0,00 0,00 0,00 0,00 0,00 0,00 0,00 0,00 31/01/2023
785 1542200 BRENO MATEUS RAMOS BRAGA ESTAGIARIO MONTES CLAROS; MONTES CLAROS-PJ-14PJ 0,00 0,00 0,00 84,00 0,00 0,00 0,00 0,00 0,00 31/01/2023
786 439500 BRENO MAX DE JESUS SILVEIRA PROMOTOR 2A ENTRANCIA CARANGOLA - COMARCA; CARANGOLA-PJ-02PJ 1.333,00 0,00 1.063,68 0,00 16.002,33 0,00 0,00 0,00 488,96 31/01/2023
787 439300 BRENO NASCIMENTO PACHECO PROMOTOR 2A ENTRANCIA PATROCÍNIO - COMARCA; PATROCINIO-PJ-01PJ 1.333,00 0,00 3.200,47 0,00 6.400,93 0,00 0,00 0,00 488,96 31/01/2023
788 239000 BRENO VENANCIO ROMANINI OFICIAL DO MP BELO HORIZONTE - COMARCA; BH-20PJ ORD ECON TRIBUTARIA-SECRETARIA 1.333,00 0,00 578,00 0,00 0,00 0,00 0,00 0,00 707,32 31/01/2023
789 1383700 BRIGIDA CRISOSTOMO DA SILVA ESTAGIARIO CARATINGA; CARATINGA-PJ-07PJ 0,00 0,00 0,00 192,00 0,00 0,00 0,00 0,00 0,00 31/01/2023
790 1469400 BRUNA ALMEIDA LOPES ESTAGIARIO JUIZ DE FORA; JUIZ DE FORA-PJ-14PJ 0,00 0,00 0,00 96,00 0,00 0,00 0,00 0,00 0,00 31/01/2023
791 1491400 BRUNA ALVES FERNANDES ESTAGIARIO CAPELINHA; CAPELINHA-PJ-01PJ 0,00 0,00 0,00 120,00 0,00 0,00 0,00 0,00 0,00 31/01/2023
792 1457500 BRUNA APARECIDA GOMES ESTAGIARIO ITAJUBA; ITAJUBA-PJ-01PJ 0,00 0,00 0,00 72,00 0,00 0,00 0,00 0,00 0,00 31/01/2023
793 1448700 BRUNA BARBOSA SOARES DE SOUZA ESTAGIARIO SAO LOURENCO; SAO LOURENCO-PJ-03PJ 0,00 0,00 0,00 120,00 0,00 0,00 0,00 0,00 0,00 31/01/2023
794 659300 BRUNA BODONI FACCIOLI PROMOTOR 2A ENTRANCIA CARMO DO PARANAÍBA - COMARCA; CARMO DO PARANAIBA-PJ-01PJ 1.333,00 0,00 3.200,47 0,00 16.002,33 0,00 0,00 0,00 488,96 31/01/2023
795 1424500 BRUNA CATAI ALCANTARA ESTAGIARIO PATROCINIO; PATROCINIO-PJ-01PJ 0,00 0,00 0,00 120,00 0,00 0,00 0,00 0,00 0,00 31/01/2023
796 1504100 BRUNA CRISTINA OLIVEIRA DOS SANTOS ESTAGIARIO VESPASIANO; VESPASIANO-PJ-06PJ 0,00 0,00 0,00 72,00 0,00 0,00 0,00 0,00 0,00 31/01/2023
797 1489000 BRUNA DAYANA DA SILVA SOUZA ESTAGIARIO GOVERNADOR VALADARES; GOVERNADOR VALADARES-PJ-13PJ 0,00 0,00 0,00 120,00 0,00 0,00 0,00 0,00 0,00 31/01/2023
798 1408800 BRUNA DE CASTRO VIEIRA ESTAGIARIO CORONEL FABRICIANO; CORONEL FABRICIANO-PJ-01PJ 0,00 0,00 0,00 60,00 0,00 0,00 0,00 0,00 0,00 31/01/2023
799 722700 BRUNA DE SA FERREIRA LIMA ASSESSOR PROMOTOR JUSTICA MANGA - COMARCA; MANGA-PJ-01PJ 1.333,00 0,00 578,00 0,00 0,00 0,00 0,00 0,00 0,00 31/01/2023
800 1360800 BRUNA DOS SANTOS NASCIMENTO MANDOLESI ESTAGIARIO ITAJUBA; ITAJUBA-PJ-04PJ 0,00 0,00 0,00 84,00 0,00 0,00 0,00 0,00 0,00 31/01/2023
801 1432500 BRUNA EDUARDA SANTOS DA SILVA ESTAGIARIO SANTA LUZIA; SANTA LUZIA-PJ-07PJ 0,00 0,00 0,00 96,00 0,00 0,00 0,00 0,00 0,00 31/01/2023
802 1430400 BRUNA FERNANDES ABINEDER FERREIRA ESTAGIARIO BELO HORIZONTE; BH-09PJ AUDITORIA MILITAR-GAB 073PJ 0,00 0,00 0,00 24,00 0,00 0,00 0,00 0,00 0,00 31/01/2023
803 1231100 BRUNA GOMES MULLER ESTAGIARIO ITAJUBA; ITAJUBA-PJ-02PJ 0,00 0,00 0,00 84,00 0,00 0,00 0,00 0,00 0,00 31/01/2023
804 1487700 BRUNA GOULART TAVARES ESTAGIARIO PARAISOPOLIS; PARAISOPOLIS-PJ-UNPJ 0,00 0,00 0,00 120,00 0,00 0,00 0,00 0,00 0,00 31/01/2023
805 722100 BRUNA HENRIQUE DE SOUZA ASSESSOR PROMOTOR JUSTICA PIRAPETINGA - COMARCA; PIRAPETINGA-PJ-UNPJ 1.333,00 0,00 578,00 0,00 0,00 0,00 0,00 0,00 0,00 31/01/2023
806 642300 BRUNA IZABELITA DE FATIMA OLIVEIRA COSTA OFICIAL DO MP BELO HORIZONTE - COMARCA; BH-02PJ FAMILIA-SECRETARIA 1.333,00 0,00 578,00 0,00 0,00 0,00 0,00 0,00 308,24 31/01/2023
807 513600 BRUNA KARLA MARTINS CARVALHO ANALISTA DO MP GOVERNADOR VALADARES - COMARCA; GOVERNADOR VALADARES-PJ-14PJ 1.333,00 0,00 578,00 0,00 5.812,40 0,00 0,00 0,00 1.213,43 31/01/2023
808 1439000 BRUNA LUDMILA ALVES RODRIGUES ESTAGIARIO BELO HORIZONTE; BH-15PJ M AMB PAT HIST CULT-GAB 114PJ 0,00 0,00 0,00 120,00 0,00 0,00 0,00 0,00 0,00 31/01/2023
809 1544100 BRUNA LUISA DE ALMEIDA ESTAGIARIO SETE LAGOAS; SETE LAGOAS-PJ-SEC CRIMINAIS 0,00 0,00 0,00 120,00 0,00 0,00 0,00 0,00 0,00 31/01/2023
810 1330800 BRUNA LUISA PINHEIRO PINTO ESTAGIARIO ITAUNA; ITAUNA-PJ-01PJ 0,00 0,00 0,00 96,00 0,00 0,00 0,00 0,00 0,00 31/01/2023
811 1485000 BRUNA LUIZA MACHADO DE FARIA ESTAGIARIO BELO HORIZONTE; BH-02PJ FAMILIA-GAB 014PJ
812 1318500 BRUNA MAIARA DE JESUS BARBOSA ESTAGIARIO UBA; UBA-PJ-06PJ 0,00 0,00 0,00 72,00 0,00 0,00 0,00 0,00 0,00 31/01/2023
813 415100 BRUNA MARIA SOARES OLIVEIRA COSTA RAMOS ANALISTA DO MP UBÁ - COMARCA; COORD REG BACIA DO RIO PARAIBA DO SUL 1.333,00 0,00 578,00 0,00 0,00 0,00 0,00 0,00 1.023,35 31/01/2023
814 1550600 BRUNA MARTINS FARIA ESTAGIARIO PATOS DE MINAS; PATOS DE MINAS-PJ-06PJ 0,00 0,00 0,00 48,00 0,00 0,00 0,00 0,00 0,00 31/01/2023
815 692900 BRUNA MENDES COELHO ASSESSOR PROCURADOR JUSTICA BELO HORIZONTE - COMARCA; GABINETE DE PROCURADOR DE JUSTIÇA - SALA 801 1.333,00 0,00 578,00 0,00 0,00 0,00 0,00 0,00 313,14 31/01/2023
816 470000 BRUNA MORAES ANALISTA DO MP TOMBOS - COMARCA; TOMBOS-PJ-UNPJ 1.333,00 0,00 578,00 0,00 5.462,20 0,00 0,00 0,00 1.362,12 31/01/2023
817 1388300 BRUNA MORAIS DE SOUZA ESTAGIARIO ITABIRA; ITABIRA-PJ-02PJ 0,00 0,00 0,00 72,00 0,00 0,00 0,00 0,00 0,00 31/01/2023
818 614700 BRUNA NATTANY DE LIMA OFICIAL DO MP MANTENA - COMARCA; MANTENA-PJ-01PJ 1.333,00 885,30 578,00 0,00 5.891,30 0,00 0,00 0,00 962,22 31/01/2023
819 729800 BRUNA PAULA AMARAL CEOLIN ASSESSOR PROMOTOR JUSTICA COMARCA - JUATUBA; JUATUBA-PJ-UNPJ 1.333,00 0,00 578,00 0,00 0,00 0,00 0,00 0,00 0,00 31/01/2023
820 631800 BRUNA RAPOSO JORGE OFICIAL DO MP JUIZ DE FORA - COMARCA; JUIZ DE FORA-PJ-06PJ 1.333,00 0,00 578,00 0,00 0,00 0,00 0,00 0,00 386,06 31/01/2023
821 707800 BRUNA ROMIE WERDINE ASSESSOR PROMOTOR JUSTICA IBIRITÉ - COMARCA; IBIRITE-PJ-06PJ 1.333,00 0,00 578,00 0,00 5.971,91 0,00 0,00 0,00 800,54 31/01/2023
822 1337600 BRUNA SALES VIEIRA ESTAGIARIO FRUTAL; FRUTAL-PJ-02PJ 0,00 0,00 0,00 96,00 0,00 0,00 0,00 0,00 0,00 31/01/2023
823 697400 BRUNA SILVA SANTOS ASSESSOR PROMOTOR JUSTICA TIMÓTEO - COMARCA; TIMOTEO-PJ-04PJ 1.333,00 0,00 578,00 0,00 0,00 0,00 0,00 0,00 309,76 31/01/2023
824 1524700 BRUNA STEHLING SCHIRMER ESTAGIARIO BELO HORIZONTE; PROC. JUSTICA DIR. DIFUSOS E COLETIVOS 0,00 0,00 0,00 24,00 0,00 0,00 0,00 0,00 0,00 31/01/2023
825 1380100 BRUNA STEPHANIE TOLEDO FERNANDES ESTAGIARIO SETE LAGOAS; SETE LAGOAS-PJ-03PJ 0,00 0,00 0,00 48,00 0,00 0,00 0,00 0,00 0,00 31/01/2023
826 699300 BRUNA URSINE TIMO ASSESSOR PROCURADOR JUSTICA BELO HORIZONTE - COMARCA; PROC JUST ESP ACOES COMP ORIG CRIMINAL-ASSESS 1.333,00 0,00 578,00 0,00 4.714,66 0,00 0,00 0,00 752,71 31/01/2023
827 1364300 BRUNA YASMIM DE OLIVEIRA MOREIRA ESTAGIARIO BELO HORIZONTE; DIRET DE ESTAGIOS E CONVENIOS ACADEMICOS 0,00 0,00 0,00 48,00 0,00 0,00 0,00 0,00 0,00 31/01/2023
828 225100 BRUNO ALEXANDER VIEIRA SOARES PROMOT.ENTRANC.ESPECIAL BELO HORIZONTE - COMARCA; BH-17PJ PATRIMONIO PUBLICO-GAB 004PJ 1.333,00 0,00 3.039,27 0,00 7.126,75 0,00 0,00 0,00 544,40 31/01/2023
829 463800 BRUNO ALVES TEIXEIRA ANALISTA DO MP UBERLÂNDIA - COMARCA; UBERLANDIA-PJ-04PJ 1.333,00 0,00 578,00 0,00 5.812,40 0,00 0,00 0,00 1.201,59 31/01/2023
830 1463600 BRUNO ANDRADE ALVARENGA ESTAGIARIO IPATINGA; IPATINGA-PJ-07PJ 0,00 0,00 0,00 96,00 0,00 0,00 0,00 0,00 0,00 31/01/2023
831 538500 BRUNO AUGUSTO DA SILVA OFICIAL DO MP SANTA LUZIA - COMARCA; SANTA LUZIA-PJ-03PJ 1.333,00 0,00 578,00 0,00 0,00 0,00 0,00 0,00 359,22 31/01/2023
832 318200 BRUNO BARROS DE SOUZA OFICIAL DO MP UBÁ - COMARCA; UBA-PJ-04PJ 1.333,00 0,00 578,00 0,00 5.724,33 0,00 0,00 0,00 1.286,77 31/01/2023
833 718900 BRUNO CARVALHO AMARAL DIAS PROMOTOR SUBSTITUTO UBERLÂNDIA - COMARCA; UBERLANDIA-PJ-02PJ 1.333,00 0,00 2.505,71 0,00 0,00 0,00 0,00 0,00 0,00 31/01/2023
834 459600 BRUNO CASTELAR LUGAO MENDES GESTOR ADM. SECRETARIA IV BELO HORIZONTE - COMARCA; PROC JUST ATUACAO TRIBUNAIS SUPERIORES-GAB001 1.333,00 885,30 578,00 0,00 5.581,85 0,00 0,00 0,00 1.143,20 31/01/2023
835 361300 BRUNO CESAR MEDEIROS GIARDINI PROMOT.ENTRANC.ESPECIAL IPATINGA - COMARCA; IPATINGA-PJ-06PJ 1.333,00 0,00 3.368,91 0,00 16.844,55 0,00 0,00 0,00 514,69 31/01/2023
836 427400 BRUNO CESAR RIBEIRO DE PAIVA ANALISTA DO MP BELO HORIZONTE - COMARCA; DIRETORIA DO COLEGIO E DA CAMARA DE PJ 1.333,00 0,00 578,00 0,00 0,00 0,00 0,00 0,00 990,57 31/01/2023
837 1425600 BRUNO CEZAR SOARES ESTAGIARIO PEDRO LEOPOLDO; PEDRO LEOPOLDO-PJ-02PJ 0,00 0,00 0,00 120,00 0,00 0,00 0,00 0,00 0,00 31/01/2023
838 380900 BRUNO CIRILO ANTUNES OFICIAL DO MP VARGINHA - COMARCA; VARGINHA-PJ-05PJ 1.333,00 0,00 578,00 0,00 5.629,14 0,00 0,00 0,00 1.219,84 31/01/2023
839 666700 BRUNO DE CARVALHO VASCONCELOS PROMOTOR SUBSTITUTO CORINTO - COMARCA; CORINTO-PJ-UNPJ 1.333,00 0,00 2.228,66 0,00 15.202,20 0,00 0,00 0,00 464,51 31/01/2023
840 329000 BRUNO DE MELO REIS ANALISTA DO MP PATROCÍNIO - COMARCA; PATROCINIO-PJ-02PJ 1.333,00 1.770,60 578,00 0,00 5.541,48 0,00 0,00 0,00 1.841,52 31/01/2023
841 1437500 BRUNO EDUARDO DE ANDRADE GONZAGA ESTAGIARIO BELO HORIZONTE; PROC JUST RECURSOS ESP E EXTRAORD CRIMINAIS 0,00 0,00 0,00 180,00 0,00 0,00 0,00 0,00 0,00 31/01/2023
842 339700 BRUNO FERNANDO TORRES LANA PROMOT.ENTRANC.ESPECIAL UBÁ - COMARCA; UBA-PJ-05PJ 1.333,00 0,00 2.289,43 0,00 16.844,55 0,00 0,00 0,00 514,69 31/01/2023
843 697800 BRUNO GAZZOLA BEZERRA FALCAO ASSESSOR PROCURADOR JUSTICA BELO HORIZONTE - COMARCA; PROCURADOR-GERAL ADJUNTO JURIDICO- GABINETE 1.333,00 0,00 578,00 0,00 0,00 0,00 0,00 0,00 320,36 31/01/2023
844 360300 BRUNO GUERRA DE OLIVEIRA PROMOT.ENTRANC.ESPECIAL UBÁ - COMARCA; UBA-PJ-06PJ 1.333,00 0,00 1.570,19 0,00 16.844,55 0,00 0,00 0,00 514,69 31/01/2023
845 1376000 BRUNO HENRIQUE RODRIGUES DOS SANTOS ESTAGIARIO NOVO CRUZEIRO; NOVO CRUZEIRO-PJ-UNPJ 0,00 0,00 0,00 120,00 0,00 0,00 0,00 0,00 0,00 31/01/2023
846 378300 BRUNO HERDY LOPES DE OLIVEIRA ANALISTA DO MP GOVERNADOR VALADARES - COMARCA; GOVERNADOR VALADARES-PJ-03PJ 1.333,00 0,00 578,00 0,00 5.609,76 0,00 0,00 0,00 1.550,85 31/01/2023
847 529700 BRUNO JOSE BUENO DIAS OFICIAL DO MP SÃO SEBASTIÃO DO PARAÍSO - COMARCA; SAO SEBASTIAO DO PARAISO-PJ-02PJ 1.333,00 0,00 578,00 0,00 5.891,30 0,00 0,00 0,00 940,56 31/01/2023
848 691600 BRUNO JOSE RIBEIRO ASSESSOR PROMOTOR JUSTICA CLÁUDIO - COMARCA; CLAUDIO-PJ-UNPJ 1.333,00 0,00 578,00 0,00 5.971,91 0,00 0,00 0,00 860,57 31/01/2023
849 350100 BRUNO LAUD SERRANO DOS REIS OFICIAL DO MP UBÁ - COMARCA; UBA-PJ-02PJ 1.333,00 0,00 578,00 0,00 5.724,33 0,00 0,00 0,00 1.289,65 31/01/2023
850 728900 BRUNO LIMA PITANGA ASSESSOR PROMOTOR JUSTICA BELO HORIZONTE - COMARCA; NUCLEO DA EXECUCAO PENAL 1.333,00 472,16 578,00 0,00 0,00 0,00 0,00 0,00 0,00 31/01/2023
851 530600 BRUNO MARQUES DE ALMEIDA ROSSI PROMOTOR 1A ENTRANCIA PRESIDENTE OLEGÁRIO - COMARCA; PRESIDENTE OLEGARIO-PJ-UNPJ 1.333,00 0,00 3.040,44 0,00 15.202,20 0,00 0,00 0,00 464,51 31/01/2023
852 373800 BRUNO MARTINO DE ALBUQUERQUE ANALISTA DO MP PONTE NOVA - COMARCA; PONTE NOVA-PJ-03PJ 1.333,00 0,00 578,00 0,00 5.609,76 0,00 0,00 0,00 1.547,53 31/01/2023
853 1545100 BRUNO MIRANDA E SILVA ESTAGIARIO BELO HORIZONTE; BH-09PJ AUDITORIA MILITAR-GAB 161PJ 0,00 0,00 0,00 108,00 0,00 0,00 0,00 0,00 0,00 31/01/2023
854 470400 BRUNO NOVAIS CABRAL ANALISTA DO MP MUTUM - COMARCA; MUTUM-PJ-UNPJ 1.333,00 0,00 578,00 0,00 5.812,40 0,00 0,00 0,00 1.186,87 31/01/2023
855 457300 BRUNO OLIVEIRA MULLER PROMOT.ENTRANC.ESPECIAL ITABIRA - COMARCA; ITABIRA-PJ-04PJ 1.333,00 0,00 2.912,45 0,00 16.844,55 0,00 0,00 0,00 514,69 31/01/2023
856 648600 BRUNO RIBEIRO E MELO ASSESSOR ADMINISTRATIVO IV BELO HORIZONTE - COMARCA; DIR RELACOES INSTITUCIONAIS 1.333,00 0,00 578,00 0,00 5.685,22 0,00 0,00 0,00 956,76 31/01/2023
857 369200 BRUNO ROBERTO DIAS DE OLIVEIRA OFICIAL DO MP BELO HORIZONTE - COMARCA; BH-22PJ PES COM DEF E IDOSOS-SECRETARIA 1.333,00 0,00 578,00 0,00 5.724,33 0,00 0,00 0,00 1.255,12 31/01/2023
858 547700 BRUNO ROBERTO SOUZA GONCALVES ANALISTA DO MP PARACATU - COMARCA; PARACATU-PJ-03PJ 1.333,00 885,30 578,00 0,00 0,00 0,00 0,00 0,00 567,81 31/01/2023
859 546100 BRUNO SA VIEIRA ANALISTA DO MP BARBACENA - COMARCA; BARBACENA-PJ-SECRETARIA 1.333,00 885,30 578,00 0,00 5.812,40 0,00 0,00 0,00 1.149,70 31/01/2023
860 438200 BRUNO SALES PEREIRA ANALISTA DO MP BELO HORIZONTE - COMARCA; CENTRAL DE APOIO TECNICO-SETOR CONTABIL 1.333,00 0,00 578,00 0,00 5.462,20 0,00 0,00 0,00 1.310,38 31/01/2023
861 537400 BRUNO SANT'ANA CESAR ANALISTA DO MP BELO HORIZONTE - COMARCA; BH-12PJ JUIZO CRIMINAL-GAB 105PJ 1.333,00 0,00 578,00 0,00 5.812,40 0,00 0,00 0,00 1.158,72 31/01/2023
862 343500 BRUNO SCHIAVO CRUZ PROMOT.ENTRANC.ESPECIAL IPATINGA - COMARCA; GAECO REGIONAL DE IPATINGA 1.333,00 0,00 3.368,91 0,00 12.352,67 0,00 0,00 0,00 514,69 31/01/2023
863 1511200 BRUNO SILVERIO CARVALHO ESTAGIARIO POCOS DE CALDAS; POCOS DE CALDAS-PJ-03PJ 0,00 0,00 0,00 120,00 0,00 0,00 0,00 0,00 0,00 31/01/2023
864 684000 BRUNO TORRANO AMORIM DE ALMEIDA PROMOTOR 2A ENTRANCIA SÃO FRANCISCO - COMARCA; SAO FRANCISCO-PJ-02PJ 1.333,00 0,00 2.279,31 0,00 16.002,33 0,00 0,00 0,00 488,96 31/01/2023
865 720300 BRUNO YOGUI SHIMABUKURO PROMOTOR SUBSTITUTO ITABIRA - COMARCA; ITABIRA-PJ-03PJ 1.333,00 0,00 1.770,90 0,00 0,00 0,00 0,00 0,00 0,00 31/01/2023
866 727700 BYANKA DA SILVA MORAIS ASSESSOR PROCURADOR JUSTICA BELO HORIZONTE - COMARCA; GABINETE DE PROCURADOR DE JUSTIÇA - SALA 805 1.333,00 0,00 578,00 0,00 0,00 0,00 0,00 0,00 0,00 31/01/2023
867 655800 CAEL KALINOWSKI SOUZA MATTA INVESTIGADOR DE POLICIA 2 BELO HORIZONTE - COMARCA; NUCLEO DE INFORMACOES E INTELIGENCIA 1.333,00 0,00 0,00 0,00 0,00 0,00 0,00 0,00 0,00 31/01/2023
868 719000 CAIO AUGUSTO BOGUS PROMOTOR SUBSTITUTO BETIM - COMARCA; BETIM-PJ-07PJ 1.333,00 0,00 903,75 0,00 0,00 0,00 0,00 0,00 0,00 31/01/2023
869 666900 CAIO CESAR ESPIRITO SANTO DO NASCIMENTO PROMOTOR 2A ENTRANCIA SALINAS - COMARCA; SALINAS-PJ-01PJ 1.333,00 0,00 1.544,87 0,00 16.002,33 0,00 0,00 0,00 488,96 31/01/2023
870 685600 CAIO CESAR FERREIRA PROMOTOR SUBSTITUTO PATOS DE MINAS - COMARCA; PATOS DE MINAS-PJ-06PJ 1.333,00 0,00 0,00 0,00 8.107,84 0,00 0,00 0,00 464,51 31/01/2023
871 719100 CAIO DEZONTINI BERNARDES PROMOTOR SUBSTITUTO CONCEIÇÃO DO MATO DENTRO - COMARCA; CONCEICAO DO MATO DENTRO-PJ-UNPJ 1.333,00 0,00 835,75 0,00 0,00 0,00 0,00 0,00 0,00 31/01/2023
872 1411800 CAIO EMANUEL FERNANDES GOUVEIA ESTAGIARIO MONTES CLAROS; MONTES CLAROS-PJ-15PJ 0,00 0,00 0,00 120,00 0,00 0,00 0,00 0,00 0,00 31/01/2023
873 405800 CAIO FERNANDO RODRIGUES DE OLIVEIRA ANALISTA DO MP BELO HORIZONTE - COMARCA; ASSESSORIA JURIDICO-ADMINISTRATIVA 1.333,00 0,00 578,00 0,00 5.432,94 0,00 0,00 0,00 1.503,85 31/01/2023
874 1428700 CAIO GIOVANNI DE FREITAS MATOS ESTAGIARIO BRASILIA DE MINAS; BRASILIA DE MINAS-PJ-02PJ 0,00 0,00 0,00 108,00 0,00 0,00 0,00 0,00 0,00 31/01/2023
875 530000 CAIO GUEDES DE OLIVEIRA ANALISTA DO MP DIAMANTINA - COMARCA; DIAMANTINA-PJ-02PJ 1.333,00 0,00 578,00 0,00 5.812,40 0,00 0,00 0,00 1.135,98 31/01/2023
876 491400 CAIO MIRANDA JUNQUEIRA ANALISTA DO MP BUENO BRANDAO - COMARCA; BUENO BRANDAO-PJ-UNPJ 1.333,00 0,00 578,00 0,00 0,00 0,00 0,00 0,00 581,37 31/01/2023
877 1298300 CAIO MONTEIRO ESTAGIARIO DIVINOPOLIS; DIVINOPOLIS-PJ-08PJ 0,00 0,00 0,00 120,00 0,00 0,00 0,00 0,00 0,00 31/01/2023
878 668300 CAIO PALLU COSTA PROMOTOR 2A ENTRANCIA MANTENA - COMARCA; MANTENA-PJ-03PJ 1.333,00 0,00 1.772,80 0,00 9.601,40 0,00 0,00 0,00 488,96 31/01/2023
879 1472700 CAIO VIANA MEIRELES ESTAGIARIO MONTES CLAROS; MONTES CLAROS-PJ-03PJ 0,00 0,00 0,00 120,00 0,00 0,00 0,00 0,00 0,00 31/01/2023
880 171000 CAIUS VINICIUS GONZAGA GOULART PROMOT.ENTRANC.ESPECIAL BELO HORIZONTE - COMARCA; BH-12PJ JUIZO CRIMINAL-GAB 106PJ 1.333,00 0,00 1.472,42 0,00 15.031,36 0,00 0,00 0,00 574,11 31/01/2023
881 1543000 CALEBE ARTUR SOUZA FERREIRA ESTAGIARIO RIBEIRAO DAS NEVES; RIBEIRAO DAS NEVES-PJ-SEC CRIMINAL 0,00 0,00 0,00 108,00 0,00 0,00 0,00 0,00 0,00 31/01/2023
882 1436700 CALEBE JUNGER DE JESUS PEREIRA ESTAGIARIO TEOFILO OTONI; COORD REG SAUDE MACRORREGIAO SANIT NORDESTE 0,00 0,00 0,00 108,00 0,00 0,00 0,00 0,00 0,00 31/01/2023
883 82300 CALIXTO OLIVEIRA SOUZA PROMOT.ENTRANC.ESPECIAL DIVINÓPOLIS - COMARCA; DIVINOPOLIS-PJ-01PJ 1.333,00 0,00 2.912,45 0,00 22.680,60 0,00 0,00 0,00 693,02 31/01/2023
884 415800 CAMILA ALVES DA SILVA ANALISTA DO MP CAETÉ - COMARCA; CAETE-PJ-01PJ 1.333,00 0,00 578,00 0,00 5.432,94 0,00 0,00 0,00 1.548,35 31/01/2023
885 1399600 CAMILA AMIZADAI MOREIRA CAMPOS ESTAGIARIO SANTOS DUMONT; SANTOS DUMONT-PJ-03PJ 0,00 0,00 0,00 96,00 0,00 0,00 0,00 0,00 0,00 31/01/2023
886 684900 CAMILA APARECIDA PIRES PROMOTOR SUBSTITUTO BELO HORIZONTE - COMARCA; BH-13PJ JUIZO DE TOXICOS-GAB 107PJ 1.333,00 0,00 835,75 0,00 15.202,21 0,00 0,00 0,00 464,51 31/01/2023
887 1469500 CAMILA AZEVEDO BAHIA ESTAGIARIO JUIZ DE FORA; JUIZ DE FORA-PJ-10PJ 0,00 0,00 0,00 120,00 0,00 0,00 0,00 0,00 0,00 31/01/2023
888 1352800 CAMILA CAETANO SANTOS ESTAGIARIO LUZ; LUZ-PJ-UNPJ 0,00 0,00 0,00 96,00 0,00 0,00 0,00 0,00 0,00 31/01/2023
889 555800 CAMILA CAROLINE ROCHA CHAVES OFICIAL DO MP SALINAS - COMARCA; SALINAS-PJ-01PJ 1.333,00 0,00 578,00 0,00 2.945,65 0,00 0,00 0,00 651,06 31/01/2023
890 445200 CAMILA CONDE ROCHA ANALISTA DO MP CONTAGEM - COMARCA; CONTAGEM-PJ-21PJ 1.333,00 0,00 578,00 0,00 5.817,10 0,00 0,00 0,00 1.267,54 31/01/2023
891 720200 CAMILA COSTA GARRIDO TERRES PROMOTOR SUBSTITUTO NOVA SERRANA - COMARCA; NOVA SERRANA-PJ-03PJ 1.333,00 0,00 1.722,15 0,00 0,00 0,00 0,00 0,00 0,00 31/01/2023
892 1444600 CAMILA CRISTINA SOUZA BARBOSA ESTAGIARIO PIRAPORA; PIRAPORA-PJ-01PJ 0,00 0,00 0,00 84,00 0,00 0,00 0,00 0,00 0,00 31/01/2023
893 419900 CAMILA CUNNINGHAM PIMENTA DE PADUA ANALISTA DO MP BELO HORIZONTE - COMARCA; ASSESSORIA PSICOSSOCIAL 1.333,00 0,00 578,00 0,00 0,00 0,00 0,00 0,00 919,08 31/01/2023
894 1477000 CAMILA DCHANTAL FIGUEIREDO COELHO ESTAGIARIO GOVERNADOR VALADARES; GOVERNADOR VALADARES-PJ-02PJ 0,00 0,00 0,00 96,00 0,00 0,00 0,00 0,00 0,00 31/01/2023
895 1479500 CAMILA DE JESUS FERREIRA ESTAGIARIO VICOSA; VICOSA-PJ-01PJ 0,00 0,00 0,00 72,00 0,00 0,00 0,00 0,00 0,00 31/01/2023
896 714200 CAMILA DE SOUSA CUNHA ASSESSOR PROMOTOR JUSTICA PRADOS - COMARCA; PRADOS-PJ-UNPJ 1.333,00 0,00 578,00 0,00 0,00 0,00 0,00 0,00 128,62 31/01/2023
897 507700 CAMILA ELIZABETH RODRIGUES ANALISTA DO MP BELO HORIZONTE - COMARCA; BH-02PJ FAMILIA-SECRETARIA 1.333,00 0,00 578,00 0,00 5.763,61 0,00 0,00 0,00 1.245,18 31/01/2023
898 372700 CAMILA FONSECA LIMONGE ANALISTA DO MP BETIM - COMARCA; BETIM-PJ-01PJ 1.333,00 0,00 578,00 0,00 5.609,76 0,00 0,00 0,00 1.488,63 31/01/2023
899 621300 CAMILA GOLFETO DE SOUSA VALENTE OFICIAL DO MP CARANGOLA - COMARCA; CARANGOLA-PJ-SECRETARIA 1.333,00 1.327,95 578,00 0,00 5.891,30 0,00 0,00 0,00 952,89 31/01/2023
900 409800 CAMILA GONCALVES COSTA RIBEIRO ANALISTA DO MP INHAPIM - COMARCA; INHAPIM-PJ-02PJ 1.333,00 885,30 578,00 0,00 5.812,40 0,00 0,00 0,00 1.197,51 31/01/2023
901 335000 CAMILA GONTIJO DE PAIVA ANALISTA DO MP BELO HORIZONTE - COMARCA; COORD DE CONTROLE CONSTITUCIONALIDADE 1.333,00 0,00 578,00 0,00 0,00 0,00 0,00 0,00 1.204,91 31/01/2023
902 693400 CAMILA HECKSHER MONTEIRO ASSESSOR PROCURADOR JUSTICA BELO HORIZONTE - COMARCA; GABINETE DE PROCURADOR DE JUSTIÇA - SALA 613 1.333,00 0,00 578,00 0,00 0,00 0,00 0,00 0,00 313,14 31/01/2023
903 696000 CAMILA IMACULADA OLIVEIRA ASSESSOR PROCURADOR JUSTICA BELO HORIZONTE - COMARCA; GABINETE DE PROCURADOR DE JUSTIÇA - SALA 816 1.333,00 0,00 578,00 0,00 0,00 0,00 0,00 0,00 309,76 31/01/2023
904 1486600 CAMILA KELLEN SILVA ALMONDES ESTAGIARIO MANTENA; MANTENA-PJ-03PJ 0,00 0,00 0,00 108,00 0,00 0,00 0,00 0,00 0,00 31/01/2023
905 1493300 CAMILA LIMA SANTANA ESTAGIARIO UBERLANDIA; UBERLANDIA-PJ-11PJ 0,00 0,00 0,00 72,00 0,00 0,00 0,00 0,00 0,00 31/01/2023
906 1456800 CAMILA LOBO SILVA ESTAGIARIO CONGONHAS; CONGONHAS-PJ-01PJ 0,00 0,00 0,00 120,00 0,00 0,00 0,00 0,00 0,00 31/01/2023
907 1478300 CAMILA MARIA DE OLIVEIRA ESTAGIARIO CARATINGA; CARATINGA-PJ-04PJ 0,00 0,00 0,00 120,00 0,00 0,00 0,00 0,00 0,00 31/01/2023
908 1231200 CAMILA MARIZ MACEDO ESTAGIARIO BELO HORIZONTE; GABINETE DE PROCURADOR DE JUSTIÇA - SALA 802 0,00 0,00 0,00 168,00 0,00 0,00 0,00 0,00 0,00 31/01/2023
909 547800 CAMILA MATTARELLI DE ABREU E SILVA ANALISTA DO MP BELO HORIZONTE - COMARCA; CAO-VIOLENCIA DOMESTICA E FAMILIAR 1.333,00 0,00 578,00 0,00 5.812,40 0,00 0,00 0,00 1.154,05 31/01/2023
910 1386700 CAMILA RODRIGUES COSTA ESTAGIARIO UBERABA; UBERABA-PJ-06PJ 0,00 0,00 0,00 84,00 0,00 0,00 0,00 0,00 0,00 31/01/2023
911 1290600 CAMILA RODRIGUES MAURO ESTAGIARIO CONTAGEM; CONTAGEM-PJ-22PJ 0,00 0,00 0,00 12,00 0,00 0,00 0,00 0,00 0,00 31/01/2023
912 1382700 CAMILA SANTOS SANTIAGO ESTAGIARIO BELO HORIZONTE; COORD ESTADUAL DE DEFESA DOS ANIMAIS 0,00 0,00 0,00 72,00 0,00 0,00 0,00 0,00 0,00 31/01/2023
913 1373400 CAMILA STEPHANIE SANTOS SILVA ESTAGIARIO VESPASIANO; VESPASIANO-PJ-03PJ 0,00 0,00 0,00 108,00 0,00 0,00 0,00 0,00 0,00 31/01/2023
914 1508000 CAMILA VIEIRA FREITAS ESTAGIARIO VARGINHA; COORD REG PP SUDOESTE MINAS GERAIS VARGINHA 0,00 0,00 0,00 120,00 0,00 0,00 0,00 0,00 0,00 31/01/2023
915 1347200 CAMILLA MARTINS DE FREITAS ESTAGIARIO BELO HORIZONTE; BH-02PJ FAMILIA-SECRETARIA 0,00 0,00 0,00 72,00 0,00 0,00 0,00 0,00 0,00 31/01/2023
916 1347600 CAMILLA PRINCE CAETANO DE OLIVEIRA ESTAGIARIO BELO HORIZONTE; CAO-CIVEL 0,00 0,00 0,00 12,00 0,00 0,00 0,00 0,00 0,00 31/01/2023
917 1361700 CAMILLA RABELO E SILVA ESTAGIARIO VARZEA DA PALMA; VARZEA DA PALMA-PJ-02PJ 0,00 0,00 0,00 120,00 0,00 0,00 0,00 0,00 0,00 31/01/2023
918 1409900 CAMILLE DE CARVALHO COELHO ESTAGIARIO GUANHAES; GUANHAES-PJ-02PJ 0,00 0,00 0,00 120,00 0,00 0,00 0,00 0,00 0,00 31/01/2023
919 1340100 CAMILLE MOREIRA CARRILHO SOARES ESTAGIARIO BELO HORIZONTE; GABINETE DE PROCURADOR DE JUSTIÇA - SALA 304 0,00 0,00 0,00 12,00 0,00 0,00 0,00 0,00 0,00 31/01/2023
920 430000 CANDIDA MARINA COSTA ANALISTA DO MP BELO HORIZONTE - COMARCA; DIRET DE INFORMACAO E CONHECIMENTO-DINC/CEAF 1.333,00 0,00 578,00 0,00 0,00 0,00 0,00 0,00 882,08 31/01/2023
921 614300 CARINA CORTIELHA OFICIAL DO MP BELO HORIZONTE - COMARCA; BH-23PJ CIVEL-FISC AC POL PUB I 1.333,00 0,00 578,00 0,00 0,00 0,00 0,00 0,00 362,20 31/01/2023
922 380400 CARINA DIAS FACANHA DE SOUZA ANALISTA DO MP SANTA RITA DO SAPUCAÍ - COMARCA; SANTA RITA DO SAPUCAI-PJ-01PJ 1.333,00 885,30 578,00 0,00 5.609,76 0,00 0,00 0,00 1.395,35 31/01/2023
923 255000 CARLA ADRIANA DE MENEZES OFICIAL DO MP BELO HORIZONTE - COMARCA; CENT DE APOIO TEC-SETOR DEF,IDOSO E INFANC 1.333,00 0,00 578,00 0,00 5.724,33 0,00 0,00 0,00 1.221,65 31/01/2023
924 425100 CARLA ADRIANA DINIZ AMARAL OFICIAL DO MP CONTAGEM - COMARCA; CONTAGEM-PJ-SECRETARIA 1.333,00 0,00 578,00 0,00 5.840,89 0,00 0,00 0,00 1.135,89 31/01/2023
925 508100 CARLA ALESSANDRA FONSECA ANALISTA DO MP BELO HORIZONTE - COMARCA; CAO-ORDEM ECONOMICA E TRIBUTARIA-SECRETARIA 1.333,00 0,00 578,00 0,00 5.812,40 0,00 0,00 0,00 1.215,56 31/01/2023
926 607100 CARLA ANGELICA DIAS MIRANDA OFICIAL DO MP JABOTICATUBAS - COMARCA; JABOTICATUBAS-PJ-UNPJ 1.333,00 0,00 578,00 0,00 5.891,30 0,00 0,00 0,00 927,87 31/01/2023
927 351500 CARLA APARECIDA MENDES RAMIRIO OFICIAL DO MP PASSOS - COMARCA; PASSOS-PJ-01PJ 1.333,00 0,00 578,00 0,00 0,00 0,00 0,00 0,00 688,10 31/01/2023
928 1508200 CARLA CRISTINA REIS ESTAGIARIO CANDEIAS; CANDEIAS-PJ-UNPJ 0,00 0,00 0,00 120,00 0,00 0,00 0,00 0,00 0,00 31/01/2023
929 713100 CARLA DOS SANTOS SOUZA ASSESSOR PROMOTOR JUSTICA ESPERA FELIZ - COMARCA; ESPERA FELIZ-PJ-UNPJ 1.333,00 0,00 578,00 0,00 0,00 0,00 0,00 0,00 176,38 31/01/2023
930 1498400 CARLA EDUARDA DA SILVA MONCAO ESTAGIARIO MONTES CLAROS; MONTES CLAROS-PJ-17PJ 0,00 0,00 0,00 72,00 0,00 0,00 0,00 0,00 0,00 31/01/2023
931 442800 CARLA GONCALVES COSTA SOALHEIRO ANALISTA DO MP GOVERNADOR VALADARES - COMARCA; GOVERNADOR VALADARES-PJ-11PJ 1.333,00 885,30 578,00 0,00 5.633,72 0,00 0,00 0,00 1.163,18 31/01/2023
932 321500 CARLA GONCALVES MASSOTE OFICIAL DO MP CAMPO BELO - COMARCA; CAMPO BELO-PJ-02PJ 1.333,00 0,00 578,00 0,00 5.724,33 0,00 0,00 0,00 1.148,61 31/01/2023
933 429200 CARLA HAUTEQUESTT BECHARA ANALISTA DO MP BELO HORIZONTE - COMARCA; DIRET DE INFORMACAO E CONHECIMENTO-DINC/CEAF 1.333,00 0,00 578,00 0,00 0,00 0,00 0,00 0,00 1.035,05 31/01/2023
934 1214400 CARLA LEOPOLDO DE OLIVEIRA ESTAGIARIO JUIZ DE FORA; GAECO REGIONAL DA ZONA DA MATA-JUIZ DE FORA 0,00 0,00 0,00 84,00 1.973,33 0,00 0,00 0,00 0,00 31/01/2023
935 157400 CARLA MARIA ALESSI LAFETA DE CARVALHO PROMOT.ENTRANC.ESPECIAL BELO HORIZONTE - COMARCA; BH-02PJ FAMILIA-GAB 029PJ 1.333,00 0,00 2.912,45 0,00 15.120,40 0,00 0,00 0,00 0,00 31/01/2023
936 247500 CARLA MATILDE GUIMARAES DE OLIVEIRA OFICIAL DO MP ITAJUBA - COMARCA; ITAJUBA-PJ-SECRETARIA 1.333,00 0,00 578,00 0,00 0,00 0,00 0,00 0,00 736,86 31/01/2023
937 226100 CARLA MERLI DA CONCEICAO ANALISTA DO MP BELO HORIZONTE - COMARCA; CENTRAL DE APOIO TECNICO-SETOR CONTABIL 1.333,00 0,00 578,00 0,00 5.760,89 0,00 0,00 0,00 1.892,35 31/01/2023
938 685700 CARLA PRISCILLA PEREIRA VIANA PROMOTOR SUBSTITUTO GOVERNADOR VALADARES - COMARCA; GOVERNADOR VALADARES-PJ-05PJ 1.333,00 0,00 3.040,44 0,00 15.202,21 0,00 0,00 0,00 464,51 31/01/2023
939 343100 CARLA REGINA GOULART SALARO DUVANEL PROMOT.ENTRANC.ESPECIAL GOVERNADOR VALADARES - COMARCA; GOVERNADOR VALADARES-PJ-06PJ 1.333,00 0,00 1.685,54 0,00 5.614,85 0,00 0,00 0,00 514,69 31/01/2023
940 1402100 CARLA ROBERTA MONTEIRO NASCIMENTO ESTAGIARIO BELO HORIZONTE; BH-13PJ JUIZO DE TOXICOS-COORD PJ 0,00 0,00 0,00 96,00 0,00 0,00 0,00 0,00 0,00 31/01/2023
941 532600 CARLA RODRIGUES FAZUOLI PROMOTOR 2A ENTRANCIA SACRAMENTO - COMARCA; SACRAMENTO-PJ-02PJ 1.333,00 0,00 3.200,47 0,00 0,00 0,00 0,00 0,00 0,00 31/01/2023
942 1474200 CARLEUGENIA ROCHA GOMES ESTAGIARIO OURO PRETO; OURO PRETO-PJ-04PJ 0,00 0,00 0,00 108,00 0,00 0,00 0,00 0,00 0,00 31/01/2023
943 181401 CARLO MICHEL GAUDENSI COELHO ANALISTA DO MP BELO HORIZONTE - COMARCA; BH-08PJ JUIZADO ESPECIAL-SECRETARIA 1.333,00 0,00 578,00 0,00 5.261,61 0,00 0,00 0,00 1.579,34 31/01/2023
944 634000 CARLOS ALBERTO AMORMINO TRIGUEIRO ANALISTA DO MP BELO HORIZONTE - COMARCA; DIRET DE APOIO AS PROCURADORIAS DE JUSTICA 1.333,00 885,30 578,00 0,00 0,00 0,00 0,00 0,00 515,04 31/01/2023
945 232300 CARLOS ALBERTO DA SILVEIRA ISOLDI FILHO PROMOT.ENTRANC.ESPECIAL BELO HORIZONTE - COMARCA; CORREGEDORIA-GERAL-ASSESSORIA 1.333,00 0,00 3.368,91 0,00 6.263,07 0,00 0,00 0,00 574,11 31/01/2023
946 637900 CARLOS ALBERTO DE MOURA OFICIAL DO MP SETE LAGOAS - COMARCA; SETE LAGOAS-PJ-07PJ 1.333,00 0,00 578,00 0,00 0,00 0,00 0,00 0,00 322,49 31/01/2023
947 638700 CARLOS ALBERTO FERREIRA BRAGA ANALISTA DO MP VESPASIANO - COMARCA; VESPASIANO-PJ-06PJ 1.333,00 0,00 578,00 0,00 5.719,78 0,00 0,00 0,00 1.079,73 31/01/2023
948 54400 CARLOS ALBERTO RIBEIRO MOREIRA PROMOTOR 2A ENTRANCIA LAVRAS - COMARCA; LAVRAS-PJ-02PJ 1.333,00 0,00 3.039,08 0,00 22.680,60 0,00 0,00 0,00 693,02 31/01/2023
949 375801 CARLOS ALBERTO ROCHA ANALISTA DO MP VARGINHA - COMARCA; GAECO REGIONAL DE VARGINHA 1.333,00 885,30 578,00 0,00 0,00 0,00 0,00 0,00 593,23 31/01/2023
950 110700 CARLOS ALBERTO VALERA PROMOT.ENTRANC.ESPECIAL UBERABA - COMARCA; UBERABA-PJ-08PJ 1.333,00 0,00 1.392,91 0,00 19.646,66 0,00 0,00 0,00 600,31 31/01/2023
951 94200 CARLOS ANDRE MARIANI BITTENCOURT PROCURADOR DE JUSTICA BELO HORIZONTE - COMARCA; PROCURADORIA-GERAL ADJUNTA INSTITUCIONAL 1.333,00 0,00 3.546,22 0,00 19.646,67 0,00 0,00 0,00 600,31 31/01/2023
952 462800 CARLOS ANDREI SOARES FAGUNDES ANALISTA DO MP MONTES CLAROS - COMARCA; MONTES CLAROS-PJ-09PJ 1.333,00 0,00 578,00 0,00 5.812,40 0,00 0,00 0,00 1.172,74 31/01/2023
953 370300 CARLOS AUGUSTO BUENO DIAS ASSESSOR ADMINISTRATIVO IV BELO HORIZONTE - COMARCA; SUPERINTENDÊNCIA DE ENGENHARIA E ARQUITETURA 1.333,00 0,00 578,00 0,00 5.685,22 0,00 0,00 0,00 1.038,63 31/01/2023
954 66200 CARLOS AUGUSTO CANEDO GONCALVES DA SILVA PROCURADOR DE JUSTICA BELO HORIZONTE - COMARCA; GABINETE DE PROCURADOR DE JUSTIÇA - SALA 911 1.333,00 0,00 3.546,22 0,00 7.560,20 0,00 0,00 0,00 693,02 31/01/2023
955 83200 CARLOS AUGUSTO ESTEVES DE CARVALHO PROMOT.ENTRANC.ESPECIAL JUIZ DE FORA - COMARCA; JUIZ DE FORA-PJ-16PJ 1.333,00 0,00 2.279,31 0,00 19.656,52 0,00 0,00 0,00 693,02 31/01/2023
956 143500 CARLOS AUGUSTO GOMES BRAGA PROMOT.ENTRANC.ESPECIAL BELO HORIZONTE - COMARCA; BH-03PJ EMPRESARIAL-GAB 036PJ 1.333,00 0,00 3.003,10 0,00 11.788,00 0,00 0,00 0,00 600,31 31/01/2023
957 110800 CARLOS CESAR MARQUES LUZ PROMOTOR 1A ENTRANCIA JACUTINGA - COMARCA; JACUTINGA-PJ-UNPJ 1.333,00 0,00 1.314,93 0,00 21.596,73 0,00 0,00 0,00 659,90 31/01/2023
958 505100 CARLOS CEZAR CARVALHO ANALISTA DO MP CONTAGEM - COMARCA; CONTAGEM-PJ-02PJ 1.333,00 0,00 578,00 0,00 5.548,20 0,00 0,00 0,00 1.308,85 31/01/2023
959 344300 CARLOS EDUARDO AVANZI DE ALMEIDA PROMOTOR 2A ENTRANCIA CAMPO BELO - COMARCA; CAMPO BELO-PJ-03PJ 1.333,00 0,00 3.200,47 0,00 16.002,33 0,00 0,00 0,00 488,96 31/01/2023
960 196800 CARLOS EDUARDO DE OLIVEIRA MARINHO OFICIAL DO MP ALPINÓPOLIS - COMARCA; ALPINOPOLIS-PJ-UNPJ 1.333,00 0,00 578,00 0,00 5.178,14 0,00 0,00 0,00 2.200,87 31/01/2023
961 1485700 CARLOS EDUARDO DOS SANTOS WALTER ESTAGIARIO BETIM; BETIM-PJ-09PJ 0,00 0,00 0,00 96,00 0,00 0,00 0,00 0,00 0,00 31/01/2023
962 157500 CARLOS EDUARDO DUTRA PIRES PROMOT.ENTRANC.ESPECIAL SETE LAGOAS - COMARCA; SETE LAGOAS-PJ-02PJ 1.333,00 0,00 2.405,94 0,00 22.680,60 0,00 0,00 0,00 693,02 31/01/2023
963 483200 CARLOS EDUARDO FERNANDES NEVES RIBEIRO PROMOT.ENTRANC.ESPECIAL BARBACENA - COMARCA; BARBACENA-PJ-08PJ 1.333,00 0,00 3.368,91 0,00 16.844,55 0,00 0,00 0,00 514,69 31/01/2023
964 315400 CARLOS EDUARDO FERREIRA PINTO PROMOT.ENTRANC.ESPECIAL BELO HORIZONTE - COMARCA; CAO-MEIO AMBIENTE 1.333,00 0,00 2.633,87 0,00 16.844,55 0,00 0,00 0,00 514,69 31/01/2023
965 1521100 CARLOS EDUARDO FRANKLIN DOS SANTOS ESTAGIARIO 0,00 0,00 0,00 120,00 0,00 0,00 0,00 0,00 0,00 31/01/2023
966 55300 CARLOS EDUARDO MAFRA CAVALCANTI PROCURADOR DE JUSTICA BELO HORIZONTE - COMARCA; GABINETE DE PROCURADOR DE JUSTIÇA - SALA 503 1.333,00 0,00 3.039,08 0,00 22.680,60 0,00 0,00 0,00 693,02 31/01/2023
967 650800 CARLOS EDUARDO NIZA DA SILVA OFICIAL DO MP IGARAPÉ - COMARCA; IGARAPE-PJ-01PJ 1.333,00 885,30 578,00 0,00 0,00 0,00 0,00 0,00 291,09 31/01/2023
968 491800 CARLOS EDUARDO ROMAN OFICIAL DO MP BARBACENA - COMARCA; BARBACENA-PJ-09PJ 1.333,00 0,00 578,00 0,00 0,00 0,00 0,00 0,00 514,82 31/01/2023
969 1333500 CARLOS EDUARDO SANTOS DIAS ESTAGIARIO ALMENARA; ALMENARA-PJ-01PJ 0,00 0,00 0,00 108,00 0,00 0,00 0,00 0,00 0,00 31/01/2023
970 157600 CARLOS EUGENIO SOUTO MAIOR FILIZOLA JUNIOR PROMOT.ENTRANC.ESPECIAL BELO HORIZONTE - COMARCA; BH-12PJ JUIZO CRIMINAL-GAB 099PJ 1.333,00 0,00 3.094,20 0,00 0,00 0,00 0,00 0,00 -1.354,57 31/01/2023
971 299300 CARLOS HENRIQUE BICALHO ANALISTA DO MP BELO HORIZONTE - COMARCA; BH-17PJ PATRIMONIO PUBLICO-SECRETARIA 1.333,00 885,30 578,00 0,00 5.760,89 0,00 0,00 0,00 2.010,45 31/01/2023
972 205100 CARLOS HENRIQUE ESTEVES OFICIAL DO MP ITAMBACURI - COMARCA; ITAMBACURI-PJ-01PJ 1.333,00 0,00 578,00 0,00 0,00 0,00 0,00 0,00 1.384,18 31/01/2023
973 351600 CARLOS HENRIQUE FELICIO DA FONSECA OFICIAL DO MP JUIZ DE FORA - COMARCA; JUIZ DE FORA-PJ-21PJ 1.333,00 0,00 578,00 0,00 5.724,33 0,00 0,00 0,00 1.245,14 31/01/2023
974 1473800 CARLOS HENRIQUE PEREIRA DA SILVA ESTAGIARIO CARATINGA; CARATINGA-PJ-06PJ 0,00 0,00 0,00 120,00 0,00 0,00 0,00 0,00 0,00 31/01/2023
975 729100 CARLOS HENRIQUE TEIXEIRA BRAGA ASSESSOR ADMINISTRATIVO II BELO HORIZONTE - COMARCA; DIRETORIA DE SUPORTE E MANUTENCAO 1.333,00 0,00 578,00 0,00 0,00 0,00 0,00 0,00 0,00 31/01/2023
976 210900 CARLOS HENRIQUE TORRES DE SOUZA PROMOT.ENTRANC.ESPECIAL BELO HORIZONTE - COMARCA; BH-06PJ JUIZO CIVEL-GAB 055PJ 1.333,00 0,00 3.368,91 0,00 18.789,20 0,00 0,00 0,00 574,11 31/01/2023
977 104600 CARLOS JOSE E SILVA FORTES PROMOT.ENTRANC.ESPECIAL DIVINÓPOLIS - COMARCA; DIVINOPOLIS-PJ-06PJ 1.333,00 0,00 3.064,40 0,00 19.477,11 0,00 0,00 0,00 595,13 31/01/2023
978 85400 CARLOS JOSE VIEIRA OFICIAL DO MP BELO HORIZONTE - COMARCA; DIRETORIA DO COLEGIO E DA CAMARA DE PJ 1.333,00 0,00 578,00 0,00 5.673,95 0,00 0,00 0,00 520,11 31/01/2023
979 1298700 CARLOS MAGNO DE ASSIS DUTRA ESTAGIARIO NOVA SERRANA; NOVA SERRANA-PJ-03PJ 0,00 0,00 0,00 60,00 0,00 0,00 0,00 0,00 0,00 31/01/2023
980 229100 CARLOS MERCES DE OLIVEIRA ANALISTA DO MP BELO HORIZONTE - COMARCA; CENTRAL DE APOIO TECN-SETOR DE MEIO AMBIENTE 1.333,00 0,00 578,00 0,00 0,00 0,00 0,00 0,00 1.263,12 31/01/2023
981 538300 CARLOS RANGEL SILVA DE MELO ANALISTA DO MP BELO HORIZONTE - COMARCA; DIVISAO DE CONTROLE IMOBILIARIO 1.333,00 1.770,60 578,00 0,00 0,00 0,00 0,00 0,00 672,54 31/01/2023
982 265100 CARLOS REIFF MIRANDA ANALISTA DO MP BELO HORIZONTE - COMARCA; BH-19PJ SAUDE-SECRETARIA 150PJ 1.333,00 0,00 578,00 0,00 0,00 0,00 0,00 0,00 1.169,64 31/01/2023
983 305400 CARLOS ROCHA DE SOUZA OFICIAL DO MP MONTALVÂNIA - COMARCA; MONTALVANIA-PJ-SECRETARIA 1.333,00 0,00 578,00 0,00 5.918,08 0,00 0,00 0,00 1.001,18 31/01/2023
984 371600 CARLOS SAMUEL BORGES CUNHA PROMOT.ENTRANC.ESPECIAL BARBACENA - COMARCA; BARBACENA-PJ-07PJ 1.333,00 0,00 1.899,43 0,00 16.844,55 0,00 0,00 0,00 514,69 31/01/2023
985 1436300 CARLOS VINICIUS JOTA COSTA ESTAGIARIO BELO HORIZONTE; GABINETE DE PROCURADOR DE JUSTIÇA - SALA 912 0,00 0,00 0,00 12,00 0,00 0,00 0,00 0,00 0,00 31/01/2023
986 293400 CARLOS WILDE RIBEIRO DE MELLO PROMOT.ENTRANC.ESPECIAL JUIZ DE FORA - COMARCA; JUIZ DE FORA-PJ-09PJ 1.333,00 0,00 3.140,38 0,00 16.844,55 0,00 0,00 0,00 514,69 31/01/2023
987 1265300 CARMELITA DE ALMEIDA SOUZA ESTAGIARIO PRATAPOLIS; PRATAPOLIS-PJ-UNPJ 0,00 0,00 0,00 0,00 1.726,67 0,00 0,00 0,00 0,00 31/01/2023
988 399900 CARMELITA EVANGELISTA DE SOUZA OFICIAL DO MP JOÃO PINHEIRO - COMARCA; JOAO PINHEIRO-PJ-01PJ 1.333,00 0,00 578,00 0,00 0,00 0,00 0,00 0,00 587,03 31/01/2023
989 202000 CARMEN LUCIA MARIZ DE MACEDO OFICIAL DO MP BELO HORIZONTE - COMARCA; DIRETORIA GESTAO COMPRAS LICITACOES 1.333,00 0,00 578,00 0,00 0,00 0,00 0,00 0,00 1.516,02 31/01/2023
990 1552000 CAROLAINY KENIA DE SALES ESTAGIARIO PEDRO LEOPOLDO; PEDRO LEOPOLDO-PJ-03PJ 0,00 0,00 0,00 12,00 0,00 0,00 0,00 0,00 0,00 31/01/2023
991 1312300 CAROLINA ABREU DOS SANTOS ESTAGIARIO SETE LAGOAS; SETE LAGOAS-PJ-01PJ 0,00 0,00 0,00 72,00 0,00 0,00 0,00 0,00 0,00 31/01/2023
992 1462200 CAROLINA AMANDA DA SILVA ESTAGIARIO BAEPENDI; BAEPENDI-PJ-UNPJ 0,00 0,00 0,00 120,00 0,00 0,00 0,00 0,00 0,00 31/01/2023
993 1315000 CAROLINA AMARAL OLIVEIRA RODRIGUES ESTAGIARIO MONTES CLAROS; COORD REG SAUDE MACRORREGIAO SANITARIA NORTE 0,00 0,00 0,00 120,00 0,00 0,00 0,00 0,00 0,00 31/01/2023
994 359700 CAROLINA ANDRADE BORGES DE MATTOS PROMOTOR SUBSTITUTO BICAS - COMARCA; BICAS-PJ-UNPJ 1.333,00 0,00 2.633,87 0,00 0,00 0,00 0,00 0,00 0,00 31/01/2023
995 1404300 CAROLINA BARBOSA GUEDES ESTAGIARIO UBERLANDIA; UBERLANDIA-PJ-05PJ 0,00 0,00 0,00 120,00 0,00 0,00 0,00 0,00 0,00 31/01/2023
996 1403600 CAROLINA BEDESCHI CALAIS ESTAGIARIO BELO HORIZONTE; GABINETE DE PROCURADOR DE JUSTIÇA - SALA 707 0,00 0,00 0,00 -12,00 0,00 0,00 0,00 0,00 0,00 31/01/2023
997 1454400 CAROLINA CABECO PEREIRA ESTAGIARIO FRUTAL; FRUTAL-PJ-05PJ 0,00 0,00 0,00 60,00 0,00 0,00 0,00 0,00 0,00 31/01/2023
998 701900 CAROLINA CARVALHO COSTA ASSESSOR PROCURADOR JUSTICA BELO HORIZONTE - COMARCA; GABINETE DE PROCURADOR DE JUSTIÇA - SALA 811 1.333,00 0,00 578,00 0,00 4.714,66 0,00 0,00 0,00 727,40 31/01/2023
999 611000 CAROLINA CERIGATTO PROMOT.ENTRANC.ESPECIAL GOVERNADOR VALADARES - COMARCA; GOVERNADOR VALADARES-PJ-11PJ 1.333,00 0,00 0,00 0,00 20.213,46 0,00 0,00 0,00 514,69 31/01/2023
1000 228500 CAROLINA CHIARELLA DOS SANTOS RIBEIRO COORDENADOR I BELO HORIZONTE - COMARCA; DIVISAO TRANSPORTES 1.333,00 0,00 578,00 0,00 5.346,29 0,00 0,00 0,00 2.030,29 31/01/2023
1001 446500 CAROLINA COSTA VAL RODRIGUES ANALISTA DO MP BELO HORIZONTE - COMARCA; DIVISAO DE MATERIAIS 1.333,00 0,00 578,00 0,00 5.567,46 0,00 0,00 0,00 1.527,55 31/01/2023
1002 1501900 CAROLINA DE CAMARGOS PEREIRA BARCELLOS ESTAGIARIO BELO HORIZONTE; BH-09PJ AUDITORIA MILITAR-GAB 161PJ 0,00 0,00 0,00 120,00 0,00 0,00 0,00 0,00 0,00 31/01/2023
1003 603501 CAROLINA DOMINGOS BRANDAO RABELLO ANALISTA DO MP BARROSO - COMARCA; BARROSO-PJ-01PJ 1.333,00 885,30 578,00 0,00 0,00 0,00 0,00 0,00 502,90 31/01/2023
1004 404300 CAROLINA DOS SANTOS VIEIRA ANALISTA DO MP BELO HORIZONTE - COMARCA; BH-08PJ JUIZADO ESPECIAL-SECRETARIA 1.333,00 0,00 578,00 0,00 5.609,76 0,00 0,00 0,00 1.487,09 31/01/2023
1005 634600 CAROLINA FRARE LAMEIRINHA PROMOTOR 2A ENTRANCIA PATOS DE MINAS - COMARCA; COORD REG BACIAS PARACATU,URUCUIA E ABAETE 1.333,00 0,00 2.785,82 0,00 0,00 0,00 0,00 0,00 0,00 31/01/2023
1006 405401 CAROLINA GENTIL MEDEIROS MARQUEZ PROMOTOR 2A ENTRANCIA LAGOA SANTA - COMARCA; LAGOA SANTA - 03ª PJ 1.333,00 0,00 3.039,08 0,00 10.668,22 0,00 0,00 0,00 488,96 31/01/2023
1007 551200 CAROLINA LOPES ARANTES MASCARENHAS ANALISTA DO MP BELO HORIZONTE - COMARCA; CAO-VIOLENCIA DOMESTICA E FAMILIAR 1.333,00 885,30 578,00 0,00 0,00 0,00 0,00 0,00 528,32 31/01/2023
1008 622600 CAROLINA LOREDO LOPES CATIZANI OFICIAL DO MP RIBEIRÃO DAS NEVES - COMARCA; RIBEIRAO DAS NEVES-PJ-12PJ 1.333,00 0,00 578,00 0,00 5.886,60 0,00 0,00 0,00 908,86 31/01/2023
1009 1244000 CAROLINA MARIA DE ANDRADE RAMOS ESTAGIARIO GUARANI; GUARANI-PJ-UNPJ 0,00 0,00 0,00 60,00 0,00 0,00 0,00 0,00 0,00 31/01/2023
1010 362900 CAROLINA MARQUES ANDRADE PROMOT.ENTRANC.ESPECIAL UBERABA - COMARCA; UBERABA-PJ-16PJ 1.333,00 0,00 3.241,68 0,00 8.983,76 0,00 0,00 0,00 514,69 31/01/2023
1011 1551100 CAROLINA MARTINS VITA ESTAGIARIO BELO HORIZONTE; GABINETE DE PROCURADOR DE JUSTIÇA - SALA 303 0,00 0,00 0,00 48,00 0,00 0,00 0,00 0,00 0,00 31/01/2023
1012 457400 CAROLINA MELO CAMPOS PROMOTOR SUBSTITUTO RIBEIRÃO DAS NEVES - COMARCA; RIBEIRAO DAS NEVES-PJ-10PJ 1.333,00 0,00 1.013,03 0,00 11.148,28 0,00 0,00 0,00 464,51 31/01/2023
1013 382200 CAROLINA MENDES CHAVES LIN ANALISTA DO MP BELO HORIZONTE - COMARCA; BH-12PJ JUIZO CRIMINAL-GAB 088PJ 1.333,00 885,30 578,00 0,00 0,00 0,00 0,00 0,00 625,56 31/01/2023
1014 313600 CAROLINA MENDONCA DE SIQUEIRA PROMOT.ENTRANC.ESPECIAL BETIM - COMARCA; BETIM-PJ-08PJ 1.333,00 0,00 1.519,54 0,00 14.598,61 0,00 0,00 0,00 514,69 31/01/2023
1015 461900 CAROLINA MURTA TEIXEIRA DIAS ANALISTA DO MP BELO HORIZONTE - COMARCA; CENTRO AUTOCOMPOSICAO DE CONFLITOS 1.333,00 0,00 578,00 0,00 0,00 0,00 0,00 0,00 688,21 31/01/2023
1016 509600 CAROLINA PINTO DE OLIVEIRA SOUZA ANALISTA DO MP MURIAÉ - COMARCA; MURIAE-PJ-01PJ 1.333,00 885,30 578,00 0,00 5.812,40 0,00 0,00 0,00 1.207,20 31/01/2023
1017 526400 CAROLINA QUEIROZ DE CARVALHO PROMOT.ENTRANC.ESPECIAL CONSELHEIRO LAFAIETE - COMARCA; CONSELHEIRO LAFAIETE-PJ-02PJ 1.333,00 0,00 1.359,20 0,00 14.598,61 0,00 0,00 0,00 514,69 31/01/2023
1018 1412700 CAROLINA REIS SILVA ESTAGIARIO PATOS DE MINAS; PATOS DE MINAS-PJ-04PJ 0,00 0,00 0,00 108,00 0,00 0,00 0,00 0,00 0,00 31/01/2023
1019 667000 CAROLINA RITA TORRES GRUBER PROMOTOR 2A ENTRANCIA SÃO FRANCISCO - COMARCA; SAO FRANCISCO-PJ-01PJ 1.333,00 0,00 1.910,15 0,00 16.002,33 0,00 0,00 0,00 488,96 31/01/2023
1020 629100 CAROLINA RODRIGUES AMARAL ANALISTA DO MP BELO HORIZONTE - COMARCA; PROC. JUSTICA DIR. DIFUSOS E COLETIVOS-SEC 1.333,00 0,00 578,00 0,00 0,00 0,00 0,00 0,00 557,36 31/01/2023
1021 502600 CAROLINA RODRIGUES RUBEN ANALISTA DO MP BELO HORIZONTE - COMARCA; BH-18PJ VIOLENCIA DOMESTICA-GAB 007PJ 1.333,00 1.770,60 578,00 0,00 5.812,40 0,00 0,00 0,00 1.172,85 31/01/2023
1022 529600 CAROLINA VAZ DE MELO MAMBRINI ANALISTA DO MP BELO HORIZONTE - COMARCA; BH-14PJ DEFESA CONSUMIDOR-GAB 005PJ 1.333,00 0,00 578,00 0,00 0,00 0,00 0,00 0,00 515,74 31/01/2023
1023 619100 CAROLINA ZAKHIA NARDELLI RODRIGUES ANALISTA DO MP NEPOMUCENO - COMARCA; NEPOMUCENO-PJ-UNPJ 1.333,00 885,30 578,00 0,00 5.905,99 0,00 0,00 0,00 1.168,36 31/01/2023
1024 517600 CAROLINE ALVES DE OLIVEIRA MULLER ANALISTA DO MP VISCONDE DO RIO BRANCO - COMARCA; VISCONDE DO RIO BRANCO-PJ-01PJ 1.333,00 0,00 578,00 0,00 0,00 0,00 0,00 0,00 595,66 31/01/2023
1025 373200 CAROLINE ANTUNES RIBEIRO OFICIAL DO MP JACUI - COMARCA; JACUI-PJ-UNPJ 1.333,00 0,00 578,00 0,00 5.812,40 0,00 0,00 0,00 1.194,82 31/01/2023
1026 723500 CAROLINE CORDEIRO FERNANDES MACHADO ASSESSOR PROMOTOR JUSTICA BELO HORIZONTE - COMARCA; COORD DE INCLUSAO E MOBILIZACAO SOCIAIS 1.333,00 0,00 578,00 0,00 0,00 0,00 0,00 0,00 0,00 31/01/2023
1027 556800 CAROLINE DE SOUZA CARDOSO DOMINGUES OFICIAL DO MP BRASÍLIA DE MINAS - COMARCA; BRASILIA DE MINAS-PJ-02PJ 1.333,00 0,00 578,00 0,00 0,00 0,00 0,00 0,00 369,90 31/01/2023
1028 1540100 CAROLINE FERNANDA ALVES SOUSA ESTAGIARIO ITAUNA; ITAUNA-PJ-01PJ 0,00 0,00 0,00 120,00 0,00 0,00 0,00 0,00 0,00 31/01/2023
1029 1448200 CAROLINE GONCALVES CARVALHO ESTAGIARIO PAINS; ALFENAS-PJ-06PJ 0,00 0,00 0,00 120,00 0,00 0,00 0,00 0,00 0,00 31/01/2023
1030 1428300 CAROLINE GUIMARAES DAMASCENO ESTAGIARIO SANTA LUZIA; SANTA LUZIA-PJ-01PJ 0,00 0,00 0,00 72,00 0,00 0,00 0,00 0,00 0,00 31/01/2023
1031 1498300 CAROLINE LIMA LOIOLA ESTAGIARIO GOVERNADOR VALADARES; GOVERNADOR VALADARES-PJ-08PJ 0,00 0,00 0,00 108,00 0,00 0,00 0,00 0,00 0,00 31/01/2023
1032 499400 CAROLINE MARQUES DE LOURDES MARZULLO OFICIAL DO MP JUIZ DE FORA - COMARCA; JUIZ DE FORA-PJ-08PJ 1.333,00 1.327,95 578,00 0,00 0,00 0,00 0,00 0,00 465,98 31/01/2023
1033 616800 CAROLINE MONTEIRO DE BARROS ANALISTA DO MP CONTAGEM - COMARCA; CONTAGEM-PJ-11PJ 1.333,00 0,00 578,00 0,00 5.905,99 0,00 0,00 0,00 1.154,74 31/01/2023
1034 1458900 CAROLINE NOGUEIRA SPINDOLA ESTAGIARIO GRAO MOGOL; GRAO MOGOL-PJ-UNPJ 0,00 0,00 0,00 96,00 0,00 0,00 0,00 0,00 0,00 31/01/2023
1035 1395700 CAROLINE OLIVEIRA MOREIRA DOS SANTOS ESTAGIARIO IBIRITE; IBIRITE-PJ-03PJ 0,00 0,00 0,00 96,00 0,00 0,00 0,00 0,00 0,00 31/01/2023
1036 1401200 CAROLINE ORLETTI GUARISE ESTAGIARIO GOVERNADOR VALADARES; GOVERNADOR VALADARES-PJ-01PJ 0,00 0,00 0,00 120,00 0,00 0,00 0,00 0,00 0,00 31/01/2023
1037 342500 CAROLINE PESTANA GOMES PROMOT.ENTRANC.ESPECIAL VESPASIANO - COMARCA; VESPASIANO-PJ-06PJ 1.333,00 0,00 3.368,91 0,00 5.614,85 0,00 0,00 0,00 514,69 31/01/2023
1038 1368000 CAROLINE SILVA LOPES ESTAGIARIO BELO HORIZONTE; PROC. JUSTICA DIR. DIFUSOS E COLETIVOS
1039 618100 CAROLINE VASCONCELOS COSTA LANZA ANALISTA DO MP PARAOPEBA - COMARCA; PARAOPEBA-PJ-UNPJ 1.333,00 1.770,60 578,00 0,00 5.905,99 0,00 0,00 0,00 1.135,67 31/01/2023
1040 699000 CAROLLINA RODRIGUES SOUTO AMARAL ASSESSOR PROCURADOR JUSTICA BELO HORIZONTE - COMARCA; GABINETE DE PROCURADOR DE JUSTIÇA - SALA 405 1.333,00 0,00 578,00 0,00 0,00 0,00 0,00 0,00 320,26 31/01/2023
1041 210600 CASSANDRA DA CONCEICAO DANTAS SERRAO PROMOT.ENTRANC.ESPECIAL BELO HORIZONTE - COMARCA; BH-02PJ FAMILIA-GAB 026PJ 1.333,00 0,00 2.178,00 0,00 5.938,96 0,00 0,00 0,00 544,40 31/01/2023
1042 604000 CASSIA APARECIDA DA SILVA OFICIAL DO MP PARACATU - COMARCA; PARACATU-PJ-01PJ 1.333,00 0,00 578,00 0,00 0,00 0,00 0,00 0,00 327,86 31/01/2023
1043 268800 CASSIA BEATRIZ TEIXEIRA OFICIAL DO MP BELO HORIZONTE - COMARCA; PROC. JUSTICA DE HABEAS CORPUS 1.333,00 0,00 578,00 0,00 5.816,09 0,00 0,00 0,00 1.745,63 31/01/2023
1044 500000 CASSIA DE OLIVEIRA COSTA VIANA ANALISTA DO MP SETE LAGOAS - COMARCA; SETE LAGOAS-PJ-09PJ 1.333,00 0,00 578,00 0,00 0,00 0,00 0,00 0,00 794,89 31/01/2023
1045 368800 CASSIA LUISA BATISTA MENDONCA WEBER COORDENADOR II BELO HORIZONTE - COMARCA; DIVISÃO DE EDUCAÇÃO PARA O CONSUMO 1.333,00 0,00 578,00 0,00 5.713,46 0,00 0,00 0,00 1.419,84 31/01/2023
1046 622200 CASSIA VAZ DE AZEVEDO LISBOA MARZANO ASSESSOR ADMINISTRATIVO III BELO HORIZONTE - COMARCA; CGMP-SECRETARIA DA CORREGEDORIA-GERAL DO MP 1.333,00 0,00 578,00 0,00 5.810,54 0,00 0,00 0,00 690,33 31/01/2023
1047 156100 CASSIA VIRGINIA SERRA TEIXEIRA GONTIJO PROCURADOR DE JUSTICA BELO HORIZONTE - COMARCA; GABINETE DE PROCURADOR DE JUSTIÇA - SALA 804 1.333,00 0,00 2.912,45 0,00 22.680,60 0,00 0,00 0,00 693,02 31/01/2023
1048 1532800 CASSIO BRAGA DOS SANTOS ESTAGIARIO JOAO PINHEIRO; JOAO PINHEIRO-PJ-01PJ 0,00 0,00 0,00 120,00 0,00 0,00 0,00 0,00 0,00 31/01/2023
1049 1527300 CASSIO DA SILVA COSTA MOREIRA ESTAGIARIO MATEUS LEME; MATEUS LEME-PJ-02PJ 0,00 0,00 0,00 156,00 0,00 0,00 0,00 0,00 0,00 31/01/2023
1050 121000 CASSIO HENRIQUE AFONSO DA SILVA OFICIAL DO MP BELO HORIZONTE - COMARCA; CGMP-ASSESSORIA JURIDICA 1.333,00 0,00 578,00 0,00 5.673,95 0,00 0,00 0,00 2.198,37 31/01/2023
1051 1374800 CASSIO LUCAS RIBAS NUNES ESTAGIARIO SAO LOURENCO; SAO LOURENCO-PJ-03PJ 0,00 0,00 0,00 120,00 0,00 0,00 0,00 0,00 0,00 31/01/2023
1052 512001 CATARINA NATALINO CALIXTO COORDENADOR II BELO HORIZONTE - COMARCA; DIRETORIA GESTAO TRANSPORTES 1.333,00 885,30 578,00 0,00 0,00 0,00 0,00 0,00 685,25 31/01/2023
1053 606200 CATARINE DE SIQUEIRA DE QUADROS ANALISTA DO MP CONTAGEM - COMARCA; CONTAGEM-PJ-08PJ 1.333,00 885,30 578,00 0,00 5.812,40 0,00 0,00 0,00 1.149,52 31/01/2023
1054 622300 CECILIA APARECIDA PEREIRA ASSUNCAO OFICIAL DO MP TRÊS PONTAS - COMARCA; TRES PONTAS-PJ-SECRETARIA 1.333,00 885,30 578,00 0,00 0,00 0,00 0,00 0,00 382,50 31/01/2023
1055 538000 CECILIA FONTES DE MATOS PIMENTEL ANALISTA DO MP PALMA - COMARCA; PALMA-PJ-UNPJ 1.333,00 885,30 578,00 0,00 0,00 0,00 0,00 0,00 617,98 31/01/2023
1056 1520200 CECILIA GIAMMINONNI BARBOSA OZOLIO ESTAGIARIO BELO HORIZONTE; ASSESSORIA ESPECIAL DO PGJ 0,00 0,00 0,00 72,00 0,00 0,00 0,00 0,00 0,00 31/01/2023
1057 261300 CECILIO ANTONIO CAMPOS DOS REIS ANALISTA DO MP BELO HORIZONTE - COMARCA; AUDITORIA INTERNA 1.333,00 0,00 578,00 0,00 0,00 0,00 0,00 0,00 1.450,64 31/01/2023
1058 386400 CEFAS AMORELI DE FIGUEIREDO OFICIAL DO MP CABO VERDE - COMARCA; CABO VERDE-PJ-SECRETARIA 1.333,00 0,00 578,00 0,00 4.820,15 0,00 0,00 0,00 829,96 31/01/2023
1059 105600 CELIA BEATRIZ GOMES DOS SANTOS PROCURADOR DE JUSTICA BELO HORIZONTE - COMARCA; PROC JUSTICA DIR DIFUSOS E COLETIVOS-GAB006 1.333,00 0,00 2.000,73 0,00 22.680,60 0,00 0,00 0,00 693,02 31/01/2023
1060 421000 CELINA BENEDITA DE SOUZA ALMEIDA OFICIAL DO MP CAMBUÍ - COMARCA; CAMBUI-PJ-01PJ 1.333,00 0,00 578,00 0,00 5.439,79 0,00 0,00 0,00 1.303,68 31/01/2023
1061 1515400 CELINA MARINHO CURTINHAS ESTAGIARIO 0,00 0,00 0,00 120,00 0,00 0,00 0,00 0,00 0,00 31/01/2023
1062 1365700 CELIO AUGUSTO SANTOS RODRIGUES ESTAGIARIO PEDRA AZUL; PEDRA AZUL-PJ-01PJ 0,00 0,00 0,00 120,00 0,00 0,00 0,00 0,00 0,00 31/01/2023
1063 252900 CELIO DE MELO CASTOR ANALISTA DO MP BELO HORIZONTE - COMARCA; DIVISAO FROTA 1.333,00 0,00 578,00 0,00 0,00 0,00 0,00 0,00 1.201,77 31/01/2023
1064 486300 CELIO DIMAS ESTEVES RUAS PROMOT.ENTRANC.ESPECIAL CORONEL FABRICIANO - COMARCA; CORONEL FABRICIANO-PJ-02PJ 1.333,00 0,00 3.368,91 0,00 5.614,85 0,00 0,00 0,00 514,69 31/01/2023
1065 395700 CELIO FERREIRA LIMA OFICIAL DO MP CONTAGEM - COMARCA; CONTAGEM-PJ-SECRETARIA 1.333,00 0,00 578,00 0,00 0,00 0,00 0,00 0,00 628,55 31/01/2023
1066 281300 CELMA REGINA PEREIRA SANTOS ANALISTA DO MP BELO HORIZONTE - COMARCA; PROMOT ESTADUAL DE DEF PATRI CULT E TUR DE MG 1.333,00 0,00 578,00 0,00 5.349,39 0,00 0,00 0,00 1.673,90 31/01/2023
1067 535600 CELSO MEDEIROS DE PAIVA OFICIAL DO MP RIO PRETO - COMARCA; RIO PRETO-PJ-SECRETARIA 1.333,00 0,00 578,00 0,00 5.891,30 0,00 0,00 0,00 905,48 31/01/2023
1068 157700 CELSO PENNA FERNANDES JUNIOR PROMOT.ENTRANC.ESPECIAL BELO HORIZONTE - COMARCA; BH-23PJ CIVEL-GAB 162PJ 1.333,00 0,00 2.912,45 0,00 7.560,20 0,00 0,00 0,00 693,02 31/01/2023
1069 93700 CESAR ANTONIO COSSI PROCURADOR DE JUSTICA BELO HORIZONTE - COMARCA; GABINETE DE PROCURADOR DE JUSTIÇA - SALA 805 1.333,00 0,00 3.089,73 0,00 7.560,20 0,00 0,00 0,00 693,02 31/01/2023
1070 293100 CESAR ANTONIO DE LIMA PROMOT.ENTRANC.ESPECIAL POÇOS DE CALDAS - COMARCA; POCOS DE CALDAS-PJ-03PJ 1.333,00 0,00 3.249,73 0,00 11.229,70 0,00 0,00 0,00 0,00 31/01/2023
1071 293800 CESAR AUGUSTO DOS SANTOS PROMOT.ENTRANC.ESPECIAL BELO HORIZONTE - COMARCA; BH-12PJ JUIZO CRIMINAL-GAB 091PJ 1.333,00 0,00 1.063,68 0,00 16.844,55 0,00 0,00 0,00 514,69 31/01/2023
1072 367000 CESAR NARVAES DE AVELAR OFICIAL DO MP BELO HORIZONTE - COMARCA; DIRET DE INFORMACAO E CONHECIMENTO-DINC/CEAF 1.333,00 0,00 578,00 0,00 0,00 0,00 0,00 0,00 709,16 31/01/2023
1073 1492600 CESAR OTAVIO VIEIRA DA SILVA ESTAGIARIO PERDOES; PERDOES-PJ-UNPJ 0,00 0,00 0,00 108,00 0,00 0,00 0,00 0,00 0,00 31/01/2023
1074 226500 CESAR SILVEIRA BARROUIN OFICIAL DO MP BELO HORIZONTE - COMARCA; DIRETORIA DE ADMINISTRACAO FINANCEIRA 1.333,00 0,00 578,00 0,00 5.261,61 0,00 0,00 0,00 1.579,27 31/01/2023
1075 293500 CESAR YOSHIKAWA PROMOT.ENTRANC.ESPECIAL BELO HORIZONTE - COMARCA; BH-12PJ JUIZO CRIMINAL-GAB 083PJ 1.333,00 0,00 2.836,47 0,00 10.106,73 0,00 0,00 0,00 0,00 31/01/2023
1076 121400 CEZAR MORENO CONCEICAO TAVARES OFICIAL DO MP BELO HORIZONTE - COMARCA; COORD DE INCLUSAO E MOBILIZACAO SOCIAIS 1.333,00 885,30 578,00 0,00 5.673,95 0,00 0,00 0,00 2.255,08 31/01/2023
1077 664100 CHARLES BARBOSA DA SILVA 3O. SARGENTO BELO HORIZONTE - COMARCA; NUCLEO DE OPERACOES DE SEGURANCA DE PESSOAL 1.333,00 0,00 0,00 0,00 0,00 0,00 0,00 0,00 0,00 31/01/2023
1078 210400 CHARLES DANIEL FRANCA SALOMAO PROMOT.ENTRANC.ESPECIAL PARÁ DE MINAS - COMARCA; PARA DE MINAS-PJ-02PJ 1.333,00 0,00 2.178,01 0,00 6.230,65 0,00 0,00 0,00 571,14 31/01/2023
1079 669200 CHARLES HENRIQUE SQUARCIO CABO BELO HORIZONTE - COMARCA; GAECO - SETOR POLICIAL MILITAR 1.333,00 0,00 0,00 0,00 0,00 0,00 0,00 0,00 0,00 31/01/2023
1080 243800 CHARLES MARTINS MUNIZ OFICIAL DO MP BELO HORIZONTE - COMARCA; LAB TECNOLOGIA CONTRA LAVAGEM DINHEIRO 1.333,00 0,00 0,00 0,00 0,00 0,00 0,00 0,00 -89,17 31/01/2023
1081 193500 CHARLIN CESAR KOURLY OFICIAL DO MP ARAGUARI - COMARCA; ARAGUARI-PJ-07PJ 1.333,00 0,00 578,00 0,00 5.330,44 0,00 0,00 0,00 1.811,85 31/01/2023
1082 385500 CHILLEN PEIXOTO DE MOURA OFICIAL DO MP BELO HORIZONTE - COMARCA; DIVISAO DE MATERIAIS 1.333,00 885,30 578,00 0,00 0,00 0,00 0,00 0,00 594,46 31/01/2023
1083 1467000 CHRISTIAN DOMINGOS NEVES DE ALMEIDA ESTAGIARIO PIRAPORA; PIRAPORA-PJ-03PJ 0,00 0,00 0,00 96,00 0,00 0,00 0,00 0,00 0,00 31/01/2023
1084 534500 CHRISTIAN DOUGLAS BRITO RUAS OFICIAL DO MP SÃO JOÃO DA PONTE - COMARCA; SAO JOAO DA PONTE-PJ-SECRETARIA 1.333,00 0,00 578,00 0,00 5.891,30 0,00 0,00 0,00 939,80 31/01/2023
1085 370600 CHRISTIAN KARINE FELIX PRATES ASSESSOR ADMINISTRATIVO IV BELO HORIZONTE - COMARCA; SUPRIN DE PLANEJAMENTO E COORDENACAO 1.333,00 0,00 578,00 0,00 0,00 0,00 0,00 0,00 510,41 31/01/2023
1086 1486200 CHRISTIAN OLIVEIRA DUTRA ESTAGIARIO CORONEL FABRICIANO; CORONEL FABRICIANO-PJ-01PJ 0,00 0,00 0,00 108,00 0,00 0,00 0,00 0,00 0,00 31/01/2023
1087 435800 CHRISTIANA BAHIA ANDRADE PINA ANALISTA DO MP BELO HORIZONTE - COMARCA; LABORATORIO TECNOLOGIA INTELIGENCIA 1.333,00 0,00 578,00 0,00 0,00 0,00 0,00 0,00 1.022,32 31/01/2023
1088 516800 CHRISTIANE FERREIRA DO NASCIMENTO ANALISTA DO MP POUSO ALEGRE - COMARCA; POUSO ALEGRE-PJ-08PJ 1.333,00 0,00 578,00 0,00 0,00 0,00 0,00 0,00 594,76 31/01/2023
1089 176000 CHRISTIANE JUNQUEIRA PULITI ANDRADE DE BARROS ASSESSOR ADM. ESPECIAL BELO HORIZONTE - COMARCA; PROCURADORIA-GERAL ADJUNTA INSTITUCIONAL 1.333,00 0,00 578,00 0,00 5.673,95 0,00 0,00 0,00 2.071,69 31/01/2023
1090 1521700 CHRISTIANE KENIA GOMES ALVES ESTAGIARIO CURVELO; CURVELO-PJ-05PJ 0,00 0,00 0,00 96,00 0,00 0,00 0,00 0,00 0,00 31/01/2023
1091 319200 CHRISTIANE MARIA DE ASSIS RUSSO OFICIAL DO MP BELO HORIZONTE - COMARCA; CAO-ORDEM ECONOMICA E TRIBUTARIA-SECRETARIA 1.333,00 885,30 578,00 0,00 0,00 0,00 0,00 0,00 805,11 31/01/2023
1092 510300 CHRISTIANE MARY DE CARVALHO FERREIRA ANALISTA DO MP BELO HORIZONTE - COMARCA; DIRETORIA DE SISTEMAS DE INFORMACAO 1.333,00 0,00 578,00 0,00 0,00 0,00 0,00 0,00 607,74 31/01/2023
1093 424900 CHRISTIANE PEREIRA TURNER DE ARAUJO OFICIAL DO MP BELO HORIZONTE - COMARCA; CAO-PATRIMONIO PUBLICO 1.333,00 885,30 578,00 0,00 5.759,78 0,00 0,00 0,00 1.112,98 31/01/2023
1094 731000 CHRISTIANE TEIXEIRA ANTUNA ASSESSOR ADMINISTRATIVO II BELO HORIZONTE - COMARCA; DIR CONTEUDO JORNALISTICO 1.333,00 0,00 578,00 0,00 0,00 0,00 0,00 0,00 0,00 31/01/2023
1095 513700 CHRISTIANE VIEIRA SOARES PEDERSOLI COORDENADOR II BELO HORIZONTE - COMARCA; ASSESSORIA JURIDICA DO PROCON-MG 1.333,00 885,30 578,00 0,00 5.273,96 0,00 0,00 0,00 1.224,50 31/01/2023
1096 163300 CHRISTIANNE COTRIM ASSAD BENSOUSSAN PROMOT.ENTRANC.ESPECIAL BELO HORIZONTE - COMARCA; BH-12PJ JUIZO CRIMINAL-GAB 087PJ 1.333,00 0,00 3.368,91 0,00 11.273,52 0,00 0,00 0,00 574,11 31/01/2023
1097 371400 CHRISTIANO LEONARDO GONZAGA GOMES PROMOTOR 2A ENTRANCIA SABARÁ - COMARCA; SABARA-PJ-01PJ 1.333,00 0,00 1.519,54 0,00 16.002,33 0,00 0,00 0,00 488,96 31/01/2023
1098 1478800 CHRISTOPHER LUCAS SEOLDO ESTAGIARIO CATAGUASES; CATAGUASES-PJ-01PJ 0,00 0,00 0,00 108,00 0,00 0,00 0,00 0,00 0,00 31/01/2023
1099 412300 CHRYSTIAN MACHADO RIBEIRO ANALISTA DO MP VARGINHA - COMARCA; VARGINHA-PJ-04PJ 1.333,00 0,00 578,00 0,00 0,00 0,00 0,00 0,00 1.112,94 31/01/2023
1100 513800 CHRYSTIANE DO NASCIMENTO DE MAGALHAES OFICIAL DO MP UBERLÂNDIA - COMARCA; UBERLANDIA-PJ-10PJ 1.333,00 0,00 578,00 0,00 5.813,14 0,00 0,00 0,00 1.060,43 31/01/2023
1101 497900 CIBELE DE FREITAS SANCHES DIAS ANALISTA DO MP SABARÁ - COMARCA; SABARA-PJ-03PJ 1.333,00 0,00 578,00 0,00 0,00 0,00 0,00 0,00 710,66 31/01/2023
1102 500900 CIBELLE SILVA PRADO ALVARENGA ANALISTA DO MP ITANHANDU - COMARCA; ITANHANDU-PJ-UNPJ 1.333,00 885,30 578,00 0,00 5.812,40 0,00 0,00 0,00 1.221,81 31/01/2023
1103 1364400 CIBELLY OLIVEIRA SOARES ESTAGIARIO TEOFILO OTONI; TEOFILO OTONI-PJ-07PJ 0,00 0,00 0,00 72,00 0,00 0,00 0,00 0,00 0,00 31/01/2023
1104 296400 CINTIA APARECIDA MOREIRA NAVES E RODRIGUES ANALISTA DO MP CAMPO BELO - COMARCA; CAMPO BELO-PJ-01PJ 1.333,00 0,00 578,00 0,00 5.349,39 0,00 0,00 0,00 1.914,52 31/01/2023
1105 171200 CINTIA MARIA OLIVEIRA DE LUCENA PROMOT.ENTRANC.ESPECIAL BELO HORIZONTE - COMARCA; BH-23PJ INFRACIONAL-GAB 144PJ 1.333,00 0,00 1.570,19 0,00 16.629,09 0,00 0,00 0,00 544,40 31/01/2023
1106 407900 CINTIA NETO COMELLI ANALISTA DO MP BELO HORIZONTE - COMARCA; CENTRAL DE APOIO TECNICO-SETOR CONTABIL 1.333,00 0,00 578,00 0,00 0,00 0,00 0,00 0,00 1.018,71 31/01/2023
1107 304700 CINTIA QUEIROZ OFICIAL DO MP BELO HORIZONTE - COMARCA; OUVIDORIA DO MPMG 1.333,00 0,00 578,00 0,00 5.724,33 0,00 0,00 0,00 1.282,89 31/01/2023
1108 163000 CINTIA ROBERTA GOMES DE LIMA PROMOTOR 2A ENTRANCIA VARGINHA - COMARCA; COORD REG PJ DEF EDUC DIR CRIANCA ADOL SUL 1.333,00 0,00 2.279,31 0,00 0,00 0,00 0,00 0,00 0,00 31/01/2023
1109 1514600 CINTYA KALIANA DE QUEIROZ LEITE ESTAGIARIO PIRAPORA; PIRAPORA-PJ-02PJ 0,00 0,00 0,00 108,00 0,00 0,00 0,00 0,00 0,00 31/01/2023
1110 286100 CIRO CANGUSSU CORDEIRO OFICIAL DO MP IPATINGA - COMARCA; IPATINGA-PJ-09PJ 1.333,00 885,30 578,00 0,00 5.852,41 0,00 0,00 0,00 1.110,42 31/01/2023
1111 1345100 CIRO SILVA PERES ESTAGIARIO 0,00 0,00 0,00 180,00 0,00 0,00 0,00 0,00 0,00 31/01/2023
1112 689900 CISSA NOGUEIRA COLEN ASSESSOR PROCURADOR JUSTICA BELO HORIZONTE - COMARCA; GABINETE DE PROCURADOR DE JUSTIÇA - SALA 608 1.333,00 0,00 578,00 0,00 5.971,91 0,00 0,00 0,00 875,49 31/01/2023
1113 1381300 CLARA DE SALES DUARTE ESTAGIARIO BELO HORIZONTE; GABINETE DE PROCURADOR DE JUSTICA - SALA 311 0,00 0,00 0,00 132,00 0,00 0,00 0,00 0,00 61,67 31/01/2023
1114 681700 CLARA FERREIRA ALKIMIM ASSESSOR PROMOTOR JUSTICA PEDRA AZUL - COMARCA; PEDRA AZUL-PJ-02PJ 1.333,00 0,00 578,00 0,00 5.971,91 0,00 0,00 0,00 900,44 31/01/2023
1115 1485300 CLARA GABRIELA GOUVEIA MONTEIRO ESTAGIARIO BELO HORIZONTE; BH-07PJ 03 TRIBUNAL DO JURI-GAB 064PJ 0,00 0,00 0,00 84,00 0,00 0,00 0,00 0,00 0,00 31/01/2023
1116 715500 CLARA ISABELLE SOUSA FARIA ASSESSOR PROCURADOR JUSTICA BELO HORIZONTE - COMARCA; GABINETE DE PROCURADOR DE JUSTIÇA - SALA 712 1.333,00 0,00 578,00 0,00 0,00 0,00 0,00 0,00 81,15 31/01/2023
1117 1261100 CLARA LIMA LIPOVETSKY ESTAGIARIO BELO HORIZONTE; CORREGEDORIA-GERAL-ASSESSORIA 0,00 0,00 0,00 72,00 0,00 0,00 0,00 0,00 0,00 31/01/2023
1118 484900 CLARA MARIA HOEHNE SEPULVEDA PROMOT.ENTRANC.ESPECIAL SETE LAGOAS - COMARCA; SETE LAGOAS-PJ-09PJ 1.333,00 0,00 3.368,91 0,00 16.844,55 0,00 0,00 0,00 514,69 31/01/2023
1119 723100 CLARA PRADO CAMPOS ASSESSOR PROCURADOR JUSTICA BELO HORIZONTE - COMARCA; GABINETE DE PROCURADOR DE JUSTIÇA - SALA 1006 1.333,00 0,00 578,00 0,00 0,00 0,00 0,00 0,00 0,00 31/01/2023
1120 695500 CLARA RODRIGUES BLACH ASSESSOR PROCURADOR JUSTICA BELO HORIZONTE - COMARCA; GABINETE DE PROCURADOR DE JUSTIÇA - SALA 1003 1.333,00 0,00 578,00 0,00 0,00 0,00 0,00 0,00 320,53 31/01/2023
1121 1324500 CLARA VIEIRA DE REZENDE ESTAGIARIO BELO HORIZONTE; PROC. JUSTICA DIR. DIFUSOS E COLETIVOS
1122 1523100 CLARICE ALVES NOGUEIRA ESTAGIARIO UBERABA; UBERABA-PJ-14PJ 0,00 0,00 0,00 72,00 0,00 0,00 0,00 0,00 0,00 31/01/2023
1123 412500 CLARICE GOMES MAROTTA ANALISTA DO MP BELO HORIZONTE - COMARCA; COORD ESTADUAL DE DEFESA DOS ANIMAIS 1.333,00 0,00 578,00 0,00 0,00 0,00 0,00 0,00 1.181,56 31/01/2023
1124 605300 CLARISSA AZEVEDO ROCHA OFICIAL DO MP BELO HORIZONTE - COMARCA; BH-17PJ PATRIMONIO PUBLICO-SECRETARIA 1.333,00 0,00 578,00 0,00 0,00 0,00 0,00 0,00 331,53 31/01/2023
1125 1387500 CLARISSA DE CARVALHO PATARO ESTAGIARIO PONTE NOVA; PONTE NOVA-PJ-05PJ 0,00 0,00 0,00 108,00 0,00 0,00 0,00 0,00 0,00 31/01/2023
1126 308100 CLARISSA DUARTE BELLONI DIRETOR-GERAL BELO HORIZONTE - COMARCA; DIRETORIA-GERAL 1.333,00 2.655,90 578,00 0,00 5.673,96 0,00 0,00 0,00 2.320,67 31/01/2023
1127 730500 CLARISSA FERNANDES ABREU ASSESSOR PROMOTOR JUSTICA SANTOS DUMONT - COMARCA; SANTOS DUMONT-PJ-02PJ 1.333,00 0,00 578,00 0,00 0,00 0,00 0,00 0,00 0,00 31/01/2023
1128 402100 CLARISSA GOBBO DOS SANTOS PROMOT.ENTRANC.ESPECIAL BELO HORIZONTE - COMARCA; GRUPO ESP PROM JUST DEF PROB ADM PAT PUB 1.333,00 0,00 3.368,91 0,00 16.844,55 0,00 0,00 0,00 514,69 31/01/2023
1129 497100 CLARISSA ROCHA GUIDI ANALISTA DO MP BELO HORIZONTE - COMARCA; BH-02PJ FAMILIA-SECRETARIA 1.333,00 1.770,60 578,00 0,00 0,00 0,00 0,00 0,00 698,60 31/01/2023
1130 661600 CLARISSE PEREZ DO NASCIMENTO NASCIF MENDES PROMOTOR 1A ENTRANCIA PIRANGA - COMARCA; PIRANGA-PJ-UNPJ 1.333,00 0,00 3.040,44 0,00 5.067,40 0,00 0,00 0,00 464,51 31/01/2023
1131 641800 CLARISSE TAVARES GONCALVES OFICIAL DO MP BELO HORIZONTE - COMARCA; BH-07PJ 01 TRIBUNAL JURI-SECRETARIA 1.333,00 0,00 578,00 0,00 0,00 0,00 0,00 0,00 296,32 31/01/2023
1132 463700 CLAUDIA ADRIANA FERRAO DIAS ANALISTA DO MP SETE LAGOAS - COMARCA; SETE LAGOAS-PJ-06PJ 1.333,00 0,00 578,00 0,00 0,00 0,00 0,00 0,00 616,49 31/01/2023
1133 415400 CLAUDIA ALMEIDA DE VASCONCELLOS BARROS OFICIAL DO MP BELO HORIZONTE - COMARCA; DIVISAO DE SERVICOS 1.333,00 0,00 578,00 0,00 0,00 0,00 0,00 0,00 713,75 31/01/2023
1134 207000 CLAUDIA APARECIDA VILELA MACHADO ANALISTA DO MP BELO HORIZONTE - COMARCA; CENTRAL DE APOIO TECNICO-SETOR CONTABIL 1.333,00 0,00 578,00 0,00 0,00 0,00 0,00 0,00 1.489,52 31/01/2023
1135 314400 CLAUDIA AUGUSTA LOPES DE MENDONCA PROMOT.ENTRANC.ESPECIAL BELO HORIZONTE - COMARCA; BH-09PJ AUDITORIA MILITAR-GAB 074PJ 1.333,00 0,00 3.368,91 0,00 16.844,55 0,00 0,00 0,00 514,69 31/01/2023
1136 365700 CLAUDIA BREGUEZ CUNHA ANALISTA DO MP VARGINHA - COMARCA; VARGINHA-PJ-07PJ 1.333,00 885,30 578,00 0,00 0,00 0,00 0,00 0,00 1.118,32 31/01/2023
1137 430500 CLAUDIA CECILIA SANTANA VENCESLAU OFICIAL DO MP BELO HORIZONTE - COMARCA; LAB TECNOLOGIA CONTRA LAVAGEM DINHEIRO 1.333,00 0,00 578,00 0,00 5.759,78 0,00 0,00 0,00 1.158,05 31/01/2023
1138 1480200 CLAUDIA DE AQUINO ESTAGIARIO BUENOPOLIS; BUENOPOLIS-PJ-UNPJ 0,00 0,00 0,00 84,00 0,00 0,00 0,00 0,00 0,00 31/01/2023
1139 98300 CLAUDIA DE OLIVEIRA IGNEZ PROMOTOR 2A ENTRANCIA NOVA LIMA - COMARCA; NOVA LIMA-PJ-01PJ 1.333,00 0,00 1.899,42 0,00 7.168,98 0,00 0,00 0,00 657,16 31/01/2023
1140 167300 CLAUDIA DO AMARAL XAVIER PROMOT.ENTRANC.ESPECIAL BELO HORIZONTE - COMARCA; BH-18PJ DIREITOS HUMANOS-GAB 125PJ 1.333,00 0,00 2.178,00 0,00 6.263,07 0,00 0,00 0,00 574,11 31/01/2023
1141 163100 CLAUDIA FERREIRA DE SOUZA PROMOT.ENTRANC.ESPECIAL BELO HORIZONTE - COMARCA; BH-02PJ FAMILIA-GAB 035PJ 1.333,00 0,00 3.368,91 0,00 7.560,20 0,00 0,00 0,00 693,02 31/01/2023
1142 174500 CLAUDIA FERREIRA PACHECO DE FREITAS PROMOT.ENTRANC.ESPECIAL BELO HORIZONTE - COMARCA; SECRETARIA-GERAL-GABINETE 1.333,00 0,00 3.368,91 0,00 5.938,96 0,00 0,00 0,00 544,40 31/01/2023
1143 213601 CLAUDIA GONCALVES CALIXTO ASSESSOR PROCURADOR JUSTICA BELO HORIZONTE - COMARCA; PROC. JUSTICA DIR. DIFUSOS E COLETIVOS-SEC 1.333,00 0,00 578,00 0,00 0,00 0,00 0,00 0,00 24,72 31/01/2023
1144 480400 CLAUDIA GOULART DE SOUZA OFICIAL DO MP PASSOS - COMARCA; PASSOS-PJ-06PJ 1.333,00 0,00 578,00 0,00 5.852,41 0,00 0,00 0,00 1.109,51 31/01/2023
1145 519800 CLAUDIA HELENA CORREA DE ALMEIDA ANALISTA DO MP BELO HORIZONTE - COMARCA; BH-12PJ JUIZO CRIMINAL-GAB 096PJ 1.333,00 0,00 578,00 0,00 5.812,40 0,00 0,00 0,00 1.186,19 31/01/2023
1146 422100 CLAUDIA IACOMINI CABRAL ANALISTA DO MP BELO HORIZONTE - COMARCA; CENT DE APOIO TEC-SETOR DEF,IDOSO E INFANC 1.333,00 0,00 578,00 0,00 5.497,62 0,00 0,00 0,00 1.920,48 31/01/2023
1147 258200 CLAUDIA LAGE MICHALAROS ANALISTA DO MP BELO HORIZONTE - COMARCA; CENTRAL DE APOIO TECN-SETOR DE MEIO AMBIENTE 1.333,00 0,00 578,00 0,00 0,00 0,00 0,00 0,00 1.830,98 31/01/2023
1148 284600 CLAUDIA LENI DE FREITAS OFICIAL DO MP CONTAGEM - COMARCA; CONTAGEM-PJ-SECRETARIA 1.333,00 0,00 578,00 0,00 0,00 0,00 0,00 0,00 437,36 31/01/2023
1149 175200 CLAUDIA LOPES SILVA SCIOLI PROMOT.ENTRANC.ESPECIAL POUSO ALEGRE - COMARCA; POUSO ALEGRE-PJ-07PJ 1.333,00 0,00 3.368,91 0,00 17.768,26 0,00 0,00 0,00 542,92 31/01/2023
1150 433600 CLAUDIA LUIZA SANTIAGO FELICIO ANALISTA DO MP BELO HORIZONTE - COMARCA; CENT DE APOIO TEC-SETOR DEF,IDOSO E INFANC 1.333,00 0,00 578,00 0,00 5.432,94 0,00 0,00 0,00 1.398,42 31/01/2023
1151 317000 CLAUDIA MACHADO ALVES OFICIAL DO MP BELO HORIZONTE - COMARCA; DIR GOVERNANCA TECNOLOGIA INFORMACAO 1.333,00 0,00 578,00 0,00 5.726,87 0,00 0,00 0,00 1.308,71 31/01/2023
1152 155300 CLAUDIA MACIEL MIRANDA OFICIAL DO MP CONGONHAS - COMARCA; CONGONHAS-PJ-02PJ 1.333,00 0,00 578,00 0,00 0,00 0,00 0,00 0,00 1.501,20 31/01/2023
1153 242200 CLAUDIA MICHELLE DIAS MUNIZ BALEEIRO OFICIAL DO MP MONTE AZUL - COMARCA; MONTE AZUL-PJ-SECRETARIA 1.333,00 0,00 578,00 0,00 5.261,61 0,00 0,00 0,00 1.517,88 31/01/2023
1154 236500 CLAUDIA NETO COMELLI PROMOT.ENTRANC.ESPECIAL BELO HORIZONTE - COMARCA; BH-23PJ INFRACIONAL-GAB 039PJ 1.333,00 0,00 2.213,69 0,00 14.214,60 0,00 0,00 0,00 542,92 31/01/2023
1155 623000 CLAUDIA PATRICIA SILVA RODRIGUES RAPOSEIRAS OFICIAL DO MP BELO HORIZONTE - COMARCA; DIVISÃO DE EDUCAÇÃO PARA O CONSUMO 1.333,00 885,30 578,00 0,00 0,00 0,00 0,00 0,00 383,04 31/01/2023
1156 418400 CLAUDIA REGINA MARTINS BONIFACIO OFICIAL DO MP ITUIUTABA - COMARCA; ITUIUTABA-PJ-06PJ 1.333,00 0,00 578,00 0,00 5.759,78 0,00 0,00 0,00 1.155,01 31/01/2023
1157 498300 CLAUDIA SOUTO FARIAS BRAUN OFICIAL DO MP TEÓFILO OTONI - COMARCA; TEOFILO OTONI-PJ-SECRETARIA 1.333,00 0,00 578,00 0,00 5.784,18 0,00 0,00 0,00 943,15 31/01/2023
1158 79600 CLAUDIA SPRANGER E SILVA LUIZ MOTTA PROCURADOR DE JUSTICA BELO HORIZONTE - COMARCA; GABINETE DE PROCURADOR DE JUSTIÇA - SALA 706 1.333,00 0,00 1.392,91 0,00 7.560,20 0,00 0,00 0,00 693,02 31/01/2023
1159 206500 CLAUDIA VALERIA FONSECA ANDRADE ANALISTA DO MP BELO HORIZONTE - COMARCA; BH-23PJ INF-FISC MED SOC FEC 1.333,00 0,00 578,00 0,00 4.937,90 0,00 0,00 0,00 2.015,95 31/01/2023
1160 1499800 CLAUDIELLE COSTA DE ARAUJO ESTAGIARIO JEQUITINHONHA; JEQUITINHONHA-PJ-COORD PJ 0,00 0,00 0,00 84,00 0,00 0,00 0,00 0,00 0,00 31/01/2023
1161 277500 CLAUDIO ANTONIO BORGES BRUNSWICK ALVARES OFICIAL DO MP BELO HORIZONTE - COMARCA; BH-15PJ M AMB PAT HIST CULT-GAB 116PJ 1.333,00 0,00 578,00 0,00 0,00 0,00 0,00 0,00 613,95 31/01/2023
1162 444800 CLAUDIO ARESIO DO CARMO ANALISTA DO MP SETE LAGOAS - COMARCA; SETE LAGOAS-PJ-01PJ 1.333,00 0,00 578,00 0,00 5.977,08 0,00 0,00 0,00 1.549,91 31/01/2023
1163 532100 CLAUDIO DANIEL FONSECA DE ALMEIDA PROMOTOR 2A ENTRANCIA MARIANA - COMARCA; MARIANA-PJ-02PJ 1.333,00 0,00 2.405,94 0,00 13.868,69 0,00 0,00 0,00 488,96 31/01/2023
1164 76700 CLAUDIO EMANUEL DA CUNHA PROCURADOR DE JUSTICA BELO HORIZONTE - COMARCA; GABINETE DE PROCURADOR DE JUSTICA - SALA 311 1.333,00 0,00 1.519,54 0,00 6.548,89 0,00 0,00 0,00 600,31 31/01/2023
1165 100500 CLAUDIO FERREIRA DE OLIVEIRA FILHO PROMOTOR 2A ENTRANCIA LAMBARI - COMARCA; LAMBARI-PJ-UNPJ 1.333,00 0,00 2.912,45 0,00 22.524,87 0,00 0,00 0,00 688,26 31/01/2023
1166 545100 CLAUDIO HENRIQUE MACEDO DE SOUZA FRANSOZO ANALISTA DO MP OURO PRETO - COMARCA; OURO PRETO-PJ-03PJ 1.333,00 885,30 578,00 0,00 0,00 0,00 0,00 0,00 524,01 31/01/2023
1167 353500 CLAUDIO HENRIQUE PEDRO DA ROCHA OFICIAL DO MP BELO HORIZONTE - COMARCA; DIVISAO TRANSPORTES 1.333,00 0,00 578,00 0,00 0,00 0,00 0,00 0,00 662,14 31/01/2023
1168 265800 CLAUDIO KUPIDLOWSKY FERNANDES OFICIAL DO MP BELO HORIZONTE - COMARCA; SECRETARIA DO PROCON-MG 1.333,00 0,00 578,00 0,00 0,00 0,00 0,00 0,00 674,24 31/01/2023
1169 193600 CLAUDIO LEITE FONTES OFICIAL DO MP ITUIUTABA - COMARCA; ITUIUTABA-PJ-02PJ 1.333,00 0,00 578,00 0,00 5.548,20 0,00 0,00 0,00 1.384,10 31/01/2023
1170 102000 CLAUDIO LUIZ GONCALVES MARINS PROMOTOR 2A ENTRANCIA GUAXUPÉ - COMARCA; GUAXUPE-PJ-03PJ 1.333,00 0,00 3.200,47 0,00 22.524,87 0,00 0,00 0,00 688,26 31/01/2023
1171 163200 CLAUDIO MAIA DE BARROS PROMOT.ENTRANC.ESPECIAL BELO HORIZONTE - COMARCA; COORD EST PJ TRIBUNAL JURI 1.333,00 0,00 3.191,03 0,00 13.778,75 0,00 0,00 0,00 574,11 31/01/2023
1172 329400 CLAUDIO MARCIO BERNARDES OFICIAL DO MP ITAÚNA - COMARCA; ITAUNA-PJ-03PJ 1.333,00 885,30 578,00 0,00 0,00 0,00 0,00 0,00 881,78 31/01/2023
1173 1495800 CLAUDIO MATEUS DE CAMARGOS JUNIOR ESTAGIARIO BELO HORIZONTE; BH-13PJ JUIZO DE TOXICOS-GAB 006PJ 0,00 0,00 0,00 72,00 0,00 0,00 0,00 0,00 0,00 31/01/2023
1174 1221400 CLAUDIO ODARHA NASCIMENTO ESTAGIARIO CURVELO; CURVELO-PJ-02PJ 0,00 0,00 0,00 72,00 1.850,00 0,00 0,00 0,00 0,00 31/01/2023
1175 270200 CLAUDIO RABELO ALVES OFICIAL DO MP FORMIGA - COMARCA; FORMIGA-PJ-03PJ 1.333,00 0,00 578,00 0,00 5.550,14 0,00 0,00 0,00 1.312,36 31/01/2023
1176 264700 CLAUDIO ROBERTO KFURI DE ARAUJO ANALISTA DO MP BELO HORIZONTE - COMARCA; CENTRAL DE APOIO TECNICO-SETOR DE INFORMATICA 1.333,00 0,00 578,00 0,00 0,00 0,00 0,00 0,00 1.211,99 31/01/2023
1177 188600 CLAUDIO SALES OFICIAL DO MP NEPOMUCENO - COMARCA; NEPOMUCENO-PJ-SECRETARIA 1.333,00 885,30 578,00 0,00 0,00 0,00 0,00 0,00 1.502,88 31/01/2023
1178 543300 CLAUDIO SILVA DE CARVALHO ANALISTA DO MP CAMPO BELO - COMARCA; CAMPO BELO-PJ-03PJ 1.333,00 0,00 578,00 0,00 0,00 0,00 0,00 0,00 533,64 31/01/2023
1179 144300 CLAUDIO VARELLA DE SOUZA PROCURADOR DE JUSTICA BELO HORIZONTE - COMARCA; GABINETE DE PROCURADOR DE JUSTIÇA - SALA 712 1.333,00 0,00 1.392,91 0,00 15.717,33 0,00 0,00 0,00 600,31 31/01/2023
1180 160700 CLAUDIO VICENTE HESS ASSESSOR DE GABINETE I BELO HORIZONTE - COMARCA; CENTRAL DE APOIO TECNICO-SETOR DE INFORMATICA 1.333,00 0,00 578,00 0,00 0,00 0,00 0,00 0,00 1.126,20 31/01/2023
1181 312900 CLAUDIO VIEIRA FIRPE OFICIAL DO MP BELO HORIZONTE - COMARCA; DIR RELACOES INSTITUCIONAIS 1.333,00 0,00 578,00 0,00 5.724,33 0,00 0,00 0,00 1.223,80 31/01/2023
1182 634100 CLEA CRISTINA GUERRA DE FREITAS COSTA OFICIAL DO MP BELO HORIZONTE - COMARCA; BH-18PJ VIOLENCIA DOMESTICA-SECRETARIA 1.333,00 0,00 578,00 0,00 0,00 0,00 0,00 0,00 348,99 31/01/2023
1183 244800 CLEBER AUGUSTO DO NASCIMENTO PROMOTOR 2A ENTRANCIA CAMPO BELO - COMARCA; CAMPO BELO-PJ-04PJ 1.333,00 0,00 3.200,47 0,00 16.002,33 0,00 0,00 0,00 488,96 31/01/2023
1184 439000 CLEBER COUTO PROMOT.ENTRANC.ESPECIAL PATOS DE MINAS - COMARCA; GAECO REGIONAL DE PATOS DE MINAS 1.333,00 0,00 3.368,91 0,00 16.844,55 0,00 0,00 0,00 514,69 31/01/2023
1185 459200 CLEIA ZILLE PEREIRA ANALISTA DO MP BELO HORIZONTE - COMARCA; BH-07PJ 01 TRIBUNAL DO JURI-GAB 059PJ 1.333,00 1.327,95 578,00 0,00 5.812,40 0,00 0,00 0,00 1.191,79 31/01/2023
1186 481800 CLEIDE CARDOSO DA SILVA ANALISTA DO MP MANHUAÇU - COMARCA; MANHUACU-PJ-04PJ 1.333,00 0,00 578,00 0,00 0,00 0,00 0,00 0,00 634,40 31/01/2023
1187 225000 CLEIDE PEREIRA DA SILVA PROMOT.ENTRANC.ESPECIAL BELO HORIZONTE - COMARCA; BH-09PJ AUDITORIA MILITAR-GAB 161PJ 1.333,00 0,00 1.164,98 0,00 0,00 0,00 0,00 0,00 0,00 31/01/2023
1188 347600 CLEIDIMAR DE OLIVEIRA SILVA OFICIAL DO MP PATOS DE MINAS - COMARCA; PATOS DE MINAS-PJ-03PJ 1.333,00 0,00 578,00 0,00 5.724,33 0,00 0,00 0,00 1.278,34 31/01/2023
1189 396500 CLEIDISON BATISTA DE ANDRADE OFICIAL DO MP RESPLENDOR - COMARCA; RESPLENDOR-PJ-UNPJ 1.333,00 0,00 578,00 0,00 5.759,78 0,00 0,00 0,00 1.179,77 31/01/2023
1190 535100 CLEISON ALVES DA SILVA ANALISTA DO MP BOA ESPERANÇA - COMARCA; BOA ESPERANCA-PJ-01PJ 1.333,00 0,00 578,00 0,00 0,00 0,00 0,00 0,00 625,75 31/01/2023
1191 298100 CLEONICE AUGUSTA BARROS DE OLIVEIRA ANALISTA DO MP JUIZ DE FORA - COMARCA; JUIZ DE FORA-PJ-08PJ 1.333,00 0,00 578,00 0,00 0,00 0,00 0,00 0,00 1.173,96 31/01/2023
1192 264100 CLETO HENRIQUE ANDRADE SILVA ANALISTA DO MP BELO HORIZONTE - COMARCA; DIRETORIA DE SISTEMAS DE INFORMACAO 1.333,00 0,00 578,00 0,00 0,00 0,00 0,00 0,00 1.442,73 31/01/2023
1193 334400 CLEUBA DE OLIVEIRA BARCELOS GONCALVES OFICIAL DO MP DIVINÓPOLIS - COMARCA; COORD REG SAUDE MACRORREGIAO SANITARIA OESTE 1.333,00 0,00 578,00 0,00 5.724,33 0,00 0,00 0,00 1.282,18 31/01/2023
1194 347500 CLEUSA CORDEIRO DA MATA PIMENTA OFICIAL DO MP CAMPO BELO - COMARCA; CAMPO BELO-PJ-01PJ 1.333,00 0,00 578,00 0,00 5.548,20 0,00 0,00 0,00 1.592,04 31/01/2023
1195 1534600 CLEVERSON CHRISTIAN GOMES DE SOUZA ESTAGIARIO BELO HORIZONTE; BH-17PJ PATRIMONIO PUBLICO-GAB 123PJ 0,00 0,00 0,00 72,00 0,00 0,00 0,00 0,00 0,00 31/01/2023
1196 92400 CLEVERSON RAYMUNDO SBARZI GUEDES PROMOT.ENTRANC.ESPECIAL JUIZ DE FORA - COMARCA; JUIZ DE FORA-PJ-07PJ 1.333,00 0,00 3.368,91 0,00 7.560,20 0,00 0,00 0,00 693,02 31/01/2023
1197 675000 CLEVERTON FRANCISCO GONCALVES DA SILVA CAPITAO 1.333,00 0,00 0,00 0,00 0,00 0,00 0,00 0,00 0,00 31/01/2023
1198 1231400 CLEYSON THIAGO PEREIRA COELHO ESTAGIARIO VICOSA; VICOSA-PJ-03PJ 0,00 0,00 0,00 -12,00 0,00 0,00 0,00 0,00 0,00 31/01/2023
1199 510200 CLEZIO SALES SILVA OFICIAL DO MP BRASÓPOLIS - COMARCA; BRASOPOLIS-PJ-UNPJ 1.333,00 885,30 578,00 0,00 5.784,18 0,00 0,00 0,00 948,78 31/01/2023
1200 1514200 CLICIA LAIANE DE ASSIS BENTO ESTAGIARIO ERVALIA; ERVALIA-PJ-UNPJ 0,00 0,00 0,00 96,00 0,00 0,00 0,00 0,00 0,00 31/01/2023
1201 323000 CLOTILDE DE PADUA VIEIRA OFICIAL DO MP BELO HORIZONTE - COMARCA; BH-19PJ SAUDE-SECRETARIA 129PJ 1.333,00 0,00 578,00 0,00 0,00 0,00 0,00 0,00 509,99 31/01/2023
1202 285200 CLOVIS ANDRE LUDTKE OFICIAL DO MP BELO HORIZONTE - COMARCA; DIVISAO DE MANUTENCAO PREDIAL 1.333,00 0,00 578,00 0,00 5.492,87 0,00 0,00 0,00 1.200,31 31/01/2023
1203 381100 CONCEICAO APARECIDA TEIXEIRA ARANTES ANALISTA DO MP BELO HORIZONTE - COMARCA; BH-23PJ INFRACIONAL-ASS JURIDICA 1.333,00 885,30 578,00 0,00 2.439,95 0,00 0,00 0,00 5.473,51 31/01/2023
1204 249900 CONSTANTINO CEZAR GOMES MOTA OFICIAL DO MP MONTES CLAROS - COMARCA; COORD REG BACIA RIOS VERDE GRANDE E PARDO 1.333,00 1.770,60 578,00 0,00 0,00 0,00 0,00 0,00 738,01 31/01/2023
1205 594800 COSME COELHO TEIXEIRA 2O. SARGENTO BELO HORIZONTE - COMARCA; NUCLEO DE CONTRAINTELIGENCIA 1.333,00 0,00 0,00 0,00 0,00 0,00 0,00 0,00 0,00 31/01/2023
1206 481000 CRISHMA ANALIA LOMBELLO ANALISTA DO MP JUIZ DE FORA - COMARCA; JUIZ DE FORA-PJ-13PJ 1.333,00 0,00 578,00 0,00 0,00 0,00 0,00 0,00 581,38 31/01/2023
1207 1399300 CRISLAYNE SOUZA MELO ESTAGIARIO ARAGUARI; ARAGUARI-PJ-07PJ 0,00 0,00 0,00 48,00 0,00 0,00 0,00 0,00 0,00 31/01/2023
1208 523900 CRISTHYANE BAZOLI COSTA GUEDES COUTO OFICIAL DO MP BELO HORIZONTE - COMARCA; BH-04PJ JUIZO REG PÚBLICOS-SECRETARIA 1.333,00 0,00 578,00 0,00 5.813,14 0,00 0,00 0,00 1.045,17 31/01/2023
1209 187000 CRISTIAN DAYVSON EVANGELISTA OFICIAL DO MP JUIZ DE FORA - COMARCA; JUIZ DE FORA-PJ-13PJ 1.333,00 0,00 578,00 0,00 5.443,46 0,00 1.580,00 0,00 1.760,36 31/01/2023
1210 245000 CRISTIAN LUCIO DA SILVA PROMOT.ENTRANC.ESPECIAL BELO HORIZONTE - COMARCA; BH-07PJ 03 TRIBUNAL DO JURI-GAB 064PJ 1.333,00 0,00 3.368,91 0,00 16.844,55 0,00 0,00 0,00 514,69 31/01/2023
1211 682100 CRISTIAN TRISTAO DE ANDRADE ASSESSOR PROMOTOR JUSTICA TRÊS CORACOES - COMARCA; TRES CORACOES-PJ-04PJ 1.333,00 0,00 578,00 0,00 0,00 0,00 0,00 0,00 355,37 31/01/2023
1212 319800 CRISTIANA GONCALVES DOS SANTOS GUSMAO OFICIAL DO MP PARAOPEBA - COMARCA; PARAOPEBA-PJ-UNPJ 1.333,00 0,00 578,00 0,00 0,00 0,00 0,00 0,00 694,80 31/01/2023
1213 520600 CRISTIANA JANAINA BARBOZA JUVENCIO DOS SANTOS ANALISTA DO MP BELO HORIZONTE - COMARCA; BH-02PJ FAMILIA-SECRETARIA 1.333,00 0,00 578,00 0,00 5.812,40 0,00 0,00 0,00 1.163,01 31/01/2023
1214 195600 CRISTIANA SOARES HALABI OFICIAL DO MP UBERABA - COMARCA; UBERABA-PJ-01PJ 1.333,00 0,00 578,00 0,00 5.127,46 0,00 0,00 0,00 1.774,88 31/01/2023
1215 218900 CRISTIANE ALVES BELLES OFICIAL DO MP JUIZ DE FORA - COMARCA; JUIZ DE FORA-PJ-10PJ 1.333,00 1.327,95 578,00 0,00 5.998,41 0,00 0,00 0,00 973,13 31/01/2023
1216 1449100 CRISTIANE APARECIDA CALDEIRA SILVA ESTAGIARIO CONTAGEM; CONTAGEM-PJ-09PJ 0,00 0,00 0,00 120,00 0,00 0,00 0,00 0,00 0,00 31/01/2023
1217 291600 CRISTIANE CAMPOS AMORIM BARONY PROMOTOR 2A ENTRANCIA CARANGOLA - COMARCA; CARANGOLA-PJ-03PJ 1.333,00 0,00 3.200,47 0,00 16.002,33 0,00 0,00 0,00 488,96 31/01/2023
1218 263600 CRISTIANE CARVALHO COUTINHO OFICIAL DO MP BELO HORIZONTE - COMARCA; BH-23PJ INFRACIONAL-SEC EXP 1.333,00 0,00 578,00 0,00 0,00 0,00 0,00 0,00 738,15 31/01/2023
1219 541000 CRISTIANE COELHO ALVES OFICIAL DO MP ITABIRA - COMARCA; ITABIRA-PJ-03PJ 1.333,00 0,00 578,00 0,00 5.891,30 0,00 0,00 0,00 907,70 31/01/2023
1220 441700 CRISTIANE CORRADO DE ANDRADE ANALISTA DO MP BELO HORIZONTE - COMARCA; DIRETORIA DE SISTEMAS DE INFORMACAO 1.333,00 0,00 578,00 0,00 5.517,36 0,00 0,00 0,00 1.475,29 31/01/2023
1221 1304100 CRISTIANE DA CONCEICAO FERREIRA ESTAGIARIO JABOTICATUBAS; JABOTICATUBAS-PJ-UNPJ 0,00 0,00 0,00 120,00 0,00 0,00 0,00 0,00 0,00 31/01/2023
1222 375100 CRISTIANE DAS DORES ERCIO DE LIMA OFICIAL DO MP GOVERNADOR VALADARES - COMARCA; GOVERNADOR VALADARES-PJ-12PJ 1.333,00 0,00 578,00 0,00 5.947,29 0,00 0,00 0,00 1.047,27 31/01/2023
1223 178800 CRISTIANE DE LIMA HOSKEN OFICIAL DO MP BELO HORIZONTE - COMARCA; BH-14PJ DEFESA CONSUMIDOR-GAB 110PJ 1.333,00 0,00 578,00 0,00 0,00 0,00 0,00 0,00 1.439,03 31/01/2023
1224 494000 CRISTIANE DE MELO MARQUEZ OLIVEIRA ANALISTA DO MP UBERLÂNDIA - COMARCA; UBERLANDIA-PJ-06PJ 1.333,00 885,30 578,00 0,00 5.951,24 0,00 0,00 0,00 1.375,78 31/01/2023
1225 266100 CRISTIANE DE OLIVEIRA CASTRO OFICIAL DO MP BELO HORIZONTE - COMARCA; BH-14PJ DEFESA CONSUMIDOR-SECRETARIA 1.333,00 0,00 578,00 0,00 0,00 0,00 1.580,00 0,00 1.000,72 31/01/2023
1226 329500 CRISTIANE DOS REIS SILVA OFICIAL DO MP ARAXÁ - COMARCA; ARAXA-PJ-04PJ 1.333,00 0,00 578,00 0,00 5.724,33 0,00 0,00 0,00 1.293,09 31/01/2023
1227 301600 CRISTIANE GODINHO PIRES ANALISTA DO MP BETIM - COMARCA; BETIM-PJ-06PJ 1.333,00 0,00 578,00 0,00 5.349,39 0,00 0,00 0,00 1.858,26 31/01/2023
1228 406100 CRISTIANE GONCALVES CHAVES ANALISTA DO MP BELO HORIZONTE - COMARCA; BH-14PJ DEFESA CONSUMIDOR-GAB 112PJ 1.333,00 0,00 578,00 0,00 0,00 0,00 0,00 0,00 991,01 31/01/2023
1229 487600 CRISTIANE LOPES DE OLIVEIRA OFICIAL DO MP DIVINÓPOLIS - COMARCA; DIVINOPOLIS-PJ-03PJ 1.333,00 0,00 578,00 0,00 0,00 0,00 0,00 0,00 420,96 31/01/2023
1230 502500 CRISTIANE MACIEL DE OLIVEIRA GOMES ANALISTA DO MP JUIZ DE FORA - COMARCA; JUIZ DE FORA-PJ-02PJ 1.333,00 885,30 578,00 0,00 5.812,40 0,00 0,00 0,00 1.211,89 31/01/2023
1231 285500 CRISTIANE MAGALHAES LOURENCO ANALISTA DO MP BELO HORIZONTE - COMARCA; CENTRAL DE APOIO TECNICO-SETOR CONTABIL 1.333,00 0,00 578,00 0,00 5.349,39 0,00 0,00 0,00 1.881,50 31/01/2023
1232 536500 CRISTIANE MICHELE DE SOUZA ANALISTA DO MP BARÃO DE COCAIS - COMARCA; BARAO DE COCAIS-PJ-UNPJ 1.333,00 0,00 578,00 0,00 0,00 0,00 0,00 0,00 519,91 31/01/2023
1233 346600 CRISTIANE NOGUEIRA ANDRADE ANALISTA DO MP BELO HORIZONTE - COMARCA; CENTRAL DE APOIO TECNICO-SETOR CONTABIL 1.333,00 0,00 578,00 0,00 0,00 0,00 0,00 0,00 1.272,76 31/01/2023
1234 234000 CRISTIANE OLIVEIRA TOSTES OFICIAL DO MP JUIZ DE FORA - COMARCA; JUIZ DE FORA-PJ-08PJ 1.333,00 885,30 578,00 0,00 0,00 0,00 0,00 0,00 1.087,54 31/01/2023
1235 445800 CRISTIANE ORZIL COSTA OFICIAL DO MP SANTA LUZIA - COMARCA; SANTA LUZIA-PJ-05PJ 1.333,00 885,30 578,00 0,00 5.841,83 0,00 0,00 0,00 1.143,70 31/01/2023
1236 616100 CRISTIANE PAES RODRIGUES MARCICANO ANALISTA DO MP CATAGUASES - COMARCA; CATAGUASES-PJ-05PJ 1.333,00 885,30 578,00 0,00 5.777,38 0,00 0,00 0,00 1.130,09 31/01/2023
1237 612300 CRISTIANE RIBEIRO DOS REIS ARCANJO OFICIAL DO MP BELO HORIZONTE - COMARCA; DIRETORIA DE PAGAMENTO DE PESSOAL-DPAG 0,00 0,00 0,00 0,00 0,00 0,00 0,00 0,00 340,36 31/01/2023
1238 257700 CRISTIANE RODRIGUES PAES NUNES ANALISTA DO MP BELO HORIZONTE - COMARCA; BH-22PJ PES COM DEF E IDOSOS-ORIENTACAO PSIC 1.333,00 885,30 578,00 0,00 5.349,39 0,00 0,00 0,00 1.785,71 31/01/2023
1239 1372000 CRISTIANE SALES RODRIGUES ESTAGIARIO ARAXA; ARAXA-PJ-02PJ 0,00 0,00 0,00 108,00 0,00 0,00 0,00 0,00 0,00 31/01/2023
1240 510800 CRISTIANE SANTOS FERNANDES ORNELES ANALISTA DO MP BELO HORIZONTE - COMARCA; BH-03PJ EMPRESARIAL-SECRETARIA 1.333,00 0,00 578,00 0,00 5.812,40 0,00 0,00 0,00 1.198,57 31/01/2023
1241 535701 CRISTIANE SANTOS MIRANDA ANALISTA DO MP CONTAGEM - COMARCA; CONTAGEM-PJ-03PJ 1.333,00 0,00 578,00 0,00 0,00 0,00 0,00 0,00 495,51 31/01/2023
1242 163400 CRISTIANO CASSIOLATO PROMOTOR 1A ENTRANCIA CARMO DO RIO CLARO - COMARCA; CARMO DO RIO CLARO-PJ-UNPJ 1.333,00 0,00 3.040,44 0,00 16.957,25 0,00 0,00 0,00 518,14 31/01/2023
1243 484000 CRISTIANO CESAR PIMENTA DAYRELL DA CUNHA PROMOT.ENTRANC.ESPECIAL SETE LAGOAS - COMARCA; SETE LAGOAS-PJ-01PJ 1.333,00 0,00 3.368,91 0,00 16.844,55 0,00 0,00 0,00 514,69 31/01/2023
1244 299901 CRISTIANO DA COSTA MATA PROMOT.ENTRANC.ESPECIAL IPATINGA - COMARCA; COORD REG SAUDE MACRORREGIAO SANIT VALE ACO 1.333,00 0,00 3.089,73 0,00 14.598,61 0,00 0,00 0,00 514,69 31/01/2023
1245 536200 CRISTIANO DE OLIVEIRA ANALISTA DO MP CONCEIÇÃO DO MATO DENTRO - COMARCA; CONCEICAO DO MATO DENTRO-PJ-UNPJ 1.333,00 1.770,60 578,00 0,00 5.812,40 0,00 0,00 0,00 1.128,31 31/01/2023
1246 675100 CRISTIANO GERALDO CUNHA CABO BELO HORIZONTE - COMARCA; GAECO - SETOR POLICIAL MILITAR 1.333,00 0,00 0,00 0,00 0,00 0,00 0,00 0,00 0,00 31/01/2023
1247 1399200 CRISTIANO MORAIS COSTA ESTAGIARIO BELO HORIZONTE; DIVISAO DE MANUTENCAO PREDIAL 0,00 0,00 0,00 216,00 0,00 0,00 0,00 0,00 0,00 31/01/2023
1248 440000 CRISTIANO MOREIRA SILVA PROMOTOR 2A ENTRANCIA CAPELINHA - COMARCA; CAPELINHA-PJ-02PJ 1.333,00 0,00 1.617,54 0,00 16.002,33 0,00 0,00 0,00 488,96 31/01/2023
1249 167400 CRISTIANO ROCHA GAZAL PROMOTOR 1A ENTRANCIA CAMBUQUIRA - COMARCA; CAMBUQUIRA-PJ-UNPJ 1.333,00 0,00 2.279,31 0,00 16.957,25 0,00 0,00 0,00 518,14 31/01/2023
1250 477400 CRISTIANO SOARES ELEUTERIO ANALISTA DO MP BELO HORIZONTE - COMARCA; GABINETE DE PROCURADOR DE JUSTIÇA - SALA 812 1.333,00 0,00 578,00 0,00 5.951,24 0,00 0,00 0,00 1.424,25 31/01/2023
1251 449400 CRISTIANO TEIXEIRA RODRIGUES LANA ANALISTA DO MP BELO HORIZONTE - COMARCA; BH-18PJ VIOLENCIA DOMESTICA-SECRETARIA 1.333,00 0,00 578,00 0,00 5.817,10 0,00 0,00 0,00 1.358,35 31/01/2023
1252 106600 CRISTINA BECHARA KALLAS PROMOTOR 2A ENTRANCIA PASSOS - COMARCA; PASSOS-PJ-03PJ 1.333,00 0,00 2.912,45 0,00 22.680,60 0,00 0,00 0,00 693,02 31/01/2023
1253 239400 CRISTINA DE FATIMA CRUZ E SILVA OFICIAL DO MP MONTE SANTO DE MINAS - COMARCA; MONTE SANTO DE MINAS-PJ-SECRETARIA 1.333,00 0,00 578,00 0,00 0,00 0,00 0,00 0,00 823,23 31/01/2023
1254 544000 CRISTINA DE OLIVEIRA TERRA ANALISTA DO MP BELO HORIZONTE - COMARCA; BH-18PJ VIOLENCIA DOMESTICA-SECRETARIA 1.333,00 0,00 578,00 0,00 0,00 0,00 0,00 0,00 608,60 31/01/2023
1255 356800 CRISTINA DE PINHO BARROSO OFICIAL DO MP SABINÓPOLIS - COMARCA; SABINOPOLIS-PJ-UNPJ 1.333,00 885,30 578,00 0,00 0,00 0,00 0,00 0,00 602,04 31/01/2023
1256 649500 CRISTINA DO DIVINO ESPIRITO SANTOS OFICIAL DO MP DIVINÓPOLIS - COMARCA; DIVINOPOLIS-PJ-12PJ 1.333,00 0,00 578,00 0,00 5.960,06 0,00 0,00 0,00 872,58 31/01/2023
1257 727100 CRISTINA DORNELLES CLARET ASSESSOR ADMINISTRATIVO III BELO HORIZONTE - COMARCA; CAO-MEIO AMBIENTE 1.333,00 0,00 578,00 0,00 0,00 0,00 0,00 0,00 0,00 31/01/2023
1258 218500 CRISTINA FAGUNDES SIQUEIRA PROMOTOR 2A ENTRANCIA ARAGUARI - COMARCA; ARAGUARI-PJ-04PJ 1.333,00 0,00 3.200,47 0,00 5.642,01 0,00 0,00 0,00 517,18 31/01/2023
1259 484500 CRISTINA FERREIRA LABARRERE NASCIMENTO PROMOTOR SUBSTITUTO RIBEIRÃO DAS NEVES - COMARCA; RIBEIRAO DAS NEVES-PJ-09PJ 1.333,00 0,00 2.076,71 0,00 8.107,84 0,00 0,00 0,00 464,51 31/01/2023
1260 348201 CRISTINA MARIA DA SILVA ANALISTA DO MP ARAXÁ - COMARCA; ARAXA-PJ-06PJ 1.333,00 885,30 578,00 0,00 5.284,00 0,00 0,00 0,00 1.088,83 31/01/2023
1261 434900 CRISTINA MELO DE MADUREIRA ANALISTA DO MP BELO HORIZONTE - COMARCA; BH-07PJ 01 TRIBUNAL JURI-SECRETARIA 1.333,00 0,00 578,00 0,00 0,00 0,00 0,00 0,00 901,95 31/01/2023
1262 307700 CRISTINA TEIXEIRA MARQUES OFICIAL DO MP BELO HORIZONTE - COMARCA; CENTRAL DE APOIO TECNICO-SETOR CONTABIL 1.333,00 0,00 578,00 0,00 5.724,33 0,00 0,00 0,00 1.232,78 31/01/2023
1263 58700 CRISTOVAM JOAQUIM FERNANDES RAMOS FILHO PROCURADOR DE JUSTICA BELO HORIZONTE - COMARCA; PROC JUST ESP ACOES COMP ORIG CRIMINAL 0,00 0,00 1.519,54 0,00 0,00 0,00 0,00 0,00 0,00 31/01/2023
1264 265300 CRISTOVAO SANCHES DE MEDEIROS ANALISTA DO MP BELO HORIZONTE - COMARCA; DIRETORIA DE CONTABILIDADE 1.333,00 0,00 578,00 0,00 0,00 0,00 0,00 0,00 1.237,84 31/01/2023
1265 349800 CROZEIR LUIZ DA SILVA OFICIAL DO MP UNAÍ - COMARCA; UNAI-PJ-SECRETARIA 1.333,00 0,00 578,00 0,00 5.724,33 0,00 0,00 0,00 1.220,82 31/01/2023
1266 490500 CYNTHIA CRISTINA DE SOUZA OLIVEIRA VALENTE ANALISTA DO MP BELO HORIZONTE - COMARCA; BH-09PJ AUDITORIA MILITAR-SECRETARIA 1.333,00 0,00 578,00 0,00 0,00 0,00 0,00 0,00 569,57 31/01/2023
1267 344200 CYNTHIA DUARTE VILELA PROMOTOR 2A ENTRANCIA SABARÁ - COMARCA; SABARA-PJ-03PJ 1.333,00 0,00 3.200,47 0,00 16.002,33 0,00 0,00 0,00 488,96 31/01/2023
1268 389800 CYNTHIA GARIGLIO DOS SANTOS OFICIAL DO MP PERDIZES - COMARCA; PERDIZES-PJ-SECRETARIA 1.333,00 0,00 578,00 0,00 0,00 0,00 0,00 0,00 682,71 31/01/2023
1269 335101 CYNTHIA GONTIJO D ASSUNCAO ANALISTA DO MP BELO HORIZONTE - COMARCA; FEPDC-SECRETARIA EXECUTIVA 1.333,00 885,30 578,00 0,00 0,00 0,00 0,00 0,00 590,76 31/01/2023
1270 223600 CYNTHIA MARIA DOS SANTOS SILVA JORGE PROMOT.ENTRANC.ESPECIAL BELO HORIZONTE - COMARCA; BH-13PJ JUIZO DE TOXICOS-GAB 011PJ 1.333,00 0,00 3.368,91 0,00 14.177,66 0,00 0,00 0,00 541,51 31/01/2023
1271 531200 CYNTIA CAMPOS GIRO PROMOTOR 2A ENTRANCIA VISCONDE DO RIO BRANCO - COMARCA; VISCONDE DO RIO BRANCO-PJ-01PJ 1.333,00 0,00 2.076,71 0,00 0,00 0,00 0,00 0,00 0,00 31/01/2023
1272 269700 CYNTIA ROCHA CAVALCANTI OFICIAL DO MP UBERLÂNDIA - COMARCA; UBERLANDIA-PJ-06PJ 1.333,00 885,30 578,00 0,00 5.700,08 0,00 0,00 0,00 1.527,00 31/01/2023
1273 1504600 DAFINE EMILE ARAUJO ESTAGIARIO BELO HORIZONTE; DIRETORIA DE PRODUCAO EDITORIAL 0,00 0,00 0,00 -48,00 0,00 0,00 0,00 0,00 0,00 31/01/2023
1274 1343100 DAIANE MIRANDA VIEIRA ESTAGIARIO MANHUACU; MANHUACU-PJ-02PJ 0,00 0,00 0,00 108,00 0,00 0,00 0,00 0,00 0,00 31/01/2023
1275 278000 DAIRTON LOPES MARTINS FILHO COORDENADOR II BELO HORIZONTE - COMARCA; DIRETORIA DE SISTEMAS DE INFORMACAO 1.333,00 0,00 578,00 0,00 5.713,46 0,00 0,00 0,00 1.533,84 31/01/2023
1276 1445200 DAIVISON FREITAS SOUZA ESTAGIARIO MESQUITA; MESQUITA-PJ-UNPJ 0,00 0,00 0,00 72,00 0,00 0,00 0,00 0,00 0,00 31/01/2023
1277 392700 DALIANA CHAVES IBRAIM MARINHO OFICIAL DO MP ITAÚNA - COMARCA; ITAUNA-PJ-04PJ 1.333,00 0,00 578,00 0,00 0,00 0,00 0,00 0,00 528,60 31/01/2023
1278 1370300 DALIANA MONTEIRO DE ARAUJO COSTA ESTAGIARIO NOVA LIMA; NOVA LIMA-PJ-01PJ 0,00 0,00 0,00 120,00 0,00 0,00 0,00 0,00 0,00 31/01/2023
1279 558101 DALLEY TASSIA SILVA ANALISTA DO MP MORADA NOVA DE MINAS - COMARCA; MORADA NOVA DE MINAS-PJ-UNPJ 1.333,00 885,30 578,00 0,00 0,00 0,00 0,00 0,00 514,66 31/01/2023
1280 476700 DALTON DAUD ANALISTA DO MP ARAGUARI - COMARCA; ARAGUARI-PJ-05PJ 1.333,00 0,00 578,00 0,00 5.812,40 0,00 0,00 0,00 1.172,31 31/01/2023
1281 426900 DANIEL ALVES DA SILVA OFICIAL DO MP BELO HORIZONTE - COMARCA; DIVISAO TRANSPORTES 1.333,00 0,00 578,00 0,00 0,00 0,00 0,00 0,00 428,04 31/01/2023
1282 343900 DANIEL ANGELO DE OLIVEIRA RANGEL PROMOTOR 1A ENTRANCIA RIO PRETO - COMARCA; RIO PRETO-PJ-UNPJ 1.333,00 0,00 2.633,87 0,00 11.148,28 0,00 0,00 0,00 464,51 31/01/2023
1283 122000 DANIEL ANTONIO VIEIRA OFICIAL DO MP ENTRE-RIOS DE MINAS - COMARCA; ENTRE RIOS DE MINAS-PJ-SECRETARIA 1.333,00 0,00 578,00 0,00 0,00 0,00 0,00 0,00 867,14 31/01/2023
1284 1456600 DANIEL ARRUDA DE LACERDA ESTAGIARIO RIBEIRAO DAS NEVES; RIBEIRAO DAS NEVES-PJ-12PJ 0,00 0,00 0,00 84,00 0,00 0,00 0,00 0,00 0,00 31/01/2023
1285 685900 DANIEL AUGUSTO DE CAMARGO LIMA CAMPOS PROMOTOR 2A ENTRANCIA PEDRA AZUL - COMARCA; PEDRA AZUL-PJ-01PJ 1.333,00 0,00 835,75 0,00 5.334,11 0,00 0,00 0,00 488,96 31/01/2023
1286 1375600 DANIEL AUGUSTO ROCHA DE ALMEIDA ESTAGIARIO BELO HORIZONTE; OUVIDORIA DO MPMG 0,00 0,00 0,00 192,00 0,00 0,00 0,00 0,00 0,00 31/01/2023
1287 311501 DANIEL BATISTA MENDES PROMOT.ENTRANC.ESPECIAL BELO HORIZONTE - COMARCA; BH-25PJ DEFESA DA EDUCACAO-GAB 050PJ 1.333,00 0,00 3.368,91 0,00 16.844,55 0,00 0,00 0,00 514,69 31/01/2023
1288 1535200 DANIEL BEZERRA BARROSO ESTAGIARIO BELO HORIZONTE; DIRET DE INFORMACAO E CONHECIMENTO-DINC/CEAF 0,00 0,00 0,00 72,00 0,00 0,00 0,00 0,00 0,00 31/01/2023
1289 1491800 DANIEL BRENDO ALVES CORREIA ESTAGIARIO IPATINGA; IPATINGA-PJ-05PJ 0,00 0,00 0,00 120,00 0,00 0,00 0,00 0,00 0,00 31/01/2023
1290 437801 DANIEL CASTRO E MELO PROMOTOR 2A ENTRANCIA MONTES CLAROS - COMARCA; COORD REG DEF ORDEM ECON TRIB MONTES CLAROS 1.333,00 0,00 0,00 0,00 16.002,33 0,00 0,00 0,00 488,96 31/01/2023
1291 313800 DANIEL DE OLIVEIRA MALARD PROMOT.ENTRANC.ESPECIAL BELO HORIZONTE - COMARCA; CORREGEDORIA-GERAL-ASSESSORIA 1.333,00 0,00 3.368,91 0,00 11.229,70 0,00 0,00 0,00 514,69 31/01/2023
1292 170200 DANIEL DE SA RODRIGUES PROMOT.ENTRANC.ESPECIAL BELO HORIZONTE - COMARCA; CAO-PATRIMONIO PUBLICO 1.333,00 0,00 3.368,91 0,00 18.691,95 0,00 0,00 0,00 571,14 31/01/2023
1293 456600 DANIEL DOS SANTOS RODRIGUES PROMOT.ENTRANC.ESPECIAL CONTAGEM - COMARCA; CONTAGEM-PJ-03PJ 1.333,00 0,00 2.912,45 0,00 0,00 0,00 0,00 0,00 0,00 31/01/2023
1294 1554200 DANIEL FERNANDES MARTINS ESTAGIARIO SENADOR FIRMINO; SENADOR FIRMINO-PJ-UNPJ 0,00 0,00 0,00 48,00 0,00 0,00 0,00 0,00 0,00 31/01/2023
1295 714000 DANIEL FERREIRA CAMARA ASSESSOR PROMOTOR JUSTICA RIBEIRÃO DAS NEVES - COMARCA; RIBEIRAO DAS NEVES-PJ-12PJ 1.333,00 0,00 578,00 0,00 0,00 0,00 0,00 0,00 141,40 31/01/2023
1296 411000 DANIEL FERREIRA DA SILVA ANALISTA DO MP GOVERNADOR VALADARES - COMARCA; GOVERNADOR VALADARES-PJ-15PJ 1.333,00 2.213,25 578,00 0,00 0,00 0,00 0,00 0,00 984,81 31/01/2023
1297 703500 DANIEL FILIPE DE DEUS SOARES ASSESSOR PROMOTOR JUSTICA ITABIRITO - COMARCA; ITABIRITO-PJ-02PJ 1.333,00 0,00 578,00 0,00 0,00 0,00 0,00 0,00 287,79 31/01/2023
1298 309000 DANIEL GOMES DOS SANTOS ANALISTA DO MP POÇOS DE CALDAS - COMARCA; POCOS DE CALDAS-PJ-05PJ 1.333,00 0,00 578,00 0,00 5.349,39 0,00 0,00 0,00 1.877,38 31/01/2023
1299 554500 DANIEL GOMES PEREIRA OFICIAL DO MP NANUQUE - COMARCA; NANUQUE-PJ-02PJ 1.333,00 0,00 578,00 0,00 0,00 0,00 0,00 0,00 406,69 31/01/2023
1300 1507400 DANIEL GONCALVES ESTAGIARIO GOVERNADOR VALADARES; GOVERNADOR VALADARES-PJ-16PJ 0,00 0,00 0,00 108,00 0,00 0,00 0,00 0,00 0,00 31/01/2023
1301 453000 DANIEL GONCALVES PEREIRA ANALISTA DO MP UNAÍ - COMARCA; UNAI-PJ-02PJ 1.333,00 2.213,25 578,00 0,00 5.812,40 0,00 0,00 0,00 1.209,42 31/01/2023
1302 495500 DANIEL GUIMARAES CABRAL OFICIAL DO MP BELO HORIZONTE - COMARCA; BH-17PJ PATRIMONIO PUBLICO-SECRETARIA 1.333,00 885,30 578,00 0,00 5.573,66 0,00 0,00 0,00 1.140,72 31/01/2023
1303 442900 DANIEL GUIMARAES GONCALVES ANALISTA DO MP UBERLÂNDIA - COMARCA; UBERLANDIA-PJ-03PJ 1.333,00 0,00 578,00 0,00 5.261,61 0,00 0,00 0,00 1.424,74 31/01/2023
1304 1551500 DANIEL HENRIQUE ROCHA DOS SANTOS ESTAGIARIO SANTA BARBARA; SANTA BARBARA-PJ-UNPJ 0,00 0,00 0,00 48,00 0,00 0,00 0,00 0,00 0,00 31/01/2023
1305 634800 DANIEL LESSA COSTA PROMOT.ENTRANC.ESPECIAL MONTES CLAROS - COMARCA; COORD REG SAUDE MACRORREGIAO SANITARIA NORTE 1.333,00 0,00 2.595,31 0,00 16.844,55 0,00 0,00 0,00 514,69 31/01/2023
1306 655900 DANIEL LUIZ DA SILVA ASSESSOR ADMINISTRATIVO II BELO HORIZONTE - COMARCA; DIV FISCAL ADM CONT TERCEIRIZACAO 1.333,00 0,00 578,00 0,00 5.891,30 0,00 0,00 0,00 774,61 31/01/2023
1307 1484400 DANIEL LUIZ DA SILVA JANUARIO ESTAGIARIO RIBEIRAO DAS NEVES; RIBEIRAO DAS NEVES-PJ-08PJ 0,00 0,00 0,00 72,00 0,00 0,00 0,00 0,00 0,00 31/01/2023
1308 209600 DANIEL MAROTTA MARTINEZ PROMOT.ENTRANC.ESPECIAL UBERLÂNDIA - COMARCA; UBERLANDIA-PJ-17PJ 1.333,00 0,00 3.368,91 0,00 11.877,92 0,00 0,00 0,00 544,40 31/01/2023
1309 1531400 DANIEL MOREIRA NASCIMENTO ESTAGIARIO DIAMANTINA; COORD REG BACIAS RIOS JEQUITINHONHA E MUCURI 0,00 0,00